GFSCGP_sfc_thetae_000.txt.gz
Theta_e
307 303 301 305 307 306 306 305 305 309 312 310 309 311 312 315 314 315 316 318 320 320 323 324 326 328 329 332 335 337 337 340 338 333 334 336 336 338 335 336 334 332 331 331
303 301 306 308 308 306 305 304 304 308 311 309 308 308 312 313 314 315 315 316 319 320 320 322 325 328 328 330 334 336 337 339 338 337 340 338 337 337 337 337 335 334 331 333
299 303 308 307 306 304 305 304 305 305 308 310 308 306 309 312 315 315 317 318 319 320 319 321 323 326 327 329 333 334 337 338 339 340 338 338 336 334 337 335 332 331 333 333
301 306 306 306 304 307 302 308 308 306 304 299 308 298 307 309 311 313 313 316 317 320 321 322 323 325 327 326 331 335 337 337 337 339 338 337 332 329 334 334 334 330 333 332
300 303 303 305 306 308 305 310 308 307 304 303 303 300 303 310 308 310 312 314 318 321 321 321 323 325 325 327 330 334 337 337 340 341 339 336 335 334 335 334 332 332 329 333
302 308 308 308 310 310 310 308 307 306 303 297 302 300 300 305 307 309 311 313 318 320 321 322 325 326 324 326 328 334 336 336 339 340 338 338 333 332 332 330 330 331 332 330
302 302 307 310 306 310 308 305 297 295 294 294 303 300 303 310 310 310 310 314 319 321 320 321 322 322 323 323 327 330 333 332 335 337 337 336 334 331 332 330 328 329 329 329
297 295 303 309 307 305 306 305 297 292 292 295 305 299 303 310 312 312 313 316 321 320 321 321 322 322 321 323 325 327 330 330 332 333 336 338 334 333 332 330 329 329 330 330
298 298 307 308 310 310 305 301 306 300 301 297 300 305 310 312 310 311 313 318 320 321 321 321 323 323 323 324 326 329 331 331 332 332 336 337 335 334 335 335 332 328 332 332
305 299 306 307 311 311 309 308 299 300 292 292 297 300 301 306 308 312 315 318 321 321 320 321 322 323 324 325 327 331 332 330 332 333 335 334 332 336 335 337 334 329 332 333
308 307 304 308 306 304 305 303 304 304 300 294 293 298 311 310 313 316 316 320 321 319 318 321 321 324 323 323 324 329 330 328 330 331 333 334 333 336 334 333 333 328 329 331
308 307 302 304 309 311 308 305 306 299 299 301 299 300 314 315 314 317 317 319 319 319 319 320 321 323 320 321 324 326 330 325 327 329 330 334 335 336 334 333 334 330 331 332
309 304 300 302 306 309 305 307 308 309 308 302 296 299 314 314 314 316 319 318 318 319 319 320 321 321 318 320 322 323 326 325 324 325 327 333 336 334 335 333 333 331 329 331
312 307 303 299 303 307 304 305 306 305 301 300 301 303 309 310 311 314 319 319 318 319 319 319 320 321 317 320 321 322 325 324 323 323 326 330 335 334 336 335 334 334 333 329
312 302 307 306 307 306 305 304 304 303 305 300 303 304 308 312 313 315 320 320 318 317 318 320 321 321 318 320 321 322 324 323 323 321 325 329 333 337 336 334 334 333 333 332
314 303 307 302 306 306 303 305 305 305 304 304 305 306 313 316 316 316 319 319 317 318 318 320 322 322 318 320 320 322 324 322 321 321 322 326 327 331 333 335 332 331 330 332
310 306 303 300 304 304 300 304 305 306 307 307 303 309 313 312 313 316 320 320 320 320 320 320 322 322 320 321 323 323 324 322 321 320 320 323 325 326 332 332 332 330 332 334
308 307 305 301 303 293 304 311 309 308 308 310 310 311 313 314 317 316 318 321 321 322 322 322 324 325 324 323 323 325 325 322 319 320 318 321 322 324 328 330 331 333 333 333
311 308 302 299 298 302 303 307 307 307 307 312 310 311 312 315 316 317 319 320 324 325 326 325 326 328 325 324 324 324 324 322 319 319 319 318 321 324 326 328 331 334 335 333
309 311 305 302 297 294 304 309 312 312 302 314 314 314 314 314 307 311 320 321 325 326 328 327 328 328 326 326 325 324 323 322 319 319 321 318 319 325 326 332 333 334 336 334
301 303 300 300 301 301 309 311 313 300 304 316 316 317 317 314 316 326 326 324 328 327 328 330 329 327 327 327 326 324 323 323 322 321 322 321 321 326 330 334 334 334 334 331
299 298 300 302 299 295 312 310 306 316 327 322 319 319 318 320 322 323 324 325 326 326 327 329 328 328 329 328 326 324 324 326 324 322 322 322 326 321 329 333 332 332 331 333
294 303 301 303 304 319 317 318 324 324 320 318 320 320 320 318 319 320 323 326 327 327 327 328 329 330 330 328 326 324 327 327 324 323 324 325 324 324 329 330 330 328 330 328
301 304 300 302 308 312 314 318 320 320 320 321 322 322 320 319 320 321 321 325 325 327 327 329 329 330 330 329 328 327 328 327 325 325 326 326 323 323 327 328 329 325 324 323
296 299 300 301 307 312 313 316 317 318 320 320 321 320 321 322 322 322 322 325 324 326 328 329 328 330 331 331 330 329 329 327 325 326 326 326 324 322 326 327 327 325 326 321
297 296 294 299 302 303 313 313 315 319 318 321 320 321 323 322 323 324 324 326 326 326 328 330 331 333 332 332 331 330 329 327 328 326 325 324 323 321 324 324 325 299 305 302

GFSCGP_sfc_thetae_003.txt.gz
Theta_e
304 295 295 299 301 303 301 300 300 304 308 306 305 306 307 309 309 307 308 309 311 311 314 317 320 321 319 319 322 323 323 323 323 321 323 321 321 324 327 327 327 325 325 325
297 293 300 304 304 303 302 299 299 303 307 306 305 304 307 309 308 308 308 308 308 311 313 316 318 318 317 318 321 323 323 323 322 322 325 323 325 326 327 327 327 326 327 327
294 298 303 303 301 301 301 299 299 299 305 306 302 299 304 308 309 310 310 309 311 311 312 314 317 316 317 317 319 323 323 321 321 324 326 323 324 324 324 325 324 324 326 327
295 301 301 301 300 302 297 305 303 302 301 294 303 289 299 303 305 307 307 308 310 311 313 315 317 317 316 318 321 322 322 320 323 322 324 322 320 319 322 324 325 324 326 325
295 297 298 298 301 304 300 306 304 304 300 296 297 291 295 303 302 305 304 308 310 311 313 314 317 319 318 319 319 321 320 319 323 322 323 323 322 324 324 323 323 322 325 325
298 303 301 299 303 306 307 304 303 302 297 288 295 294 294 299 302 303 305 308 312 311 313 315 318 319 317 317 319 320 321 320 323 326 322 323 323 325 322 319 321 321 324 323
297 297 301 303 300 303 304 297 290 286 285 285 298 295 296 303 306 305 306 309 311 313 313 315 317 316 314 314 316 318 320 317 319 322 322 323 321 323 320 318 319 321 319 320
291 289 298 302 299 298 299 298 290 283 285 289 299 292 298 307 307 308 311 311 312 311 313 315 316 315 314 313 316 316 319 317 316 319 321 322 324 324 321 319 321 321 320 320
291 292 302 302 303 302 299 296 300 293 293 289 294 299 304 305 304 306 311 312 310 310 312 314 315 314 314 313 313 313 318 316 317 320 319 323 325 324 323 323 321 321 322 324
296 290 300 302 303 303 301 304 294 291 284 282 292 294 295 299 302 304 310 309 310 311 312 314 315 314 315 314 313 314 319 316 318 320 321 324 327 326 325 325 325 322 322 322
300 296 297 300 298 296 299 297 295 294 291 285 284 291 302 301 305 308 310 311 311 311 312 314 314 315 315 315 314 315 317 316 317 318 318 323 328 326 326 325 324 324 321 324
300 296 293 297 303 304 302 299 296 292 289 293 292 292 306 308 309 310 313 313 311 311 312 314 314 314 313 314 314 315 317 316 316 318 318 321 325 326 326 327 326 325 324 324
300 295 291 293 298 302 301 302 300 297 296 293 290 292 306 308 311 314 312 313 312 311 311 313 315 313 313 313 315 316 318 314 316 319 316 320 324 325 324 325 325 326 324 324
306 296 294 292 295 300 298 301 301 297 293 294 296 297 302 305 307 311 312 312 312 311 313 313 315 313 312 313 316 316 317 314 314 318 315 320 323 323 324 324 326 326 326 324
302 294 298 299 302 303 302 301 301 298 298 295 297 298 303 304 305 311 313 312 312 311 312 313 314 313 310 311 313 317 317 313 313 317 315 318 323 323 325 325 328 325 326 324
299 295 298 298 302 302 301 302 302 302 300 300 300 300 306 308 308 312 312 312 311 312 314 315 316 314 312 313 313 316 315 313 312 317 316 319 318 326 324 321 326 323 325 324
294 297 296 292 300 300 296 301 302 302 302 301 297 300 306 306 308 312 312 313 312 313 314 315 317 315 312 314 314 315 315 312 312 317 319 318 318 324 326 321 320 320 322 319
293 294 297 292 296 288 299 307 306 303 304 303 303 305 307 307 309 315 316 314 314 314 315 316 317 315 314 315 314 316 316 312 312 313 318 318 318 323 324 322 320 320 320 318
298 296 295 290 291 298 301 304 303 300 300 305 303 307 309 309 309 312 318 318 317 316 317 318 319 317 315 316 317 317 315 312 312 312 314 318 317 320 322 323 320 321 320 320
301 302 296 291 288 288 299 305 308 306 296 307 307 306 307 307 300 304 311 319 318 319 319 319 321 318 317 317 318 317 315 312 310 312 313 317 317 319 319 324 322 323 323 321
295 296 294 292 289 296 305 308 308 296 296 308 308 308 307 304 306 310 313 318 321 321 320 322 322 318 317 318 318 316 316 313 314 314 314 313 315 320 321 326 326 324 325 322
293 292 292 291 290 290 309 307 299 302 306 310 310 311 310 312 313 313 317 319 319 321 321 323 321 318 320 320 319 316 316 317 316 314 315 312 314 323 329 327 325 324 323 321
291 294 292 294 298 304 308 307 314 312 310 309 312 312 312 311 311 313 315 319 320 320 322 323 322 321 321 320 319 317 317 320 318 314 314 314 317 320 328 325 323 320 320 321
293 296 294 295 302 299 306 307 307 311 312 313 314 314 313 311 311 311 317 319 320 320 322 323 323 322 320 321 320 320 321 322 319 315 316 316 314 322 326 326 324 320 317 317
293 294 292 294 297 300 303 302 303 313 312 311 313 313 313 312 312 312 315 318 318 319 321 324 325 323 322 322 321 322 323 321 317 317 318 315 315 322 322 323 323 320 319 316
294 293 290 291 296 297 297 301 302 309 312 312 312 313 315 315 313 314 317 318 318 318 321 323 325 325 325 324 323 323 323 322 318 319 318 315 315 320 322 320 317 296 299 303

GFSCGP_sfc_thetae_006.txt.gz
Theta_e
303 297 293 296 299 300 299 296 296 301 305 302 302 303 306 308 307 307 306 306 308 308 312 314 317 316 315 317 318 318 319 320 321 318 319 318 319 322 323 326 326 325 322 323
297 293 298 302 301 299 297 297 296 300 304 301 301 301 306 307 306 305 306 306 306 308 312 315 315 314 314 317 319 319 320 319 320 318 322 320 321 322 323 324 325 327 325 326
293 299 302 300 298 297 297 296 298 298 302 303 300 298 301 306 307 308 307 307 309 309 310 313 315 313 314 316 318 320 320 320 318 321 321 320 320 321 322 323 324 323 324 327
294 300 300 297 295 298 294 301 301 301 298 292 300 289 296 301 302 304 305 305 307 309 311 314 314 312 313 314 317 320 320 318 320 320 319 319 318 317 319 320 321 321 323 324
293 296 295 294 296 300 297 302 300 300 298 294 296 290 294 299 300 303 304 305 307 309 311 312 313 314 314 317 317 320 317 320 321 319 320 320 317 319 319 319 319 320 322 325
296 300 298 297 300 301 303 300 299 299 296 289 295 293 295 296 300 302 304 307 307 308 310 312 315 314 314 315 317 317 316 318 320 320 320 319 318 318 317 317 318 318 319 323
295 295 299 300 296 300 300 294 287 283 285 287 295 292 295 300 303 304 303 305 307 309 311 314 314 313 312 314 315 316 316 317 318 319 320 319 320 318 316 316 317 316 316 317
289 287 295 300 297 294 294 293 289 282 283 287 296 290 295 303 305 306 307 308 308 308 312 313 314 313 312 314 315 316 315 314 314 317 319 319 320 318 317 318 318 317 317 317
289 289 300 300 300 298 294 292 297 290 291 287 290 295 302 303 303 306 307 308 307 308 311 313 314 312 310 312 314 314 316 315 313 317 319 320 321 320 319 319 319 318 318 320
293 288 298 299 300 299 296 298 291 289 284 282 288 291 293 297 300 306 306 306 306 308 311 313 313 311 310 312 311 311 316 314 316 317 317 322 325 322 322 319 319 319 319 320
295 291 293 298 294 293 293 292 293 293 290 285 282 288 298 300 300 306 306 307 308 309 311 313 312 312 310 310 309 311 315 313 314 317 317 323 324 323 323 322 319 320 320 320
297 290 288 292 297 300 297 294 295 291 287 289 288 290 301 302 303 308 307 309 309 311 312 312 312 311 310 309 310 313 314 314 314 316 316 323 324 323 322 321 321 321 320 321
296 291 286 290 292 298 294 297 296 293 292 289 287 289 304 305 307 309 308 308 309 309 310 311 310 311 311 310 311 312 315 314 314 316 315 323 323 321 323 321 321 322 322 322
297 292 290 287 291 295 292 296 299 294 288 289 292 294 299 304 308 308 309 309 309 311 312 312 311 310 311 312 312 313 314 313 314 314 316 320 321 321 321 322 321 322 323 323
291 291 293 294 297 298 297 297 299 297 295 293 294 296 299 303 309 310 310 309 309 310 311 312 312 309 310 310 312 314 314 311 314 314 317 320 320 321 323 323 321 322 322 323
291 287 294 292 296 296 295 299 300 300 297 297 298 297 303 308 310 309 310 309 309 310 312 313 313 311 310 311 313 314 314 310 315 313 314 320 320 323 323 323 321 323 322 320
287 289 290 289 295 295 291 297 300 300 301 299 295 298 302 303 308 310 309 310 310 311 312 313 314 313 311 311 314 313 313 311 315 313 315 317 317 323 320 321 319 320 316 316
288 287 288 289 292 285 296 303 304 301 301 302 299 301 303 306 307 313 313 311 311 312 313 314 315 314 312 312 313 314 312 312 315 314 316 315 317 321 318 318 318 317 315 315
292 288 287 285 289 293 299 301 301 298 297 301 302 302 304 305 307 308 314 314 313 313 314 315 317 315 312 312 313 314 311 310 315 315 315 314 317 321 319 316 316 316 314 313
294 293 292 289 284 284 296 303 307 305 296 303 303 303 303 307 302 305 313 315 314 314 315 316 317 314 313 313 314 314 310 309 313 314 316 315 316 320 320 316 317 317 315 314
292 293 288 289 284 293 301 305 308 295 295 304 305 305 305 303 306 311 315 315 315 315 315 317 316 313 314 314 315 313 310 309 311 314 316 315 315 317 321 318 319 319 318 316
288 287 288 289 286 288 302 304 298 300 307 307 305 304 305 306 306 308 314 316 317 315 315 317 317 314 314 315 315 314 310 311 311 313 314 314 314 319 323 321 319 320 318 316
287 291 288 291 293 296 302 300 300 300 301 309 307 308 308 307 308 312 311 315 317 316 317 319 317 314 314 316 316 314 314 313 312 311 311 311 315 318 324 322 319 318 318 316
291 295 291 290 299 295 298 300 301 301 300 306 310 309 309 308 309 311 314 315 317 318 318 319 317 314 314 316 316 316 317 316 314 311 309 309 315 320 324 324 323 321 318 317
291 293 291 292 295 295 299 299 300 301 302 302 309 311 311 308 308 312 314 316 318 319 319 320 317 316 316 316 316 317 318 318 314 311 311 310 315 322 323 324 322 322 321 319
295 291 289 288 295 295 295 299 302 300 300 302 303 309 310 313 308 313 315 317 319 320 320 320 319 318 318 317 317 318 319 319 316 313 312 311 316 321 322 320 310 296 303 302

GFSCGP_sfc_thetae_009.txt.gz
Theta_e
299 294 292 295 296 296 295 293 293 297 301 300 298 299 303 306 304 305 307 307 306 307 308 310 312 312 315 315 316 317 316 316 318 317 316 317 317 318 320 323 324 324 325 322
295 291 299 301 299 296 295 293 294 298 302 299 298 298 302 304 304 306 307 306 305 306 309 311 311 312 314 315 316 316 317 318 318 316 318 318 317 320 320 321 326 327 325 323
290 294 302 301 297 296 295 293 294 295 299 300 298 296 299 304 304 306 305 305 306 307 308 311 311 311 313 316 316 317 317 318 318 318 318 318 318 319 319 319 320 321 323 324
292 298 298 298 295 296 292 299 298 296 294 290 297 287 295 299 301 302 304 303 305 307 309 312 312 310 313 315 317 318 318 317 317 319 317 316 316 315 316 317 318 319 322 323
291 294 294 294 295 298 295 300 298 297 294 291 294 289 293 297 298 300 302 302 303 306 309 311 311 312 313 314 317 317 318 316 318 318 317 318 315 316 317 317 316 317 319 322
293 299 297 296 300 300 300 296 295 294 291 286 293 290 292 295 298 300 302 304 305 305 308 310 311 312 312 314 316 316 316 317 318 318 318 317 316 315 314 315 315 315 317 320
292 293 297 298 295 297 296 290 283 280 283 284 293 290 294 299 301 303 303 303 304 306 309 310 310 310 311 313 315 314 314 315 317 319 319 317 317 316 314 314 315 314 315 315
287 285 293 298 295 292 293 293 285 280 281 285 293 289 295 301 304 305 305 303 306 306 309 310 311 311 311 313 314 315 314 315 314 316 318 316 318 315 314 318 316 315 315 315
287 288 297 298 298 297 292 290 295 287 289 286 289 294 299 301 302 304 304 305 304 306 309 311 311 310 311 312 312 314 313 312 312 316 318 317 318 316 316 316 316 316 316 318
291 285 295 297 298 297 292 295 286 284 280 279 287 289 291 296 299 303 303 303 304 306 309 311 311 309 310 312 312 312 315 313 312 315 317 320 321 319 317 317 317 316 317 318
290 289 290 295 292 291 289 290 288 290 288 282 281 287 296 298 300 303 303 304 305 307 310 311 310 309 310 310 310 310 314 312 313 315 315 322 321 321 319 318 318 318 317 319
293 288 286 290 294 298 295 292 292 287 285 287 287 290 300 299 300 304 304 305 305 308 310 311 310 308 307 308 307 309 313 312 313 315 315 321 322 321 319 318 318 318 318 319
292 287 282 285 290 293 291 293 293 291 289 287 286 290 301 301 300 306 304 305 307 308 308 308 308 309 308 307 307 311 312 312 312 314 316 321 320 320 319 318 319 319 319 320
293 288 287 284 287 292 290 292 293 292 288 289 290 291 297 301 301 304 304 305 307 309 310 309 309 309 308 308 309 311 312 312 313 313 319 319 319 320 319 319 319 320 321 321
288 283 290 293 293 294 294 293 293 292 293 290 293 293 296 302 303 306 306 305 307 308 309 310 309 308 308 307 309 311 313 311 313 313 318 318 318 320 320 319 319 321 321 321
288 282 289 291 293 293 291 294 295 295 295 295 295 294 299 304 307 307 307 307 307 308 310 311 311 309 309 310 310 311 312 310 312 313 318 319 318 321 321 318 319 320 320 321
285 285 284 285 293 291 287 292 294 295 298 297 292 296 300 301 307 308 307 308 308 310 311 311 311 310 310 311 312 310 311 310 312 313 317 319 319 321 320 319 319 318 315 316
286 284 285 282 288 281 292 298 298 296 299 299 297 299 302 303 310 311 312 310 309 311 312 312 313 312 310 311 312 311 310 312 313 311 315 316 318 319 319 318 317 313 313 314
292 286 282 281 283 289 295 298 295 294 295 300 300 300 302 303 306 305 312 313 312 312 313 314 315 314 311 310 312 311 309 312 313 312 313 314 319 316 316 316 315 312 312 311
294 290 285 285 280 281 292 298 303 302 292 302 305 300 300 304 300 303 310 312 312 312 314 314 315 314 311 310 312 311 308 312 312 313 314 313 319 317 316 316 314 312 311 311
287 285 282 283 282 291 296 299 301 291 290 297 304 305 300 303 306 309 312 313 313 312 313 314 314 312 311 311 312 311 308 311 314 315 314 312 317 318 316 315 315 313 312 311
285 286 288 287 284 285 297 297 291 293 297 298 299 304 302 306 306 308 312 313 312 310 312 314 314 312 312 312 313 311 308 311 314 314 314 312 314 321 318 316 315 314 312 309
285 287 287 290 291 297 297 295 298 298 297 298 298 301 307 306 304 308 311 313 313 312 313 315 314 311 312 312 314 312 311 309 311 312 312 310 312 315 319 316 315 315 313 310
289 293 290 290 296 296 297 297 298 300 298 300 301 302 307 305 304 307 312 313 314 313 313 315 314 311 310 313 314 314 312 310 310 310 310 311 312 313 318 319 318 318 315 313
291 292 289 290 295 296 298 296 298 299 300 301 302 302 306 309 309 307 311 314 315 314 314 316 314 312 312 313 314 315 313 311 309 309 308 308 312 314 318 319 318 319 319 317
293 289 287 287 294 294 295 298 299 299 299 301 301 302 306 306 312 310 310 315 316 315 316 316 315 314 313 314 314 314 316 313 311 309 308 307 311 315 319 319 311 297 300 302

GFSCGP_sfc_thetae_012.txt.gz
Theta_e
294 291 290 292 295 294 293 291 290 293 299 297 296 296 300 304 302 302 303 305 305 307 307 308 310 311 315 315 316 317 317 316 316 317 317 316 318 319 321 324 325 325 325 326
293 289 294 297 297 295 294 291 290 295 301 298 296 296 300 302 302 302 304 305 305 304 308 309 308 311 314 316 316 315 316 316 317 317 317 319 318 320 321 322 324 326 326 325
289 292 297 297 296 293 293 292 292 292 299 298 296 293 297 302 302 303 304 305 304 304 307 308 308 310 313 314 315 316 316 317 318 318 319 319 319 320 319 320 322 323 325 325
290 294 294 295 294 296 290 297 296 295 293 287 295 285 294 297 300 301 302 301 303 304 307 308 308 310 313 315 316 317 317 318 318 318 317 317 317 316 318 319 320 321 324 325
287 291 292 292 295 299 294 300 297 296 292 288 290 286 292 295 296 300 302 303 302 302 308 307 308 312 314 315 316 317 318 318 318 318 318 319 317 317 318 319 319 322 322 324
291 295 295 294 299 300 300 296 293 292 288 283 289 289 288 293 297 299 301 302 305 304 307 308 309 312 312 315 316 317 317 316 317 317 318 319 317 317 316 318 318 318 319 321
289 289 293 297 292 296 294 288 281 278 279 281 292 288 291 297 299 301 302 302 304 305 307 308 309 310 311 313 315 315 316 316 317 318 319 318 318 318 317 317 317 317 317 319
284 282 290 296 293 292 293 290 282 277 279 285 291 286 292 300 302 303 304 303 304 306 307 308 310 310 312 313 314 315 314 315 317 317 319 318 319 316 317 318 318 317 317 319
285 286 294 296 297 297 291 288 292 286 288 284 286 292 297 300 301 302 302 303 303 305 306 308 309 310 311 313 314 314 313 314 315 315 318 318 319 317 318 319 319 318 318 320
289 284 292 294 295 297 292 294 286 286 279 278 285 288 290 295 298 302 302 301 302 306 307 308 309 309 311 313 313 314 314 313 314 315 318 320 320 319 319 319 318 319 320 322
290 287 288 292 290 289 288 287 286 288 284 280 280 286 295 297 299 301 301 302 303 306 308 309 308 310 311 312 312 313 314 314 313 316 316 322 321 321 319 320 319 320 320 321
290 286 284 288 292 296 293 289 289 285 283 286 286 287 298 299 298 301 302 303 304 306 308 309 309 308 309 310 310 310 313 314 313 317 317 322 322 322 320 320 320 320 320 322
291 285 281 283 288 291 290 292 292 288 287 286 284 286 299 301 300 301 301 303 305 307 307 307 307 307 309 309 309 309 312 314 314 315 316 322 322 320 320 319 320 321 321 322
292 285 284 283 285 289 287 291 292 288 282 285 289 289 295 301 300 300 302 303 305 307 308 308 307 307 307 308 308 310 312 313 313 315 320 320 320 321 320 320 321 321 323 323
287 281 286 287 290 292 291 291 291 289 290 287 289 291 294 298 301 301 303 304 306 307 308 309 309 307 306 307 308 311 313 313 314 315 319 319 320 321 320 321 321 322 323 323
290 281 285 284 292 292 290 291 291 292 292 291 291 292 297 299 304 304 304 305 306 307 309 310 310 309 307 308 308 311 313 312 314 316 319 320 321 322 321 321 321 322 323 323
287 283 281 279 286 289 286 291 291 292 293 293 290 296 298 301 304 304 304 306 307 309 310 310 310 310 310 309 310 310 312 312 313 316 320 320 322 322 319 321 321 320 320 321
287 284 282 279 285 279 290 295 296 293 294 295 296 296 299 301 307 307 308 308 308 310 311 311 312 311 311 311 310 311 312 312 312 314 318 319 321 322 320 320 319 316 318 319
291 287 283 279 280 287 292 294 293 292 291 296 299 300 300 301 306 307 310 311 310 312 313 313 313 312 309 311 312 312 310 311 312 313 317 317 320 320 319 319 316 315 316 316
293 291 286 282 279 280 289 294 298 299 288 295 296 296 301 302 298 302 309 312 310 311 314 313 313 312 310 311 312 311 310 311 312 313 316 316 320 320 318 318 316 315 315 316
287 286 283 281 279 287 293 295 298 289 287 295 296 296 295 299 303 305 309 312 313 312 313 314 313 311 311 311 313 311 310 311 314 314 315 315 319 318 319 317 316 315 314 315
285 283 282 281 281 283 296 294 288 292 295 297 297 297 297 298 301 307 307 312 311 310 312 314 313 312 312 312 313 311 309 314 314 314 314 314 318 319 318 318 316 315 313 312
285 287 285 289 289 297 299 296 298 296 295 296 297 299 299 299 304 306 307 310 311 312 313 314 314 312 311 312 314 312 312 312 313 314 313 312 317 319 318 317 315 314 313 312
289 293 289 289 292 294 295 300 298 297 296 298 299 300 301 300 304 307 306 309 311 312 313 314 313 311 310 312 314 315 312 312 313 313 312 311 314 317 318 319 318 316 313 312
288 290 289 290 293 294 296 297 299 298 299 299 300 302 302 303 304 309 305 310 312 312 313 314 313 311 311 312 314 314 312 312 312 312 312 311 313 316 318 319 318 319 318 314
290 288 287 287 293 293 294 298 299 298 298 298 299 301 304 306 311 312 310 312 313 312 313 314 313 312 312 313 314 313 313 312 311 310 310 311 312 314 318 318 313 296 301 303

GFSCGP_sfc_thetae_015.txt.gz
Theta_e
297 294 293 296 297 298 298 298 297 300 302 300 300 300 304 308 309 309 310 312 315 317 320 318 318 320 322 324 326 328 329 331 330 327 327 328 329 332 333 334 336 335 336 335
293 291 297 300 298 296 296 295 296 299 301 300 300 300 305 307 307 309 310 312 314 316 318 318 317 319 322 324 326 328 329 330 330 330 331 332 333 334 334 335 336 336 336 336
292 295 297 296 296 294 295 293 294 295 299 301 300 298 301 305 309 310 311 313 315 315 317 317 316 318 322 323 325 327 329 330 331 332 331 333 334 333 332 334 335 335 334 333
293 298 295 295 294 296 292 298 297 296 295 291 300 291 299 303 304 307 310 312 314 316 316 317 317 318 321 323 326 329 330 331 331 333 332 332 331 330 331 333 333 334 332 332
291 293 294 293 294 298 295 299 298 297 295 295 296 293 297 302 301 304 308 312 315 314 315 317 317 319 322 324 326 328 331 331 332 332 332 332 333 332 333 333 331 332 333 332
295 299 297 296 298 299 301 299 299 299 297 289 294 293 293 298 301 305 310 313 312 313 315 316 318 321 322 325 327 328 330 331 331 331 332 334 332 330 329 330 330 331 331 332
292 293 296 298 296 300 300 296 289 287 287 287 296 293 294 303 305 306 309 313 313 315 315 316 318 319 322 324 326 328 329 328 330 330 331 332 330 329 328 328 330 329 329 330
288 285 293 298 296 295 297 296 289 283 285 289 295 290 294 305 308 309 311 313 313 315 316 317 318 320 322 324 326 327 328 328 329 330 332 332 331 330 329 329 330 330 329 330
289 289 296 297 299 301 297 294 299 293 294 292 294 297 303 307 307 309 310 310 313 315 316 317 318 321 322 324 327 328 328 328 329 329 331 331 331 328 330 330 331 330 331 330
292 289 295 296 299 300 298 301 291 293 285 284 291 293 296 302 305 309 310 311 313 315 316 316 318 321 323 325 327 329 328 327 329 328 331 331 331 329 330 330 329 330 331 331
294 292 293 295 294 293 294 295 296 296 293 287 286 291 306 307 309 310 312 312 314 315 316 317 318 321 322 325 325 326 326 326 325 327 330 331 331 331 330 330 329 330 331 331
293 292 289 292 297 300 298 296 296 290 288 293 291 292 306 309 310 311 311 312 314 316 317 318 318 320 321 323 325 325 325 325 325 329 329 330 332 332 330 329 330 330 330 331
292 291 288 289 294 297 295 297 298 298 297 291 287 293 305 309 308 309 311 312 313 316 316 317 318 319 320 322 323 323 325 326 325 327 328 332 332 332 331 330 330 330 331 331
295 289 288 287 290 295 292 294 296 296 291 292 292 295 301 305 309 310 311 313 314 316 316 317 317 319 320 321 322 321 323 325 325 326 328 331 332 331 330 330 331 330 332 331
292 285 288 290 291 292 294 293 294 293 295 292 294 295 300 304 307 309 313 313 314 315 316 317 317 319 320 320 321 321 322 324 325 326 329 330 332 331 330 331 330 332 332 332
292 286 288 288 292 293 292 295 295 295 295 295 296 297 304 307 309 310 312 312 313 315 316 317 318 319 319 320 320 320 322 323 325 326 329 329 330 329 330 331 331 332 331 332
289 288 286 286 290 291 289 294 295 295 297 296 293 299 304 304 308 311 313 314 314 316 317 317 319 319 320 320 321 320 323 324 323 326 328 328 330 328 329 330 330 331 331 332
289 288 288 287 290 283 295 301 300 297 298 299 299 301 304 306 309 310 315 316 316 318 318 319 320 321 322 322 321 322 323 323 322 324 327 328 329 327 329 330 329 330 331 332
293 289 287 285 288 292 296 296 295 296 295 299 299 302 304 307 311 311 316 318 319 321 321 322 322 323 323 321 322 321 322 323 322 322 327 328 330 327 329 329 328 329 330 330
292 291 287 287 286 286 292 297 300 301 294 299 300 300 301 304 302 307 310 315 319 322 322 322 323 323 322 323 322 321 321 321 321 322 325 327 329 330 329 330 327 329 330 329
288 288 284 286 287 291 296 298 300 293 292 300 300 301 302 301 308 308 310 313 320 321 322 323 323 322 323 323 322 321 321 321 323 323 325 327 330 332 331 331 328 327 328 327
287 285 286 286 286 286 299 297 293 296 300 300 301 302 302 304 306 308 311 314 317 319 321 322 321 322 323 323 322 321 321 323 324 323 323 326 329 329 329 330 327 327 329 326
286 289 288 288 289 297 300 298 301 301 300 301 302 303 304 305 307 309 311 314 317 319 321 322 322 322 322 323 323 322 323 324 323 323 323 325 328 328 329 329 327 324 327 326
291 293 290 291 293 295 297 299 301 302 301 303 303 304 306 306 309 310 314 317 317 319 320 322 322 321 320 322 323 325 324 323 323 323 323 324 326 327 328 328 327 324 324 323
292 294 290 291 293 295 297 298 299 301 302 302 304 305 306 308 309 312 317 319 317 319 321 322 322 322 320 321 323 325 323 323 322 323 323 323 323 326 327 328 327 325 327 322
294 292 290 289 293 292 294 298 300 301 301 302 302 303 307 309 310 315 318 320 320 319 320 321 322 322 321 321 322 323 323 322 324 323 322 321 321 324 326 326 324 297 303 303

GFSCGP_sfc_thetae_018.txt.gz
Theta_e
302 297 296 300 302 303 303 303 302 306 309 307 306 306 310 314 312 312 314 315 316 318 323 326 328 329 329 332 334 335 337 341 338 334 331 331 330 333 335 337 340 341 340 340
299 294 301 303 304 302 301 300 301 305 308 307 306 305 309 311 312 313 314 315 316 319 321 325 327 328 329 331 333 335 337 339 337 334 333 332 331 332 335 337 340 341 340 339
296 298 302 301 300 299 300 299 300 300 304 307 304 301 305 310 313 314 315 316 318 318 318 324 326 327 330 331 333 335 337 338 337 338 336 336 336 337 332 335 336 338 339 338
297 302 300 299 298 300 297 302 301 300 299 295 304 295 303 308 309 311 313 315 316 318 322 324 326 327 330 330 333 335 336 337 337 339 335 335 329 327 333 335 338 336 337 335
295 297 298 298 299 302 299 302 300 300 298 298 299 296 301 306 305 308 312 315 317 319 323 324 326 327 329 330 332 334 337 337 338 337 337 333 333 333 336 334 335 337 337 335
297 303 300 300 302 302 303 300 300 301 299 292 298 297 298 302 306 309 313 314 316 320 322 325 327 328 328 331 332 334 335 336 337 337 337 336 336 335 332 333 332 335 337 336
296 296 300 302 299 302 301 298 292 291 292 291 300 298 300 307 310 311 311 314 319 322 323 324 325 325 327 329 331 333 334 334 335 335 335 338 337 336 334 333 333 332 334 335
288 288 297 301 299 298 298 299 294 287 290 293 301 295 301 308 311 313 313 315 318 321 324 324 325 326 327 329 331 331 332 332 333 333 335 338 338 334 334 334 334 334 334 332
290 291 300 300 301 303 299 297 303 297 298 295 299 302 307 309 309 313 314 314 318 322 324 324 326 327 328 329 331 332 332 331 331 333 337 337 338 336 334 334 337 333 335 332
296 291 299 299 302 303 302 304 296 297 291 289 295 298 301 305 307 310 314 316 320 323 323 324 325 327 329 331 332 333 332 330 331 334 335 335 337 336 335 335 333 333 334 333
297 295 296 298 297 297 299 299 300 301 298 292 292 296 306 307 311 312 315 319 320 322 322 323 325 327 329 330 331 332 329 329 331 332 335 336 336 336 335 335 333 333 334 334
297 296 292 296 300 304 303 301 301 295 294 297 296 296 310 311 314 315 315 318 321 323 323 324 325 326 327 329 329 329 328 328 330 332 333 335 336 336 335 334 335 333 333 333
294 293 291 293 297 301 299 300 303 302 302 296 292 294 309 312 313 314 317 319 321 322 322 323 324 325 326 327 328 327 327 327 329 331 332 335 335 335 335 334 334 334 333 332
296 294 294 290 294 298 296 298 301 301 296 297 296 299 305 310 312 315 317 319 321 322 322 323 323 324 326 327 326 325 326 328 328 329 331 333 334 335 334 334 334 333 333 333
295 292 294 295 295 296 298 297 299 298 300 296 298 299 304 310 311 312 316 319 320 321 322 322 323 324 326 326 325 324 325 327 328 327 331 333 335 335 334 334 333 333 334 333
296 292 295 292 296 296 295 298 299 299 300 300 300 300 308 310 310 311 314 316 319 321 321 322 323 325 325 325 324 323 324 326 328 328 330 333 333 332 333 333 334 334 333 333
292 291 292 289 296 294 292 297 298 299 301 301 297 303 307 307 308 311 314 317 319 321 322 323 324 325 327 325 324 323 324 326 327 327 330 332 332 331 332 333 332 333 334 335
291 291 294 291 294 286 298 304 303 301 302 303 303 304 307 308 312 314 315 314 319 322 324 325 325 327 328 327 325 325 325 325 325 327 329 331 330 331 333 334 333 334 335 335
294 291 288 290 290 295 299 300 300 301 299 303 304 306 308 310 311 311 318 320 319 324 327 327 328 329 329 327 326 324 324 323 323 324 328 331 330 331 333 333 335 336 336 336
294 294 289 293 289 286 298 301 303 305 298 304 305 306 307 309 303 311 317 318 322 325 328 328 329 329 329 327 326 324 323 322 322 324 327 331 331 332 332 333 334 337 337 334
287 288 286 288 292 295 300 302 304 295 297 305 306 307 307 307 311 315 317 318 321 326 327 330 330 329 329 328 327 324 323 322 323 324 327 331 333 333 335 335 334 335 335 334
290 288 286 289 289 288 302 302 298 301 306 306 307 308 308 311 313 315 317 319 320 322 326 329 329 329 330 328 326 324 323 324 324 324 326 330 333 333 333 335 333 334 335 334
288 290 290 290 289 299 301 301 306 306 305 306 307 308 310 311 313 316 318 320 321 322 325 328 329 329 330 328 326 324 325 325 323 324 325 327 333 333 333 333 332 330 332 331
292 294 291 291 294 297 300 304 305 306 306 308 308 309 311 312 315 317 319 321 323 324 324 327 328 328 328 328 327 326 326 325 324 324 325 327 329 331 332 331 331 327 327 326
293 295 293 291 293 297 299 302 303 304 307 308 308 309 310 313 315 318 320 322 324 325 324 327 327 328 328 328 327 327 326 325 324 325 325 326 326 331 331 331 330 328 331 323
295 293 291 290 295 295 297 300 303 303 304 307 307 308 310 313 314 318 321 325 326 326 324 326 328 329 328 328 327 327 326 325 326 325 324 324 323 326 328 329 329 299 306 304

GFSCGP_sfc_thetae_021.txt.gz
Theta_e
304 299 296 300 303 305 305 304 304 307 312 309 308 309 312 314 314 314 316 318 318 319 323 325 327 331 334 336 339 344 343 352 350 345 339 336 333 336 335 336 339 339 340 342
301 296 302 303 304 303 303 302 303 307 311 309 309 308 312 314 314 315 315 317 318 319 322 323 326 334 334 336 339 340 341 347 348 343 342 337 337 334 334 336 339 340 340 341
296 300 303 302 301 301 302 301 302 303 307 310 307 305 307 312 314 315 316 317 318 319 320 323 324 334 334 335 338 339 341 345 346 347 342 339 337 337 334 333 334 338 339 340
298 302 302 301 299 302 298 305 304 304 302 298 306 296 305 309 310 312 314 317 318 319 321 323 325 332 334 335 337 339 342 342 342 346 343 344 334 329 332 336 334 337 338 337
295 298 298 299 300 303 301 305 304 304 301 301 301 298 302 308 307 310 314 316 318 319 320 321 328 332 334 335 336 339 341 340 342 342 344 335 336 331 333 333 336 339 339 337
297 303 302 301 303 304 305 303 304 304 301 294 299 298 300 304 308 311 314 316 318 319 321 325 331 332 333 334 336 338 338 338 340 338 339 339 337 334 332 333 335 337 340 338
294 296 302 304 300 304 303 300 293 292 292 293 301 299 302 309 312 313 314 315 317 321 324 327 329 329 331 333 334 335 336 337 337 337 336 336 337 337 336 335 336 335 335 337
288 286 296 302 300 299 300 300 294 288 291 294 302 297 303 312 312 314 316 317 321 323 326 327 328 329 330 332 333 334 335 334 335 335 335 337 338 335 336 336 334 337 335 337
291 289 298 301 303 302 300 298 303 298 301 297 301 304 310 312 312 312 314 315 320 324 326 327 328 330 330 332 333 334 334 334 334 333 336 337 338 336 336 336 337 335 336 333
295 289 296 300 303 303 302 305 296 299 291 292 298 301 302 307 309 312 314 315 320 325 326 327 328 330 331 332 334 335 334 333 332 334 335 335 337 337 337 335 334 336 334 333
296 293 295 298 298 297 298 299 300 301 300 294 294 299 311 310 311 312 316 319 322 324 325 327 328 329 331 332 333 334 332 331 331 334 334 337 336 336 336 334 333 334 334 333
297 294 292 295 302 303 302 301 301 297 297 299 300 299 311 312 314 315 316 321 324 325 325 326 327 329 330 331 332 332 330 329 331 332 333 334 336 337 336 335 336 334 333 332
297 294 289 292 299 301 299 302 304 304 304 299 297 299 312 314 315 316 318 321 323 324 325 326 327 327 329 330 331 328 328 328 330 331 332 335 336 337 335 335 336 333 332 331
295 294 293 288 294 298 297 300 303 303 299 300 300 302 306 311 313 316 319 322 322 323 324 325 326 327 329 330 328 326 326 328 329 330 331 333 336 335 334 335 335 332 332 331
294 291 294 294 296 298 299 300 302 301 303 300 302 302 307 313 314 317 320 321 322 322 323 325 325 327 328 328 327 325 326 327 329 328 331 334 335 335 334 334 334 335 332 335
297 292 294 290 295 298 298 300 301 303 303 303 304 303 310 314 314 314 316 319 321 322 323 325 326 327 327 327 325 325 326 327 328 328 331 332 333 332 333 334 334 335 334 334
292 294 291 286 294 296 293 299 301 302 305 304 300 305 310 309 310 313 316 317 320 323 324 325 326 328 328 327 326 324 326 327 327 329 331 331 331 331 331 332 332 333 334 336
292 292 292 289 292 286 298 305 304 303 305 307 306 307 309 311 314 314 316 319 318 323 325 326 327 329 330 328 326 326 326 326 326 329 330 331 331 331 330 331 332 334 339 336
297 292 289 286 289 296 298 303 302 302 302 308 307 307 311 312 312 313 319 320 323 326 328 329 330 331 331 327 326 325 325 324 325 328 330 330 331 331 332 333 334 338 338 338
296 296 289 291 288 285 296 305 308 308 299 308 309 309 310 311 305 313 319 321 323 329 329 330 331 331 331 328 327 325 324 323 324 327 330 331 331 332 332 335 336 337 339 337
291 291 289 290 292 295 300 306 307 297 298 309 310 311 311 310 314 316 319 320 323 326 329 332 331 331 331 328 327 324 325 322 325 328 331 332 334 333 335 336 337 338 337 336
288 288 291 293 291 288 303 305 301 304 309 310 310 311 310 313 315 317 319 321 322 324 328 331 330 331 332 328 326 324 324 325 326 327 330 332 334 333 334 335 335 336 338 336
288 291 288 291 288 297 302 302 306 308 309 309 310 311 313 314 315 318 320 322 324 324 328 330 331 331 331 329 327 324 326 325 325 326 329 332 334 333 335 334 334 332 335 331
293 296 291 293 294 297 300 303 304 307 307 311 311 312 313 314 316 319 322 323 324 326 326 329 330 330 330 329 327 327 327 325 324 326 328 331 332 332 334 332 330 330 329 329
293 294 292 291 294 300 301 303 304 306 309 310 312 312 312 313 316 319 321 325 326 327 328 329 330 331 331 329 327 327 327 325 325 327 327 329 331 332 332 332 328 327 333 324
296 292 291 290 296 297 300 304 306 306 307 309 310 311 314 314 315 318 320 325 328 328 329 327 330 331 332 329 328 326 327 325 327 328 326 326 327 331 330 329 329 298 303 302

GFSCGP_sfc_thetae_024.txt.gz
Theta_e
301 297 295 297 301 302 302 302 301 306 310 308 308 309 311 315 315 315 317 317 318 320 326 329 330 333 339 341 347 352 354 358 351 349 346 344 339 340 340 342 344 343 344 342
297 295 301 302 301 300 299 299 300 305 308 308 307 307 312 314 315 316 317 317 318 320 322 325 330 334 341 342 345 350 350 351 351 349 347 344 341 337 338 340 343 343 342 342
294 297 301 301 299 298 299 298 300 300 305 307 306 304 308 312 315 316 317 318 319 319 319 322 325 337 338 340 343 344 347 351 350 351 347 349 341 344 339 341 340 341 341 340
296 300 298 299 298 299 296 302 301 301 300 297 305 295 306 309 310 313 315 316 318 319 321 322 326 335 337 337 340 343 346 348 349 347 343 341 336 335 338 337 338 339 341 339
291 296 296 295 298 301 298 303 301 301 300 300 300 298 302 308 306 309 313 316 318 320 321 323 326 335 336 337 339 342 345 345 346 344 343 341 340 339 341 339 340 341 341 339
294 298 297 299 300 302 304 301 301 301 300 294 299 298 298 303 306 309 314 316 318 319 321 323 332 334 334 336 338 341 341 342 341 345 345 341 340 341 338 337 338 338 339 340
294 293 297 299 297 301 300 299 291 290 291 290 300 298 300 307 310 312 314 316 318 320 321 329 330 331 332 334 337 338 338 337 340 342 340 343 342 341 339 339 336 337 336 336
287 287 293 298 296 297 298 299 292 285 288 292 300 295 300 310 313 315 314 317 319 322 327 329 330 330 331 334 335 335 337 336 338 338 338 342 343 338 340 340 337 335 335 336
288 289 299 297 299 300 297 294 301 296 297 293 298 302 307 310 312 313 312 317 321 324 328 328 329 330 332 333 335 336 336 336 336 337 340 341 341 339 338 341 340 336 338 335
291 286 294 299 299 299 299 302 294 297 289 289 295 298 300 307 310 312 312 316 323 326 326 327 328 330 332 334 336 336 336 335 335 335 338 338 334 339 338 336 336 336 337 332
294 291 289 296 296 293 296 296 298 300 297 291 291 296 313 311 312 313 315 316 323 324 325 326 328 331 332 333 333 335 334 333 333 336 338 337 337 338 333 335 332 336 337 331
295 292 287 290 300 299 300 297 299 294 293 297 297 298 314 315 314 316 316 319 324 325 325 327 328 329 330 332 332 333 333 330 333 334 336 336 338 337 336 335 333 335 334 334
294 291 285 288 295 300 297 299 301 302 303 297 294 297 313 313 315 316 319 322 323 324 325 326 327 328 329 331 331 331 330 329 331 331 334 333 336 336 336 334 334 333 335 332
295 291 288 285 289 295 294 297 300 301 296 297 299 302 308 311 313 316 321 323 323 323 325 325 326 328 329 331 330 328 327 329 330 331 333 335 337 334 335 334 336 334 333 330
293 287 291 291 292 294 295 297 298 298 301 297 301 302 306 312 314 319 322 322 321 322 323 325 326 327 329 330 328 326 327 328 331 331 334 334 336 335 334 333 334 336 334 331
296 288 291 289 292 292 291 297 299 300 301 302 303 304 313 315 317 318 320 320 320 321 323 324 326 328 329 328 326 326 327 327 330 332 332 333 332 332 332 333 333 335 334 333
292 291 288 285 291 290 289 297 299 301 304 304 301 308 314 312 313 317 319 321 321 322 323 325 326 328 329 328 327 326 327 328 328 331 331 332 332 332 332 333 332 334 334 332
291 291 290 287 289 281 297 304 303 302 306 307 308 310 312 312 315 316 318 319 323 323 325 326 328 330 330 328 326 328 327 326 327 331 329 330 329 329 330 330 330 333 334 333
296 292 288 286 286 290 296 301 301 301 302 307 307 309 310 312 317 316 319 320 322 327 328 328 331 332 331 328 327 326 326 325 326 328 328 329 330 330 331 332 332 333 332 330
296 296 291 288 283 286 297 303 307 307 298 308 310 310 310 311 306 310 318 320 322 326 332 329 331 333 331 329 328 326 325 324 326 328 329 330 331 332 332 335 335 335 335 335
290 292 287 286 285 290 299 300 308 295 297 310 311 311 311 310 313 317 319 321 324 326 329 332 332 331 331 330 328 325 325 323 327 329 331 332 333 332 335 337 336 337 334 334
288 288 288 290 286 284 299 301 297 301 310 310 310 311 312 314 316 318 319 320 322 324 327 331 331 332 332 330 327 325 326 326 327 329 330 333 335 333 335 337 338 336 334 332
287 290 288 291 287 295 301 301 304 306 307 309 310 312 313 315 316 318 320 321 323 324 326 330 331 333 331 329 327 326 328 327 327 329 333 333 334 334 336 335 335 333 334 331
293 296 291 292 294 296 300 304 305 307 307 310 312 313 314 314 316 318 321 323 324 326 325 329 332 332 330 329 328 329 328 326 326 329 333 333 332 333 334 333 334 332 331 330
294 296 292 292 295 299 300 302 303 306 308 309 311 313 313 314 315 317 319 323 326 326 327 329 331 332 331 329 328 329 327 326 327 330 332 333 333 333 333 332 328 331 326 323
297 294 291 290 298 298 298 302 305 305 307 309 309 311 314 314 314 317 318 321 324 327 329 328 332 334 332 330 328 327 327 327 329 328 330 331 331 332 331 329 325 298 303 300

GFSCGP_sfc_thetae_027.txt.gz
Theta_e
294 289 289 292 294 296 297 298 296 300 304 303 302 302 306 309 309 309 310 310 312 313 315 316 321 320 318 328 333 335 338 342 344 342 340 336 332 331 331 333 333 335 335 335
292 287 293 297 297 296 295 293 293 299 304 302 301 301 306 308 308 309 310 311 310 311 313 316 317 319 325 326 333 336 342 343 343 342 338 336 331 330 331 330 331 333 334 333
289 293 297 296 295 294 293 292 293 293 298 300 299 297 300 305 307 309 310 310 311 312 312 313 314 322 327 330 333 336 338 341 340 340 338 333 329 328 327 327 329 331 332 333
289 295 296 294 292 295 290 297 296 296 294 289 298 288 297 301 303 307 309 308 309 309 312 312 313 325 327 330 333 334 339 339 339 337 332 329 324 324 325 325 327 329 332 334
287 289 290 291 293 297 293 299 297 296 293 292 294 290 295 300 300 302 305 307 308 310 312 312 313 327 329 331 331 335 337 336 335 332 330 327 323 325 326 328 327 328 328 330
292 295 292 291 294 298 298 296 296 295 292 286 292 291 292 296 299 303 306 308 309 310 312 315 327 329 329 332 334 335 334 332 332 331 330 326 325 326 323 325 326 325 327 328
292 293 294 295 290 293 294 289 283 282 284 283 293 292 294 299 303 305 305 307 309 311 316 324 325 326 328 330 333 332 331 328 330 332 328 330 325 326 326 325 324 325 325 325
284 282 293 298 291 288 289 290 284 278 281 285 294 288 293 303 306 308 308 307 313 321 322 323 324 325 328 331 331 330 329 328 329 327 328 329 327 326 327 326 325 324 323 325
284 285 296 296 296 293 289 286 293 288 290 285 289 294 299 302 303 306 306 309 317 320 321 322 323 326 328 329 327 329 328 328 328 327 328 328 328 327 327 326 326 325 325 325
289 282 291 293 295 295 293 294 286 288 281 280 288 290 292 298 302 304 306 309 317 319 321 322 324 326 327 328 329 328 328 327 327 328 328 328 328 328 327 325 325 325 325 327
290 285 286 291 288 288 290 288 288 289 288 284 283 288 300 302 303 303 306 316 317 318 320 322 324 326 327 328 328 327 326 326 325 327 327 328 325 327 326 326 328 324 324 329
292 288 284 287 293 295 293 291 290 285 285 289 288 289 304 308 306 306 314 317 318 320 320 323 324 325 325 326 326 325 325 324 325 328 328 330 328 326 326 325 328 324 323 324
291 285 280 284 290 293 290 294 293 291 291 288 287 290 302 306 307 309 315 317 318 319 320 322 323 324 325 325 325 325 323 322 326 328 328 330 327 326 325 324 328 326 325 327
295 287 284 280 285 291 289 292 294 292 287 288 291 294 298 303 305 313 316 317 318 319 321 321 322 323 324 325 325 323 322 324 324 330 328 327 326 326 325 325 325 328 328 325
292 286 287 288 291 292 289 290 291 290 293 290 293 295 300 305 313 315 316 317 317 318 320 320 321 322 323 323 322 322 321 322 323 329 329 328 326 326 325 325 325 329 327 328
294 287 289 287 291 291 288 290 291 292 294 295 295 296 304 309 317 315 316 317 317 318 320 321 322 323 323 322 320 320 320 321 328 329 328 329 328 326 325 324 324 326 325 328
290 287 286 282 291 289 284 289 290 293 296 297 292 298 308 309 313 312 314 316 317 318 320 321 322 323 323 320 319 318 319 322 327 328 331 330 329 328 326 326 325 324 323 326
288 286 288 285 288 277 289 299 299 296 299 305 302 303 310 311 312 313 314 314 316 320 320 321 322 323 321 320 318 319 320 321 326 326 328 329 328 327 328 327 324 324 323 325
292 289 285 284 284 288 292 296 296 296 300 307 306 307 309 312 312 311 315 317 317 318 321 322 324 323 321 319 319 320 318 319 325 326 325 326 328 327 327 326 323 324 324 324
293 292 287 286 282 281 289 296 301 301 295 308 308 308 310 311 303 307 313 316 317 319 322 324 325 323 320 319 319 318 317 317 318 326 326 326 326 327 325 324 324 325 326 324
288 288 285 285 284 287 294 297 300 293 295 306 308 307 309 306 307 309 313 315 317 320 322 326 325 322 320 319 319 317 316 316 320 326 328 327 326 329 327 326 327 326 324 324
285 285 285 287 284 282 296 298 294 300 304 306 308 309 309 310 311 313 315 316 318 319 321 326 324 322 321 320 319 316 315 317 321 324 328 327 328 331 330 327 327 326 324 322
286 289 286 288 287 294 297 299 302 304 304 305 308 309 309 310 312 313 315 317 319 322 321 324 325 322 321 320 319 317 317 318 321 324 327 327 327 330 329 328 325 326 324 323
292 296 290 292 294 296 298 301 303 303 305 307 308 309 308 308 310 311 315 317 320 321 322 323 325 322 320 320 320 319 320 319 321 326 326 326 327 326 327 329 327 325 324 322
293 294 292 291 295 298 299 301 302 302 306 307 307 308 309 308 309 311 312 314 317 318 321 324 325 323 321 321 320 322 320 319 321 326 325 325 328 327 324 320 320 325 325 325
295 292 290 287 296 296 297 301 303 302 304 307 306 307 311 310 309 311 312 314 315 317 321 322 324 324 323 322 321 322 321 319 322 325 325 325 327 326 324 315 310 298 298 300

GFSCGP_sfc_thetae_030.txt.gz
Theta_e
291 286 285 290 292 293 295 294 294 297 301 300 299 300 303 306 307 306 307 309 310 310 313 316 316 315 316 316 316 323 333 335 339 337 337 334 330 329 329 331 334 333 333 334
287 285 291 293 294 293 292 290 290 294 298 299 299 298 303 305 306 307 307 308 309 309 310 312 313 315 318 323 327 327 333 338 339 340 336 333 330 327 329 329 334 335 333 333
286 290 295 292 291 291 291 289 291 291 295 297 294 293 296 301 303 304 306 308 308 309 309 310 312 314 318 323 329 333 336 337 337 336 334 328 327 326 324 324 326 329 332 331
287 291 290 291 289 291 287 294 294 292 291 286 294 285 293 297 299 302 304 304 307 308 309 311 311 316 321 326 332 336 337 337 337 337 332 329 323 322 323 324 325 327 330 330
285 288 287 288 290 294 289 295 294 294 290 289 290 286 292 296 296 300 303 305 307 308 307 308 310 319 325 329 330 336 336 336 334 332 331 327 322 323 322 324 324 326 326 328
289 293 291 289 291 292 293 293 292 292 288 282 288 287 289 292 296 299 303 304 306 306 306 314 317 326 326 329 332 334 333 329 330 329 326 323 323 322 323 322 323 323 324 326
290 292 295 297 289 291 289 283 279 278 279 281 290 287 291 295 298 300 301 304 306 305 308 320 322 325 328 330 332 331 330 327 327 325 325 324 324 323 323 322 322 323 323 322
283 282 291 296 292 285 285 284 279 275 277 282 291 285 290 299 302 304 305 305 306 312 317 320 323 326 329 330 330 328 327 327 326 326 324 324 324 324 323 323 322 322 322 323
283 284 294 294 294 291 287 282 287 282 286 282 286 290 295 300 300 302 302 305 314 316 318 320 324 327 328 327 327 326 326 325 324 326 325 324 325 324 323 322 322 322 322 322
287 281 290 292 293 292 290 292 281 281 277 276 284 286 289 294 297 300 300 311 314 316 319 322 324 326 326 326 326 326 325 323 324 325 325 325 324 325 324 324 323 323 322 324
288 284 285 290 287 285 285 285 285 284 283 280 279 284 294 296 298 299 300 314 315 317 319 322 324 325 325 327 326 324 324 323 324 325 324 324 324 325 323 322 323 323 322 324
291 285 281 284 290 294 290 287 286 280 279 284 284 286 299 300 300 304 307 316 316 318 320 322 323 324 325 326 325 323 323 322 323 325 324 323 324 323 322 323 323 321 321 322
290 283 277 280 286 291 289 291 292 288 286 283 282 285 298 300 300 310 314 315 317 318 320 321 322 324 325 325 325 323 323 322 323 326 326 324 323 323 322 322 322 321 321 322
295 285 282 275 282 288 287 290 291 288 282 285 286 289 295 298 298 311 312 315 317 319 320 321 322 323 324 325 325 323 321 322 324 326 326 324 323 323 322 322 322 324 324 326
290 284 286 286 288 289 289 289 290 288 288 285 289 291 295 298 300 308 314 316 317 318 319 320 321 322 323 323 323 322 321 321 323 326 327 325 324 323 323 322 324 325 326 326
291 284 288 284 289 289 288 290 291 290 290 290 291 293 300 300 308 312 314 315 316 318 319 321 321 323 322 322 321 321 321 319 326 328 328 328 325 324 322 322 326 325 325 326
288 287 285 280 288 288 283 289 290 293 293 293 289 295 301 309 312 313 315 316 317 318 319 320 321 323 323 322 320 318 318 324 326 328 329 327 326 324 323 322 322 324 324 325
287 284 285 282 285 277 291 297 298 298 295 301 304 305 307 310 311 314 315 317 317 319 320 321 322 323 322 320 317 317 323 325 326 327 328 327 328 324 323 322 321 320 320 325
291 287 282 281 283 288 292 293 294 294 295 304 302 306 309 311 309 311 316 316 316 320 321 322 323 323 320 318 317 319 323 324 324 328 326 326 326 324 324 322 321 320 320 319
290 290 285 284 280 280 288 293 297 298 293 304 303 304 306 308 302 307 314 317 314 318 322 322 323 322 319 316 318 318 320 322 323 325 326 326 325 325 323 322 321 321 324 322
287 287 283 283 283 286 291 293 298 291 294 303 304 304 307 306 308 310 317 318 317 317 321 323 322 320 318 317 318 316 316 319 323 326 325 324 324 324 323 322 322 322 322 322
285 283 285 287 283 281 292 293 293 296 302 304 305 308 309 311 312 313 317 318 319 319 322 322 320 318 317 318 317 315 314 316 319 323 324 323 325 326 325 323 323 322 320 320
285 288 285 287 286 293 293 296 302 302 301 302 304 306 311 311 311 312 314 317 320 321 321 322 319 317 316 317 318 315 315 315 320 323 323 325 326 326 325 324 322 320 319 320
291 295 289 290 293 293 298 301 302 303 302 304 307 307 309 309 310 310 312 312 315 319 322 322 319 317 315 315 317 317 315 317 325 323 323 325 326 323 325 325 324 321 319 319
291 293 291 290 295 297 299 300 302 303 305 304 306 307 309 309 310 310 311 312 315 319 320 324 320 318 317 316 317 318 317 321 324 323 324 325 325 324 323 319 319 323 322 321
291 291 288 288 296 296 297 301 303 303 303 305 305 306 309 309 307 309 310 312 314 316 318 321 321 320 319 318 317 319 317 323 323 322 324 325 324 323 320 314 310 298 300 299

GFSCGP_sfc_thetae_033.txt.gz
Theta_e
290 284 284 289 291 292 290 290 290 294 298 297 296 297 300 303 304 304 306 307 308 309 311 313 313 314 313 313 313 314 321 327 333 333 332 331 332 330 329 334 334 334 334 334
286 284 290 291 291 290 290 287 287 293 296 294 295 295 298 301 303 304 305 305 306 307 309 311 311 311 312 314 314 312 319 329 333 335 334 329 328 326 329 332 334 334 333 332
283 287 293 290 288 288 288 287 288 289 294 295 292 291 294 298 299 302 303 305 305 305 307 308 309 310 311 313 317 320 323 331 332 331 329 327 326 325 324 325 328 329 331 331
285 289 288 287 287 288 283 291 292 291 288 284 291 283 291 295 296 299 300 301 303 305 306 307 309 309 310 314 325 328 331 332 333 332 328 328 326 324 321 323 324 326 330 330
284 286 285 285 287 290 287 291 290 291 288 285 286 283 289 292 292 295 298 300 302 304 305 305 307 307 313 325 328 331 333 333 332 330 329 326 323 322 321 322 323 323 325 328
288 291 289 287 290 290 291 288 288 288 285 278 286 284 286 289 293 295 299 301 302 303 304 304 307 310 320 326 331 332 332 328 329 328 326 325 323 321 321 320 321 321 322 324
289 287 291 291 286 290 287 281 276 275 276 278 288 285 288 292 295 296 297 299 301 302 302 306 317 319 324 327 328 330 330 326 326 325 323 323 322 322 321 320 321 320 321 321
282 280 289 295 290 286 284 282 276 274 276 279 288 283 288 295 299 300 301 300 300 301 305 308 318 322 326 327 327 328 327 323 323 323 322 322 322 322 321 321 321 321 321 321
283 283 293 294 294 290 285 280 286 279 281 278 284 288 293 297 298 298 298 298 298 304 314 317 322 325 326 326 323 326 325 323 323 322 322 322 322 322 321 321 321 321 320 322
287 280 290 292 292 292 287 290 279 278 275 275 281 283 286 291 295 296 297 298 301 313 316 321 324 324 325 325 323 324 324 323 323 323 324 323 322 322 321 321 320 320 320 322
286 283 285 288 286 282 284 283 284 282 280 276 277 281 291 293 295 296 297 301 307 313 317 321 323 323 324 323 324 322 323 323 322 323 322 322 322 322 322 321 321 321 320 323
289 284 280 283 288 291 288 286 285 279 279 281 280 282 295 293 294 297 300 306 313 315 318 321 322 323 324 323 323 321 322 323 323 322 322 321 322 321 320 320 321 320 321 322
288 281 277 278 284 289 286 289 287 286 283 281 278 282 295 295 296 305 310 312 314 318 319 320 321 323 323 322 323 322 321 322 322 322 321 321 320 320 320 321 320 319 320 320
293 286 281 277 280 286 283 287 290 287 280 283 284 286 291 293 296 298 306 312 313 318 319 320 321 322 323 323 323 322 320 321 323 324 322 320 320 320 320 320 319 319 320 321
289 282 284 285 287 288 287 286 287 287 287 283 286 287 292 295 298 300 303 313 315 316 318 320 320 321 322 322 322 322 320 320 323 324 322 320 321 321 321 320 320 322 324 325
288 281 286 284 288 287 285 288 289 289 290 289 289 288 297 299 302 309 309 314 315 317 319 320 321 322 322 322 322 321 319 320 324 324 325 326 325 322 321 320 323 322 325 326
285 284 281 278 285 286 282 287 289 290 291 290 287 293 300 303 307 310 310 315 316 318 319 320 321 322 322 322 322 318 319 320 323 327 328 326 323 322 321 320 321 324 322 324
283 283 283 280 283 274 287 296 295 291 294 295 296 301 305 306 309 311 313 312 316 319 319 320 322 322 322 321 319 317 318 322 324 327 327 324 323 322 321 319 319 318 320 322
289 285 282 279 280 285 290 292 291 290 292 300 300 302 304 309 307 308 315 316 315 317 320 321 323 322 321 318 317 318 320 322 325 325 324 325 323 321 320 319 318 317 318 317
290 289 284 283 278 277 289 292 295 295 287 299 301 301 301 304 298 303 313 317 317 316 321 321 322 322 319 316 317 319 319 321 323 325 324 324 322 322 321 319 318 318 318 318
286 285 282 281 280 286 291 292 293 287 290 300 302 302 302 303 305 311 315 318 319 318 319 320 321 319 319 316 317 318 319 320 323 326 324 323 321 322 322 319 319 319 320 320
284 282 284 284 282 280 292 290 291 296 300 303 302 302 305 308 311 314 317 318 319 318 319 321 320 318 315 317 317 316 318 322 322 323 323 321 321 324 322 320 319 319 319 317
284 287 284 285 285 289 290 290 299 303 302 303 302 304 305 308 309 311 312 313 317 319 320 321 320 315 316 317 317 314 317 315 320 321 320 321 322 322 322 320 318 317 317 317
291 295 289 289 292 294 296 300 301 303 302 304 305 305 309 307 309 309 313 314 316 320 319 319 316 315 314 315 316 317 313 316 321 320 320 322 322 320 322 322 320 318 317 317
290 292 290 290 294 296 298 300 302 302 305 305 307 307 309 308 308 309 310 313 315 317 320 319 317 315 315 315 315 314 314 320 319 320 322 322 321 321 320 318 317 319 318 318
290 291 289 287 294 295 296 301 303 303 304 305 306 306 307 308 308 310 310 314 315 316 316 319 318 317 317 316 315 314 317 322 321 320 322 323 322 321 319 315 311 295 302 304

GFSCGP_sfc_thetae_036.txt.gz
Theta_e
289 284 282 287 290 291 289 287 287 292 296 295 295 296 299 301 301 302 303 305 306 307 310 311 311 312 312 312 312 313 313 320 332 332 330 329 332 332 332 334 335 335 335 334
284 281 288 290 290 289 288 285 285 290 294 292 291 291 294 297 298 300 302 303 304 304 305 308 309 311 310 311 312 312 313 323 332 333 330 330 330 331 332 333 335 336 335 334
282 285 290 289 287 286 286 285 286 287 292 293 291 289 293 297 297 299 300 301 303 305 306 307 308 308 308 309 311 313 313 324 329 330 328 326 326 326 326 329 331 333 334 334
283 288 287 285 285 287 282 289 290 290 287 282 289 281 290 294 295 297 297 298 301 301 304 305 305 306 308 310 312 319 322 327 330 329 327 328 325 325 324 328 329 331 333 332
285 284 284 284 285 288 285 290 288 289 285 283 285 281 288 289 290 292 296 298 299 301 302 302 303 306 308 308 319 325 328 330 330 329 329 326 323 322 323 325 326 327 328 330
290 292 288 286 289 289 291 288 286 285 283 277 284 283 285 287 290 293 295 297 298 298 299 301 303 304 306 319 327 330 329 327 328 328 326 325 323 323 323 322 323 324 325 327
289 287 291 290 284 287 285 280 275 274 274 276 285 283 286 289 293 294 296 297 298 299 299 300 301 311 317 325 328 330 328 325 326 325 325 325 324 324 324 323 322 322 322 324
283 279 286 292 286 282 282 281 275 274 274 276 285 281 286 293 296 297 297 297 298 298 298 299 303 315 324 327 329 327 326 324 324 325 324 324 324 324 323 322 323 322 323 325
283 282 292 293 292 289 284 279 285 278 279 276 280 285 290 294 295 296 296 297 297 298 298 311 320 323 325 326 326 325 324 323 323 323 323 322 323 323 322 322 323 323 323 325
287 280 289 292 294 292 286 287 278 276 273 273 278 281 283 289 291 295 296 296 297 299 312 319 322 323 323 323 324 323 324 323 322 323 324 323 323 323 322 323 322 323 323 324
288 282 285 288 285 283 284 281 282 279 278 275 276 279 289 290 292 293 295 303 304 304 315 320 322 324 321 323 322 322 322 322 322 323 323 323 322 322 322 322 323 323 322 324
289 284 280 283 288 290 286 284 284 279 278 279 278 279 291 291 293 295 298 305 312 311 318 320 321 323 321 321 321 322 322 322 323 323 323 322 322 322 321 322 323 322 323 325
288 282 277 279 284 288 284 286 285 283 282 278 276 279 292 294 295 297 297 304 313 316 318 319 322 323 321 320 321 322 322 322 322 323 322 321 321 320 321 322 322 322 323 324
292 285 281 275 279 284 282 285 287 286 279 280 282 284 290 292 293 296 298 303 312 316 319 320 322 322 321 321 321 322 321 323 322 323 321 320 320 321 321 322 321 321 323 323
287 282 283 284 286 286 285 285 286 285 285 282 285 286 290 293 294 297 300 308 314 316 319 320 320 321 320 320 321 321 321 322 323 323 321 321 321 321 321 321 321 322 323 324
291 283 283 282 286 286 284 286 286 286 287 287 288 287 295 296 298 302 306 310 314 316 318 320 321 321 321 321 321 321 320 321 324 323 322 323 323 322 321 321 323 324 326 326
287 285 279 277 284 284 279 284 286 287 289 288 284 289 295 298 301 302 306 310 314 317 319 320 321 322 322 322 322 319 319 321 324 324 325 326 324 323 322 322 323 324 325 326
287 285 283 277 280 272 284 294 294 289 290 291 291 293 299 303 306 308 312 311 315 318 320 321 321 322 322 321 320 318 319 322 324 326 327 325 324 322 322 321 323 323 324 323
289 286 280 276 277 283 287 291 290 289 288 295 298 300 303 305 306 307 314 315 315 318 320 321 322 321 321 320 318 319 319 322 324 326 325 324 323 322 321 320 319 321 321 320
289 289 283 281 276 274 287 287 294 294 286 299 301 301 302 302 297 303 312 316 316 318 320 320 322 321 319 317 317 319 319 322 324 325 324 325 323 322 321 320 319 321 321 320
285 284 280 281 279 283 291 292 293 286 286 299 302 301 301 299 303 308 313 315 318 319 319 321 321 320 319 315 318 318 319 321 325 326 325 325 323 322 322 321 321 321 321 321
284 282 282 283 280 279 290 290 289 294 295 301 302 303 302 303 306 311 315 316 317 318 318 321 320 318 316 317 319 318 319 322 324 325 324 323 322 324 322 321 322 322 322 320
283 286 283 284 284 291 290 290 293 295 297 302 303 304 304 305 306 310 313 314 316 319 319 321 321 317 315 317 319 318 320 321 323 323 322 322 322 323 322 321 320 320 320 319
289 294 288 288 291 293 294 298 299 302 302 305 305 306 307 308 308 311 314 314 315 319 320 320 317 316 314 317 318 320 318 321 322 321 321 322 322 321 323 323 321 320 319 319
290 290 290 289 292 295 296 298 301 302 305 305 309 310 310 309 309 311 313 314 315 317 320 318 317 316 316 316 316 316 317 321 321 321 322 322 321 322 322 320 318 321 321 320
291 291 289 288 294 295 296 300 302 301 304 305 305 307 309 307 308 310 310 314 316 317 320 318 316 316 316 316 315 315 318 321 321 320 322 322 322 323 321 317 314 296 301 302

GFSCGP_sfc_thetae_039.txt.gz
Theta_e
294 289 287 291 293 295 294 292 292 296 300 299 299 300 303 306 307 307 309 310 312 314 317 319 322 325 327 332 333 337 332 334 332 336 337 338 338 339 339 341 343 343 343 342
290 287 291 293 293 292 292 291 291 294 298 297 299 298 302 303 304 306 307 308 310 312 314 318 321 324 327 329 331 334 331 332 335 337 340 341 341 338 337 341 344 345 343 341
288 291 293 290 290 289 291 290 291 291 295 297 295 294 298 302 304 305 307 308 309 310 311 316 317 322 325 327 330 332 332 331 337 341 342 342 341 335 335 338 338 340 342 342
289 293 290 290 288 290 286 292 292 292 291 287 296 287 296 299 300 303 305 306 307 309 311 313 316 319 323 324 326 326 330 333 337 342 341 341 338 335 338 339 342 341 344 343
289 290 289 288 288 291 288 293 291 291 290 290 290 287 292 298 297 300 302 304 307 310 310 310 312 315 317 321 321 326 334 336 338 341 342 340 341 340 341 341 341 343 344 343
292 297 293 291 292 292 293 291 291 291 289 283 288 287 289 293 297 300 303 305 306 308 309 310 312 314 315 318 324 334 338 339 339 340 342 343 341 338 338 340 340 340 340 340
291 291 295 295 289 291 290 288 281 279 280 280 289 287 290 297 299 300 301 305 307 308 309 311 313 313 316 325 332 335 339 338 340 341 340 341 341 341 341 341 338 337 336 337
284 281 289 294 291 287 288 287 282 276 278 281 288 284 290 299 301 303 304 306 307 309 311 311 312 313 320 329 332 336 339 338 339 339 338 339 341 339 338 339 337 336 336 337
283 283 293 294 294 292 288 284 290 284 286 283 286 289 295 297 298 301 302 306 311 314 315 316 323 326 329 330 331 339 339 338 338 338 337 338 338 338 336 338 338 337 339 337
289 282 290 290 294 294 291 292 284 285 278 277 284 286 289 295 296 301 303 306 310 317 320 320 326 326 329 332 338 340 339 337 337 337 337 336 337 337 336 337 337 337 337 336
292 287 286 290 288 286 288 287 288 288 286 281 282 286 297 297 299 299 302 304 309 318 319 323 324 327 331 335 336 336 336 335 335 335 335 335 334 335 336 336 336 336 336 335
292 288 282 285 291 293 290 288 289 284 282 285 284 285 298 299 300 301 302 303 306 320 320 322 325 327 332 334 334 335 335 334 334 334 334 334 335 335 335 334 335 334 333 334
292 286 280 282 288 291 287 289 290 290 289 285 282 285 298 299 299 302 302 304 308 320 320 322 324 330 332 333 332 332 333 332 333 333 333 333 333 334 334 334 333 333 334 334
295 288 284 280 283 287 285 287 289 289 284 285 286 288 293 296 297 300 302 305 310 319 320 322 324 328 331 332 331 330 331 332 332 332 332 332 332 333 333 333 333 334 334 333
292 285 287 287 288 288 287 286 287 286 288 284 288 289 293 296 299 301 303 306 305 310 321 322 323 327 330 330 330 330 330 331 332 330 331 331 332 333 333 332 332 333 333 332
292 285 287 285 288 288 285 287 288 288 289 288 289 289 297 299 301 300 302 304 304 312 322 322 323 328 329 329 329 329 330 330 331 330 330 331 331 331 331 331 331 331 331 332
289 286 285 280 286 285 281 286 287 289 291 290 286 292 297 297 299 301 305 308 310 316 323 326 326 329 330 329 330 329 330 331 330 330 331 331 331 330 329 331 331 332 330 330
287 286 285 281 283 274 286 295 294 293 294 296 294 295 297 298 301 307 309 309 314 319 324 328 330 330 331 331 330 331 330 330 330 330 331 331 331 330 329 330 331 330 331 329
290 287 282 280 280 284 286 290 289 287 290 297 296 296 298 300 304 306 310 314 320 324 327 330 331 331 331 330 331 329 328 329 330 330 331 331 331 330 329 329 331 333 331 329
290 289 284 282 277 276 288 292 295 291 285 299 299 299 301 303 296 304 317 320 322 325 329 330 331 331 331 331 330 328 327 328 329 331 332 331 330 330 329 330 332 333 334 331
286 285 281 281 280 284 290 291 293 283 289 295 300 304 304 300 304 313 314 318 324 325 328 331 331 330 330 330 330 327 327 327 330 332 332 330 331 331 331 331 332 333 331 330
284 283 284 284 281 280 293 290 285 290 294 294 298 304 305 306 309 311 313 318 323 324 327 330 329 330 331 330 329 327 328 330 332 332 331 330 332 329 330 331 331 328 329 327
285 288 285 284 285 293 294 289 293 296 296 299 301 305 307 308 309 312 317 321 323 325 327 330 329 329 329 330 330 327 330 331 331 332 330 331 331 331 331 330 330 325 327 326
292 294 288 287 292 292 295 294 298 300 300 303 307 309 308 309 313 315 318 321 323 326 326 329 329 328 327 329 330 330 330 330 331 332 331 331 330 329 331 330 330 330 328 325
293 292 290 289 292 295 295 299 299 301 304 306 308 309 310 311 314 318 319 321 323 324 326 328 328 328 327 329 329 330 330 330 331 332 331 331 330 330 331 330 329 330 331 325
295 291 288 288 295 295 295 300 301 301 303 305 305 307 308 310 314 319 320 322 322 322 324 325 326 328 328 328 328 329 329 330 331 330 330 330 330 331 329 327 324 296 302 300

GFSCGP_sfc_thetae_042.txt.gz
Theta_e
300 294 292 294 296 296 295 295 296 300 303 302 302 303 306 310 311 312 313 315 316 317 321 323 324 326 328 331 338 342 342 350 342 336 338 341 341 345 346 348 350 349 349 348
295 291 296 297 295 294 294 293 294 299 301 301 301 301 306 308 309 311 312 314 315 317 318 320 322 325 327 332 337 343 344 347 343 338 343 342 344 345 347 347 349 349 348 348
291 293 297 294 293 291 292 291 292 294 299 301 300 298 302 307 309 311 312 313 314 315 315 318 319 323 325 329 336 338 342 343 344 344 344 347 348 346 341 343 345 346 347 345
293 296 293 293 292 293 288 294 293 293 294 290 300 290 299 303 305 307 309 311 313 314 316 317 318 320 324 325 328 335 340 339 340 346 349 351 343 339 341 345 344 342 344 345
291 293 293 292 292 294 291 295 293 294 292 293 294 291 297 303 301 305 308 310 312 313 315 315 317 319 321 323 324 331 335 337 342 346 349 346 347 344 346 346 342 343 345 346
295 299 297 295 297 296 296 293 293 293 292 286 292 292 293 297 301 304 308 309 311 312 313 315 318 319 320 322 324 327 332 340 344 347 348 349 349 348 345 346 342 343 345 347
293 294 297 298 293 296 293 289 283 282 283 283 293 291 294 301 303 304 305 307 310 313 314 315 317 318 321 323 327 334 339 343 346 346 347 349 350 350 350 348 346 345 343 344
286 284 292 294 294 291 290 289 283 277 281 284 291 287 293 302 305 306 307 309 311 313 317 319 321 321 320 322 331 338 341 344 346 347 348 350 351 349 349 350 347 344 343 341
286 286 294 296 298 296 291 286 293 285 287 285 289 293 298 302 303 305 306 307 312 316 320 325 326 327 327 331 337 341 344 345 346 348 348 350 350 350 347 349 347 341 344 343
291 284 292 293 295 296 293 295 286 287 279 279 287 289 290 297 299 302 305 307 310 315 323 326 327 331 333 336 340 344 345 346 346 347 347 346 347 347 347 345 342 343 344 343
293 289 288 293 290 288 291 289 290 289 288 281 283 289 300 301 303 304 305 308 310 318 326 328 330 330 333 341 343 345 345 345 345 345 345 345 344 343 342 342 343 343 343 342
295 291 285 288 294 295 293 289 288 285 284 288 286 289 303 304 305 305 306 307 310 318 326 325 327 331 338 340 342 343 344 343 344 344 342 341 341 342 342 341 342 342 339 337
295 289 283 284 291 294 290 290 292 292 292 286 284 289 304 304 303 305 305 307 309 311 323 325 327 331 336 339 340 341 341 341 340 339 339 339 340 340 340 340 339 338 336 336
295 291 285 282 286 290 287 290 291 291 286 287 288 291 297 300 301 304 305 308 308 310 318 325 326 330 335 338 338 339 338 338 337 337 337 337 337 338 338 338 337 336 336 336
292 287 289 290 291 291 289 289 290 289 290 287 290 291 296 300 301 304 306 306 306 308 314 325 325 328 331 334 336 336 335 335 335 333 333 334 336 337 337 336 336 335 336 335
294 288 290 288 291 291 288 290 291 290 291 291 292 291 299 300 301 301 303 305 306 309 312 325 325 327 330 331 334 334 333 333 332 331 332 334 335 335 335 335 334 335 335 335
290 288 287 284 289 289 285 289 291 291 293 292 289 295 300 299 300 301 303 305 307 310 313 326 326 330 331 333 334 333 333 331 330 331 333 333 334 333 332 332 332 333 335 337
288 289 289 285 287 278 289 295 296 294 295 297 297 299 301 301 303 304 305 306 310 312 315 327 330 332 332 334 334 334 330 328 330 331 332 333 332 331 331 331 331 334 336 336
290 288 285 282 282 286 289 291 291 291 291 297 297 301 303 304 303 303 307 309 313 316 322 328 333 333 333 334 334 332 327 329 329 330 331 332 331 331 329 328 332 334 334 334
291 290 287 285 280 277 289 295 296 293 286 300 302 303 303 303 295 300 310 320 322 326 328 331 333 335 334 334 334 328 328 329 329 329 330 331 332 331 330 332 333 334 335 334
288 286 282 283 282 286 293 294 294 284 289 296 299 300 301 303 305 310 314 318 321 326 329 333 333 333 334 334 332 326 328 329 330 331 332 331 333 333 333 334 334 334 334 333
286 285 287 287 283 282 295 291 288 294 296 295 298 299 303 309 310 311 313 317 320 324 330 333 333 333 334 333 328 325 329 332 331 332 331 332 333 332 332 334 334 334 334 333
287 289 286 286 288 296 297 292 294 295 293 296 299 304 306 308 310 312 314 317 320 327 331 332 332 332 332 330 327 328 331 333 331 331 332 332 333 333 334 334 334 332 334 331
294 297 289 288 294 295 297 298 298 299 298 301 306 309 309 310 312 314 317 321 325 328 330 333 332 331 329 328 328 331 332 333 333 331 332 333 333 332 334 333 335 334 334 331
295 296 290 290 293 295 296 297 298 300 302 305 309 311 312 313 315 316 318 323 326 329 331 331 332 329 328 327 328 332 333 332 332 332 333 333 333 333 333 334 331 333 336 328
299 295 290 289 295 295 295 300 301 300 301 305 306 308 312 314 315 320 321 325 328 329 332 332 330 328 326 326 327 331 331 332 333 333 332 331 331 332 332 332 330 298 299 300

GFSCGP_sfc_thetae_045.txt.gz
Theta_e
302 296 295 298 299 299 297 295 294 299 304 303 302 304 307 310 311 311 315 317 320 321 324 326 328 329 330 339 343 347 346 352 346 337 336 336 338 343 347 349 355 353 353 352
297 294 298 299 298 296 295 293 294 298 301 302 302 302 306 309 310 312 313 315 317 319 321 323 326 329 334 337 342 344 347 350 352 341 344 339 344 342 346 349 354 353 352 353
293 296 299 297 295 294 294 293 293 293 298 301 300 299 302 307 310 311 313 315 316 318 319 321 323 329 330 334 339 341 346 350 353 352 346 350 349 350 345 349 350 350 350 351
294 298 296 294 293 295 291 297 295 294 292 289 299 290 300 304 306 309 311 313 315 317 318 320 323 326 330 330 332 339 344 349 351 357 345 352 344 342 346 347 348 348 349 347
292 294 294 293 294 297 293 297 295 295 292 292 293 291 296 303 302 306 310 312 314 315 317 317 319 322 323 327 331 337 342 347 350 352 350 343 350 345 346 346 350 347 347 346
296 300 298 296 298 299 298 295 295 294 292 285 291 291 293 298 302 306 309 311 313 315 316 318 319 321 321 323 325 333 339 345 348 349 354 357 356 355 346 348 342 342 344 347
294 295 297 299 295 299 296 291 284 282 284 283 292 290 294 301 305 307 307 310 313 314 315 316 317 318 320 323 324 327 333 337 344 346 349 352 359 362 359 347 344 344 344 345
287 285 293 297 295 293 293 292 284 277 280 283 292 287 292 303 307 309 309 310 312 313 315 316 318 320 322 324 325 328 333 339 344 346 348 353 357 349 351 351 349 346 346 347
288 287 296 297 298 297 293 291 294 285 288 283 287 292 299 301 304 306 307 310 311 314 317 320 323 325 327 325 327 332 338 342 346 347 350 352 352 357 351 359 358 349 350 347
292 286 293 296 298 298 296 297 287 288 280 278 286 289 290 296 299 304 306 308 311 314 318 323 325 327 331 330 335 340 344 345 347 349 350 350 354 355 353 353 353 352 351 345
295 291 290 294 292 292 292 291 291 291 288 282 281 287 298 300 301 304 307 309 311 316 324 328 332 335 336 336 338 343 345 346 347 348 351 350 348 349 349 346 344 345 345 343
296 292 287 289 296 298 296 293 292 284 283 289 287 287 301 300 307 306 308 309 311 314 327 329 329 333 336 338 341 343 345 345 346 347 346 346 346 344 345 343 343 343 342 341
296 290 284 286 291 294 291 294 293 293 291 287 283 286 301 304 306 307 307 309 310 312 323 329 331 337 337 339 341 341 343 343 344 345 343 343 343 342 343 342 342 340 339 337
298 292 286 284 286 288 286 290 293 292 287 288 287 289 293 295 299 305 307 309 309 311 318 330 330 335 335 336 337 339 340 341 342 340 340 339 340 340 340 339 339 338 337 335
294 288 291 291 292 291 291 291 291 289 291 288 290 289 293 297 300 303 306 307 307 309 314 329 328 334 333 335 336 337 338 339 339 337 337 337 338 338 337 337 337 336 336 336
296 288 291 289 292 292 290 292 292 292 292 292 291 291 297 300 302 303 304 305 305 308 312 326 330 329 331 334 334 336 336 335 336 334 333 334 334 335 336 337 336 335 336 336
290 289 288 284 290 291 286 291 292 292 294 293 290 294 299 299 301 303 305 305 306 308 312 318 330 329 333 333 333 334 334 333 332 331 331 332 333 333 333 334 332 335 336 338
289 289 288 285 288 279 291 297 296 295 296 298 298 299 301 302 304 305 306 307 307 309 313 318 331 331 334 335 334 335 332 330 330 330 331 332 331 331 333 332 333 337 337 338
295 289 286 284 284 287 290 293 293 290 293 299 298 300 301 303 305 306 307 309 309 313 322 323 334 335 336 333 334 332 329 329 329 329 330 329 331 330 329 331 335 335 336 338
295 292 286 286 281 279 289 295 296 297 288 299 299 300 303 306 300 302 309 310 319 321 321 330 335 334 334 333 334 330 327 328 328 330 329 330 331 330 329 333 334 335 336 336
291 289 285 285 283 288 294 295 295 285 290 299 298 302 304 303 308 312 315 316 318 322 322 332 334 334 333 335 333 327 328 328 331 331 331 332 331 330 331 334 336 336 335 335
289 286 287 287 285 283 299 293 287 294 298 296 298 302 303 307 310 312 314 315 318 321 321 332 330 333 334 334 331 327 328 332 332 331 332 331 333 330 331 335 335 335 336 335
289 292 286 286 289 299 299 296 299 298 295 297 297 301 304 307 308 310 313 316 318 320 324 332 332 330 333 333 329 328 331 333 331 331 331 331 332 332 333 333 334 334 335 336
297 299 293 290 295 296 298 299 299 299 298 300 302 304 308 306 309 312 315 317 320 322 330 332 329 330 331 330 327 330 333 332 330 330 331 330 331 330 334 335 338 337 337 335
297 298 295 293 296 296 297 298 300 300 300 301 307 309 311 309 312 315 317 318 321 327 328 330 329 330 329 326 328 331 333 332 329 331 330 331 331 333 334 330 329 336 323 329
299 297 293 290 296 294 296 300 301 298 297 302 303 307 313 314 315 317 319 324 326 325 329 330 330 329 326 326 329 331 332 334 332 329 330 329 330 331 331 331 328 298 299 297

GFSCGP_sfc_thetae_048.txt.gz
Theta_e
301 296 294 297 299 299 297 295 294 297 301 299 299 301 305 309 309 308 311 314 317 319 324 327 329 332 333 343 345 347 348 351 353 352 344 342 341 342 345 349 355 357 355 353
297 293 298 299 299 297 295 293 293 296 299 298 298 297 303 307 308 311 311 311 314 317 322 323 325 335 339 344 344 347 346 350 352 346 344 342 342 341 343 350 355 357 355 353
293 295 299 297 295 294 294 292 292 292 296 298 296 294 299 304 308 310 312 314 315 315 316 322 326 332 336 340 341 344 345 344 346 344 345 348 346 348 349 353 355 354 354 353
294 297 295 294 293 294 290 296 295 293 292 287 296 286 296 300 303 307 309 311 314 316 318 320 324 330 335 337 340 343 345 344 345 349 345 344 339 338 343 352 353 352 353 351
292 294 294 293 294 297 293 297 295 294 292 291 291 288 292 298 298 303 308 310 313 316 317 318 320 324 326 327 330 334 340 345 344 345 345 342 345 345 355 354 352 352 351 347
296 300 298 297 298 298 298 295 294 294 292 285 289 289 290 294 298 301 307 311 313 315 316 317 320 321 322 326 327 332 335 337 344 347 348 347 346 344 347 346 347 345 344 343
293 294 298 300 294 297 295 291 284 282 283 283 291 288 292 298 300 303 304 309 312 315 316 317 318 319 322 324 325 331 340 340 344 345 347 345 343 349 354 349 345 342 340 340
287 285 293 297 294 291 292 291 284 278 280 283 290 285 291 300 303 305 306 310 311 313 314 316 318 321 320 323 326 328 335 337 343 343 343 348 347 349 352 347 343 341 342 343
287 286 295 296 296 296 292 288 293 286 287 284 287 290 295 299 301 303 305 307 311 313 315 318 320 327 329 329 337 332 337 337 339 340 347 348 351 354 350 350 346 345 346 347
292 285 293 295 296 297 294 297 288 289 278 278 284 285 287 295 299 302 303 308 310 313 315 317 319 323 328 330 336 338 342 342 347 348 349 350 353 355 352 352 348 348 349 348
294 291 289 294 291 289 291 291 292 289 287 280 279 284 297 297 299 298 301 307 311 312 314 320 325 334 334 336 332 342 343 346 346 348 349 350 351 353 352 349 345 347 347 345
296 292 285 288 295 297 294 292 291 286 284 287 286 286 299 297 298 300 298 307 311 313 314 326 328 331 334 336 337 340 344 344 347 346 347 346 347 346 346 345 344 345 343 342
296 289 283 285 290 294 290 292 292 293 292 286 283 285 299 298 297 300 300 303 309 310 311 328 328 329 331 334 336 341 344 342 342 343 342 341 341 342 343 343 343 343 342 342
299 291 287 282 286 290 286 290 292 291 287 286 286 288 294 294 296 298 300 304 308 309 311 328 329 334 337 336 337 337 339 340 340 340 340 341 342 342 342 341 342 340 339 338
296 288 290 290 291 291 290 290 291 290 290 286 288 288 292 296 296 297 300 303 305 306 310 327 328 334 335 334 336 336 338 339 339 337 338 340 341 341 340 339 339 339 338 337
297 288 291 288 291 290 288 291 291 291 291 291 291 290 297 299 300 300 301 303 304 306 308 318 329 331 334 334 332 334 335 336 339 336 337 338 337 336 337 338 338 339 335 335
292 290 288 283 290 289 286 290 291 293 294 293 289 294 300 300 299 301 303 304 305 306 308 314 326 330 334 330 333 332 336 337 336 334 334 334 334 333 334 335 334 332 333 336
292 289 288 284 288 279 290 296 295 294 295 296 296 296 299 300 303 304 306 306 306 308 309 319 326 330 332 334 331 332 334 333 331 330 330 331 331 332 332 331 332 333 336 337
298 289 286 283 283 287 289 293 293 291 291 298 297 299 300 303 305 303 309 310 309 311 320 325 328 333 335 336 331 331 330 330 329 329 330 331 330 329 330 330 333 336 334 334
295 293 287 285 281 279 290 293 296 294 286 296 296 297 299 303 297 302 313 314 311 321 323 324 325 331 334 336 331 330 329 328 328 328 329 330 329 331 329 332 334 335 334 334
291 290 285 285 284 288 293 296 296 283 288 297 297 297 298 297 302 306 312 313 317 321 323 326 325 328 332 335 330 329 329 327 331 331 330 330 329 330 334 335 336 334 333 333
290 287 287 287 284 282 297 296 287 293 296 296 297 297 297 301 303 306 310 313 316 318 321 323 325 329 332 332 331 328 329 331 332 331 331 331 331 330 332 335 335 335 334 331
289 293 287 288 290 298 301 298 299 300 296 297 297 299 299 300 302 306 309 312 314 320 321 324 323 329 330 332 330 328 330 332 331 332 328 331 330 328 332 330 331 332 332 331
296 300 294 292 295 296 296 300 300 300 299 299 300 299 300 303 305 306 310 312 317 321 323 323 327 329 329 330 331 333 332 332 332 328 330 332 330 329 332 333 335 333 333 331
297 299 296 295 297 298 297 298 298 298 299 298 299 300 305 308 310 309 310 313 318 321 323 327 328 327 328 329 329 332 333 333 330 329 330 329 330 332 328 319 318 330 318 323
299 295 293 290 296 292 294 297 298 296 296 298 299 302 305 309 311 312 314 320 322 322 324 329 327 327 327 326 329 332 330 334 330 330 328 328 329 332 330 327 320 296 296 297

GFSCGP_sfc_thetae_051.txt.gz
Theta_e
296 289 286 291 293 294 293 291 290 293 297 294 293 294 296 300 301 303 305 306 308 311 314 317 319 321 322 328 330 330 331 332 340 338 341 337 336 334 335 338 339 342 350 347
291 287 294 296 295 293 292 289 288 292 296 294 293 292 296 298 299 301 301 305 307 310 312 315 317 318 324 324 332 331 332 334 334 335 333 331 329 330 331 333 339 343 347 347
288 292 297 294 292 290 290 288 289 289 293 294 292 290 292 297 299 301 303 304 307 307 309 312 313 317 322 327 329 331 331 333 334 332 333 332 331 330 332 335 338 344 347 347
290 294 294 292 291 292 287 294 293 292 289 283 291 281 289 293 295 298 300 302 303 305 307 311 311 313 322 326 328 329 330 331 333 333 330 330 330 327 327 331 342 343 345 345
289 291 291 291 293 295 291 295 292 291 288 286 287 283 288 292 292 294 297 300 302 305 306 308 310 314 318 323 326 329 332 331 330 333 332 331 329 330 331 336 341 341 341 343
291 297 295 294 296 296 296 292 291 289 286 280 285 285 285 289 292 295 298 300 302 304 308 308 310 312 314 317 317 321 328 331 331 331 335 333 332 332 335 337 339 337 336 338
290 290 296 298 292 294 291 285 278 276 277 278 287 284 286 292 296 297 298 299 302 303 304 308 309 310 311 310 312 315 321 322 330 332 333 333 330 332 335 337 338 336 334 334
281 280 290 298 292 288 287 287 281 274 275 278 288 283 286 294 297 301 302 301 302 302 304 305 308 311 312 313 314 315 318 322 327 332 337 336 334 338 338 341 338 337 336 335
283 284 294 295 295 293 287 285 290 285 284 282 283 287 292 297 297 299 299 301 301 301 305 307 308 308 311 311 312 314 316 327 332 334 333 337 335 336 340 338 338 337 337 338
290 283 292 293 295 294 289 292 283 282 277 275 280 282 284 291 293 296 296 298 300 304 306 306 309 310 313 315 318 319 322 325 327 328 333 337 339 344 342 339 336 338 339 339
290 287 287 291 288 286 288 285 289 287 284 278 277 280 293 292 294 294 296 298 300 304 305 308 308 316 327 326 318 322 326 332 333 336 339 341 342 345 344 340 339 340 341 340
293 287 282 286 292 294 293 289 286 282 280 285 282 280 296 294 295 296 296 299 301 303 306 305 309 321 325 327 327 328 334 337 338 340 340 341 342 345 342 341 341 340 339 338
292 284 280 282 285 291 287 290 290 288 287 282 279 280 296 297 297 298 298 298 301 304 305 305 306 321 324 326 329 334 337 338 341 342 341 341 339 338 337 336 338 337 334 333
296 287 283 279 283 287 285 288 289 287 280 283 283 286 291 294 296 297 298 300 301 303 305 305 312 314 322 325 328 335 337 339 341 341 339 338 338 337 336 333 332 333 334 329
291 285 288 289 290 290 289 288 288 286 286 283 286 287 291 294 296 297 301 300 301 301 302 304 314 321 324 326 328 337 337 338 338 338 337 336 336 335 332 331 329 330 328 328
293 287 289 286 291 290 288 290 289 289 291 291 290 288 296 298 298 298 299 299 299 301 302 304 322 325 327 331 334 334 335 337 338 337 336 336 333 331 329 329 328 329 327 328
291 289 285 281 288 287 283 288 290 291 292 291 286 291 295 295 297 298 298 299 301 303 304 305 320 327 328 330 333 332 334 336 335 335 334 332 331 330 329 329 328 326 326 329
288 288 287 281 284 277 288 295 294 291 292 293 295 296 298 298 300 302 304 301 305 309 309 317 321 324 320 327 330 332 334 333 332 331 330 329 329 328 328 326 327 328 328 326
293 289 284 280 277 285 289 292 290 288 287 295 293 294 296 298 299 300 305 305 305 308 314 317 324 321 321 320 330 330 330 328 327 326 327 327 327 325 328 327 328 328 324 325
293 293 286 282 278 277 288 293 296 293 284 295 294 293 294 295 289 294 301 303 305 308 314 319 324 325 321 321 328 327 324 324 323 325 327 328 329 328 327 328 327 324 325 326
287 287 283 283 281 284 293 295 297 281 284 294 295 295 294 292 294 297 301 302 305 307 316 320 322 322 324 328 327 323 322 321 324 328 328 327 328 328 328 328 324 324 324 325
286 284 282 282 282 278 296 294 287 292 296 297 297 297 296 297 298 299 300 301 304 306 311 321 321 322 327 330 325 321 321 324 326 326 326 326 328 330 327 325 324 324 325 323
281 287 286 287 284 296 297 295 298 298 297 297 297 298 298 297 298 299 299 302 303 306 312 323 321 323 327 329 325 323 324 325 326 325 324 325 325 328 327 324 323 324 325 323
291 295 291 290 294 295 298 299 298 298 296 297 297 298 298 297 299 300 302 304 304 307 318 321 322 324 325 326 327 326 327 327 326 324 325 325 324 326 324 326 325 324 324 324
291 294 292 291 294 294 297 297 297 297 298 297 298 299 299 300 302 305 307 308 308 310 315 323 321 320 324 326 326 328 328 326 326 327 326 324 326 322 316 311 311 323 319 320
294 294 291 289 296 292 294 295 297 295 296 297 297 298 302 303 303 307 310 313 311 315 323 322 323 321 323 327 327 328 327 326 326 324 325 326 326 321 318 316 312 295 298 299

GFSCGP_sfc_thetae_054.txt.gz
Theta_e
293 287 285 288 289 291 290 288 287 290 294 291 290 291 294 296 296 296 297 300 302 305 310 313 316 317 318 322 324 325 329 337 343 343 343 343 343 343 339 339 340 340 344 343
288 284 291 294 292 290 289 286 285 290 294 292 290 290 294 295 295 296 296 298 299 302 306 309 313 313 316 317 325 326 329 337 343 343 344 339 340 332 337 337 337 337 342 344
285 289 295 293 290 289 288 287 288 288 292 292 290 288 290 294 296 297 297 298 300 301 303 306 309 312 313 316 322 326 329 330 341 342 337 328 327 327 327 329 330 332 340 345
288 292 292 290 290 292 286 293 292 291 287 280 289 280 288 291 292 294 296 295 296 299 301 303 307 308 309 315 323 328 329 329 334 332 333 328 327 323 324 323 330 334 341 344
287 289 288 288 292 294 289 294 291 290 286 282 285 280 286 291 290 293 295 297 298 298 299 301 304 307 310 314 321 326 328 328 330 330 328 328 321 324 324 326 329 334 337 342
289 293 293 292 295 294 296 290 288 287 284 277 283 282 283 286 289 293 296 299 301 301 302 303 303 305 308 311 319 322 325 325 326 327 327 325 324 325 326 329 332 334 335 339
288 288 294 297 290 292 289 282 276 275 275 276 285 283 284 290 293 296 297 299 300 301 302 303 305 304 304 307 314 319 324 325 326 326 326 328 326 326 328 332 334 333 332 333
279 278 289 297 290 286 284 284 276 272 275 277 286 280 284 295 298 299 299 299 300 300 301 304 306 307 308 307 308 314 317 322 324 326 326 329 329 330 330 334 337 337 337 336
282 283 293 294 293 290 285 282 286 280 281 278 281 286 290 295 296 297 297 298 298 299 300 303 306 308 308 308 309 308 313 318 320 325 328 327 330 330 332 336 337 336 334 336
288 281 291 293 294 292 287 289 279 279 275 274 279 281 282 290 292 294 294 295 297 299 300 303 304 307 307 311 311 308 310 313 319 323 328 332 331 333 336 337 335 335 335 336
289 284 285 290 286 284 285 283 285 284 283 277 277 280 291 292 292 292 293 295 296 298 300 302 304 307 306 317 322 315 313 316 324 328 329 333 332 337 337 336 335 336 336 336
291 285 281 285 291 293 290 286 284 275 275 283 282 279 294 294 293 294 294 297 298 300 301 303 305 303 306 313 321 321 319 321 325 330 333 334 338 339 336 335 335 337 336 338
290 282 279 280 284 288 286 289 288 286 285 280 278 280 292 296 295 296 294 296 299 301 302 304 302 303 306 309 316 328 326 328 331 334 335 336 339 340 337 337 339 339 338 337
297 286 282 279 281 285 284 288 289 286 281 281 282 284 289 291 294 295 295 298 299 300 302 303 304 304 306 307 313 328 333 335 337 338 337 335 336 337 337 338 337 336 336 336
290 282 285 287 289 290 289 288 289 286 286 282 284 285 290 291 293 295 297 298 299 300 302 303 303 305 306 307 314 330 333 337 338 336 334 333 333 334 332 332 333 333 332 331
289 283 288 285 289 289 287 289 290 289 289 288 289 288 295 295 295 296 297 299 300 301 302 304 311 313 314 313 315 328 333 334 336 334 333 333 333 333 331 328 328 328 327 328
285 284 285 281 287 286 282 288 289 289 291 289 284 289 294 293 295 296 297 301 301 303 305 308 313 314 312 315 318 317 333 335 334 333 333 332 332 330 329 328 325 324 324 324
287 285 287 282 282 276 287 294 293 289 290 292 291 293 293 293 295 297 299 299 299 301 303 305 310 315 314 315 317 320 328 334 334 332 331 332 330 328 327 325 323 323 326 325
293 287 285 281 274 283 288 291 290 287 287 294 292 292 293 295 295 295 300 300 299 301 303 305 310 318 318 318 320 321 319 331 331 330 329 329 328 326 324 324 323 326 326 323
291 288 282 283 279 275 284 294 296 294 282 295 293 292 292 294 288 291 297 299 299 301 303 305 308 317 318 319 321 320 322 329 328 327 327 327 327 325 324 325 326 326 325 322
285 287 283 283 281 284 292 295 296 280 283 293 294 294 295 292 294 298 300 299 301 301 303 306 308 317 318 320 319 317 322 325 326 327 326 325 326 325 326 326 325 324 324 322
283 283 283 284 281 277 295 294 288 292 296 296 295 295 294 296 298 298 298 299 300 301 304 306 307 317 322 319 319 316 322 324 326 326 326 324 326 327 326 325 323 324 322 319
278 287 285 285 284 292 297 296 296 298 296 295 293 295 296 296 296 297 298 300 301 303 305 308 312 319 322 323 326 322 321 325 325 324 323 325 326 325 324 323 322 322 321 319
288 291 287 289 290 294 296 296 295 294 294 297 297 297 297 295 297 298 300 302 305 308 308 309 313 319 320 325 327 323 325 326 324 324 322 324 323 321 322 324 324 323 320 318
288 291 291 291 294 295 294 295 295 294 296 296 297 298 297 298 298 300 302 303 306 310 312 312 317 321 319 323 325 325 326 325 323 323 323 323 323 320 315 309 315 323 322 319
293 293 290 288 295 294 293 293 296 295 295 297 296 297 299 300 301 302 303 305 308 310 316 318 321 319 322 322 325 326 326 326 323 321 322 322 320 316 314 313 309 295 298 300

GFSCGP_sfc_thetae_057.txt.gz
Theta_e
291 286 284 287 288 289 288 286 285 288 292 289 288 290 293 294 294 294 295 297 299 300 304 307 309 314 316 317 323 326 327 326 327 334 336 337 338 341 343 343 342 340 340 339
287 283 289 291 290 289 287 284 285 288 293 291 289 289 292 293 293 294 295 296 297 299 301 304 306 308 312 314 319 322 325 328 328 333 336 336 338 341 342 342 339 340 342 341
284 288 293 291 289 289 287 286 286 287 291 291 288 287 289 292 294 295 296 296 297 297 298 301 303 305 307 310 312 320 323 325 328 334 334 328 329 328 332 331 333 336 338 340
286 290 291 288 289 290 284 292 291 289 286 279 288 278 285 289 291 292 294 294 295 296 298 299 300 301 303 305 309 315 321 325 328 337 337 334 335 333 327 329 335 332 333 336
286 287 287 286 289 292 287 293 289 289 284 281 283 278 283 289 288 290 292 295 298 300 300 301 303 304 305 304 305 309 320 323 326 331 338 337 335 330 323 321 325 327 330 336
288 291 290 291 293 293 293 288 286 284 282 275 281 280 280 283 286 289 294 298 300 300 301 302 304 306 306 307 305 306 315 322 325 328 334 334 333 324 321 322 323 324 330 334
286 286 292 295 289 290 287 281 275 273 273 275 283 281 283 289 293 295 295 297 299 299 299 300 301 304 306 307 308 307 310 319 323 326 329 329 329 326 324 324 325 327 329 332
278 278 288 296 289 285 284 282 275 271 273 276 283 277 283 293 297 297 298 298 299 298 297 298 301 303 305 307 307 307 305 314 321 324 326 328 326 325 323 324 328 330 332 334
281 282 292 293 292 289 284 281 284 278 278 274 278 283 289 293 294 296 295 296 296 296 297 298 300 302 304 306 307 306 310 309 318 323 324 321 324 323 324 326 331 333 333 335
287 281 289 292 292 291 286 288 277 277 273 272 277 279 281 287 290 294 294 294 295 296 297 299 300 302 305 306 306 313 315 307 315 321 322 322 324 325 326 331 332 333 331 335
288 284 284 289 286 283 283 281 283 280 278 271 271 278 288 289 292 293 294 295 295 295 297 299 301 303 304 304 306 311 316 309 308 313 317 322 324 327 330 332 333 333 334 334
290 284 280 284 290 291 287 284 283 273 273 281 277 279 291 292 292 293 294 296 297 297 298 300 302 303 304 302 306 307 311 318 311 314 319 324 327 330 331 332 333 333 334 335
289 282 278 279 282 286 284 287 286 285 281 279 277 279 291 292 293 294 294 296 297 298 299 302 302 303 304 302 305 308 314 324 319 324 326 329 331 332 332 332 333 334 334 335
296 284 282 278 281 282 283 286 288 287 281 281 281 283 288 290 291 293 295 296 296 298 302 303 303 305 306 305 310 317 318 328 326 329 330 332 334 333 332 333 335 335 336 335
288 281 284 286 288 288 287 287 288 286 287 283 284 284 288 290 291 293 296 297 298 302 304 305 306 306 311 309 311 312 315 327 331 332 331 333 336 335 335 335 336 337 336 334
287 280 285 284 287 287 285 287 288 288 288 288 288 286 292 294 294 294 294 296 297 302 302 303 304 306 310 312 312 314 315 323 332 332 332 334 334 335 334 333 333 333 329 329
284 281 280 279 286 285 281 286 288 289 291 290 284 289 293 292 292 293 294 295 296 300 299 300 303 305 308 314 315 312 314 322 331 331 331 332 330 329 329 330 329 328 327 325
283 283 286 281 281 276 285 293 292 289 290 292 291 292 293 293 294 295 296 295 297 298 299 300 303 304 306 310 317 317 319 321 331 331 331 330 329 328 327 327 326 325 324 322
289 287 284 281 276 282 286 290 288 286 286 293 292 293 294 295 295 294 297 298 298 298 299 301 304 304 307 309 317 318 320 318 330 330 330 329 329 326 325 324 325 324 320 318
290 290 286 283 279 273 283 292 295 293 283 293 293 292 292 294 287 290 296 298 299 299 300 301 303 305 309 313 318 318 319 315 329 329 329 329 328 326 324 323 323 321 320 318
285 286 283 282 280 282 290 294 295 282 283 293 294 294 293 291 293 295 297 298 299 299 300 303 304 306 309 314 317 316 319 316 328 329 328 327 327 325 324 323 324 322 321 317
280 278 278 283 281 276 294 293 288 292 296 296 295 294 292 294 295 295 296 297 297 299 301 303 304 307 309 318 317 316 317 320 321 327 327 325 325 325 324 323 323 322 319 316
277 286 284 282 280 289 294 295 298 299 296 293 292 293 295 294 295 296 296 297 299 300 302 306 309 308 312 320 318 315 318 320 323 325 323 323 323 323 324 324 322 319 318 317
287 289 283 286 288 292 296 296 298 297 292 293 295 295 296 295 296 297 298 299 300 302 304 307 311 311 316 319 319 320 320 322 324 321 322 323 322 322 324 324 322 320 317 316
288 289 288 289 292 295 296 297 295 292 294 295 297 297 297 296 296 298 299 300 302 303 305 308 312 313 318 318 321 323 320 325 322 323 323 322 321 321 315 310 316 320 318 317
290 288 288 287 294 293 295 295 295 294 295 296 296 295 297 298 297 300 300 301 303 304 306 308 314 319 321 322 323 325 325 325 324 322 321 320 317 316 314 313 310 295 298 302

GFSCGP_sfc_thetae_060.txt.gz
Theta_e
289 286 283 286 287 287 286 284 284 286 290 289 288 289 291 295 294 293 295 296 298 301 304 305 307 309 309 312 314 319 326 329 331 331 334 334 334 336 337 339 340 339 338 337
286 282 288 290 289 288 286 283 283 288 291 289 288 288 291 293 293 294 294 295 296 298 301 303 304 306 306 308 309 313 319 325 325 332 336 337 338 339 341 342 342 341 340 339
283 287 292 290 289 288 285 284 285 286 289 289 287 283 286 291 293 294 295 295 296 296 296 301 302 303 304 305 306 309 313 318 322 328 330 331 332 331 334 335 340 341 341 341
285 289 289 287 287 289 282 290 290 287 284 278 286 276 282 287 288 291 292 292 294 297 300 301 303 304 305 307 305 305 309 314 319 323 327 330 332 332 335 337 338 339 341 341
285 286 285 285 287 291 285 291 288 287 282 280 281 277 281 286 285 288 291 293 297 299 300 300 301 303 305 307 306 305 306 310 316 321 326 330 330 332 334 328 334 334 334 336
287 290 288 288 292 291 291 287 284 281 280 274 279 279 277 282 286 289 293 296 297 299 299 300 302 303 303 305 306 307 306 307 314 320 325 330 332 333 325 325 326 328 329 333
286 285 291 293 287 288 285 280 274 273 273 273 281 279 280 287 290 291 294 296 297 297 297 298 298 300 302 303 305 306 307 306 309 318 322 327 332 334 330 330 328 325 327 331
281 279 288 294 287 284 282 281 274 271 272 273 281 276 280 289 292 295 297 297 298 298 297 296 297 299 301 303 304 306 306 305 309 312 320 325 330 333 332 330 326 326 327 331
283 283 291 292 291 289 282 280 282 277 276 272 277 281 287 291 291 293 295 296 295 297 297 296 298 298 301 302 304 306 305 306 314 311 319 324 328 329 327 324 326 326 331 333
287 281 290 292 291 289 285 287 277 276 272 272 275 277 279 285 288 290 292 293 295 296 296 297 299 301 303 304 305 306 305 310 314 314 315 323 325 326 325 324 327 330 332 336
289 286 285 289 286 283 282 281 282 279 275 270 270 276 285 286 289 289 290 293 295 296 296 296 298 302 303 303 305 305 305 308 311 315 313 320 322 324 325 327 329 332 333 336
291 286 282 284 289 290 286 283 282 274 273 281 278 279 290 290 288 291 291 294 297 298 297 297 299 301 304 308 309 306 305 307 312 319 312 318 322 325 326 329 331 333 334 336
291 283 279 280 282 285 284 286 284 282 280 279 277 279 290 291 291 293 292 294 296 298 297 298 301 304 306 307 310 310 311 314 317 324 315 317 323 326 327 329 332 333 334 336
295 285 283 277 279 281 281 285 286 285 281 280 281 283 288 290 290 291 293 295 295 296 301 303 303 303 305 306 308 312 314 315 317 326 321 321 324 327 329 331 332 334 336 336
289 283 284 285 287 287 286 286 286 284 285 281 284 284 288 291 291 292 294 294 295 296 297 301 301 303 305 305 307 310 315 316 318 329 326 327 329 330 332 333 334 335 336 336
286 280 283 282 287 287 284 286 286 286 287 286 286 285 293 294 294 293 293 294 295 296 298 300 301 302 304 306 307 308 310 317 318 330 329 333 333 333 334 334 334 334 335 334
285 282 281 279 284 284 280 285 286 287 289 288 283 289 291 291 293 293 294 295 295 296 299 298 300 301 302 306 307 306 308 317 319 328 332 332 332 333 331 333 333 333 331 332
282 282 283 279 281 275 283 291 291 289 290 291 290 291 292 292 294 296 298 295 296 297 297 298 300 301 302 305 306 308 310 318 319 329 330 332 332 332 331 332 331 328 328 327
287 285 282 280 277 280 285 288 287 285 286 293 291 292 293 296 295 294 297 297 296 297 298 299 302 301 302 304 307 309 315 319 318 326 330 331 331 330 329 327 326 325 323 322
290 289 285 282 273 268 282 291 294 291 283 293 294 293 294 294 287 289 295 296 297 298 298 299 300 302 303 305 307 309 315 317 318 325 330 330 329 328 327 325 324 323 322 319
284 285 281 282 279 280 288 293 294 280 282 293 295 295 293 289 290 293 295 296 298 298 298 300 300 302 304 306 308 309 316 316 320 331 329 328 327 326 326 324 322 321 319 318
277 280 279 282 279 275 292 291 285 289 296 296 296 293 290 291 293 294 296 297 298 298 299 300 301 303 306 309 311 310 315 320 322 329 328 325 325 326 325 323 321 320 318 316
278 282 278 279 278 286 291 292 295 298 296 294 293 292 292 293 294 295 296 297 298 300 300 302 303 305 309 312 313 316 316 321 323 327 325 325 325 325 324 321 320 318 318 317
286 288 284 285 286 289 293 295 297 297 295 293 293 294 295 294 296 296 297 297 298 300 301 303 305 305 308 314 318 319 320 322 325 324 324 324 323 323 323 322 321 319 317 316
288 289 285 285 289 293 294 296 297 295 293 294 296 296 296 296 295 296 297 298 300 302 303 304 305 306 309 314 318 320 321 325 323 323 323 322 322 322 315 310 317 320 319 317
290 288 287 285 292 292 294 296 296 292 292 294 295 295 296 297 296 297 298 300 301 302 304 306 307 309 311 316 320 323 322 325 323 321 321 320 319 317 315 314 311 295 298 299

GFSCGP_sfc_thetae_063.txt.gz
Theta_e
295 293 290 292 294 293 291 290 289 292 295 294 294 294 296 299 299 299 300 301 303 304 309 310 312 315 316 320 322 324 326 340 349 345 342 340 335 336 337 339 341 342 342 339
292 290 294 294 293 292 291 289 289 293 295 294 293 293 296 298 299 300 300 300 302 303 304 306 311 314 317 318 320 323 324 327 336 343 347 346 346 343 341 341 346 346 344 344
289 292 294 293 292 291 291 290 290 289 293 294 292 290 292 296 298 299 301 302 302 302 302 308 310 312 314 316 319 320 322 324 326 333 340 346 347 347 346 346 346 348 348 348
291 294 293 291 291 293 289 295 292 290 289 284 292 282 290 293 295 297 300 302 303 304 306 308 309 310 312 313 316 318 321 323 324 327 332 342 337 338 343 347 348 351 349 348
290 291 291 290 291 295 290 295 292 291 289 287 287 284 289 293 292 295 298 301 305 306 306 307 308 309 310 313 314 316 320 322 325 326 328 330 337 337 343 344 352 350 349 351
293 295 293 293 296 295 295 292 290 289 288 282 285 285 286 289 292 295 298 300 303 306 307 308 310 310 310 313 314 315 317 320 323 323 325 330 336 339 337 341 340 344 345 348
291 290 294 297 292 294 292 289 283 281 281 280 287 284 287 293 296 297 297 299 303 306 306 306 307 308 310 312 313 314 316 317 321 321 321 326 333 338 340 341 339 340 338 342
286 284 292 296 293 290 290 289 284 275 278 281 286 282 288 295 297 299 300 302 304 304 306 306 307 308 309 312 314 314 315 316 319 319 322 327 331 331 337 342 341 337 337 343
286 285 293 295 295 294 289 286 290 285 284 281 284 288 292 295 296 297 298 301 301 303 306 306 307 308 310 314 315 316 315 316 318 318 323 326 329 334 336 344 346 341 344 343
291 285 292 293 295 293 292 293 284 286 277 276 282 283 285 291 293 296 298 299 301 303 306 307 307 308 311 314 316 319 319 317 318 319 321 323 327 333 337 342 343 343 344 343
292 288 288 291 289 288 289 288 288 288 286 279 278 283 292 292 295 296 297 299 301 303 305 307 307 309 312 314 315 317 321 320 320 322 322 324 327 331 334 337 338 340 343 343
293 290 285 287 292 293 292 290 290 284 282 285 284 283 295 296 296 297 298 300 302 304 306 306 308 311 312 313 313 314 318 320 323 324 323 324 330 332 332 334 337 339 340 342
294 288 282 283 287 290 288 290 291 290 288 284 281 284 295 296 298 299 299 300 302 304 304 305 306 307 310 311 312 312 315 317 319 323 324 325 335 332 333 334 337 339 341 342
296 290 286 281 284 288 286 288 290 289 284 285 285 287 292 295 296 299 300 302 303 303 303 304 304 307 308 309 309 311 314 317 317 319 323 323 334 333 332 335 338 340 341 342
293 285 288 289 290 290 289 288 289 288 289 284 287 287 292 295 297 299 301 301 301 301 303 303 304 306 307 307 307 309 312 315 316 316 320 322 333 333 331 335 338 340 341 342
293 286 288 286 289 289 287 289 289 289 289 289 290 289 297 299 300 299 300 300 300 301 302 303 304 305 305 306 307 307 309 313 314 316 317 322 331 334 332 336 338 340 340 342
289 288 285 281 286 286 282 287 289 290 292 291 288 293 298 297 297 298 299 300 300 300 301 302 302 304 305 307 308 307 309 312 313 315 318 322 331 331 333 335 335 337 337 340
287 286 286 282 285 277 288 294 294 292 293 295 295 296 298 298 300 300 301 300 300 300 300 301 302 303 305 306 308 308 309 311 313 314 321 322 332 330 332 334 336 335 337 340
291 287 283 281 281 286 288 292 292 290 290 296 295 296 297 299 299 297 300 301 300 300 301 301 302 303 305 306 307 307 308 311 313 316 321 324 331 331 332 333 334 335 335 334
288 288 285 284 280 277 288 294 297 296 286 296 296 295 295 296 287 291 298 299 299 300 301 302 303 304 305 306 307 308 308 310 313 316 321 324 331 331 331 332 331 332 334 325
286 285 282 282 280 286 293 296 297 284 287 298 298 297 295 291 294 298 299 298 299 299 301 303 304 303 305 307 308 308 309 311 316 320 323 327 332 332 332 330 329 329 326 323
285 284 284 284 282 280 297 295 288 295 298 299 298 297 295 296 296 297 297 297 298 299 300 302 303 304 307 309 308 309 310 315 319 320 321 331 332 330 328 327 326 326 322 322
285 289 286 287 288 296 297 296 299 300 299 299 297 298 297 295 294 296 295 298 298 299 300 303 303 305 307 309 310 310 313 318 321 321 324 328 328 327 326 325 325 322 323 320
290 293 289 289 292 294 296 298 300 301 300 300 300 298 297 294 296 295 297 297 298 300 301 303 305 306 307 310 311 312 317 321 320 320 325 325 324 323 325 325 327 325 323 321
291 292 290 290 293 294 297 299 300 299 300 299 298 297 295 295 295 295 296 297 299 300 302 303 304 306 308 311 311 313 320 321 319 324 324 324 323 325 323 324 327 327 328 323
293 290 287 287 293 291 295 300 300 298 297 297 296 295 296 296 295 296 297 299 300 300 302 303 304 307 309 312 312 314 322 323 325 323 323 322 319 319 320 318 312 295 300 299

GFSCGP_sfc_thetae_066.txt.gz
Theta_e
301 296 294 297 299 298 296 295 294 296 299 298 298 299 301 304 304 303 305 305 305 309 311 312 314 317 320 324 326 328 329 334 346 346 343 345 344 344 341 340 346 346 345 342
297 293 298 298 298 296 296 294 294 296 299 298 298 297 301 303 303 304 305 305 306 307 308 310 313 317 319 322 325 326 329 329 333 339 350 351 350 348 347 346 347 348 346 345
294 296 298 296 296 294 295 294 294 294 297 298 296 295 298 300 302 303 305 305 305 305 305 310 313 314 317 318 320 323 326 329 332 335 336 345 350 350 350 350 347 349 347 348
296 298 295 295 294 296 292 297 295 294 293 289 296 288 295 298 299 301 304 305 306 308 308 309 311 312 314 316 320 323 326 327 329 331 333 339 336 339 342 349 354 354 352 350
294 294 294 294 295 296 294 297 295 294 292 292 292 289 294 297 296 299 301 303 306 308 309 310 310 313 314 317 319 321 325 328 329 331 334 330 335 332 335 340 352 362 362 357
297 301 297 296 298 298 298 296 295 295 293 286 291 290 292 294 297 299 301 301 303 307 309 310 311 313 313 316 318 322 324 325 328 329 332 333 333 336 332 336 337 341 348 353
296 296 298 298 295 298 297 293 286 286 286 285 292 288 292 296 298 299 299 302 305 308 309 309 310 311 313 315 317 320 321 324 326 327 329 330 332 335 337 340 335 341 338 344
290 287 295 299 296 293 294 293 287 281 283 286 292 286 292 298 301 300 302 305 306 306 309 310 311 313 313 315 318 319 321 323 324 326 327 329 331 330 332 338 336 334 338 342
291 290 297 298 298 297 293 289 295 289 290 286 289 292 297 299 299 300 302 304 304 306 308 309 312 314 315 316 318 321 322 324 326 327 328 329 331 332 333 343 349 340 348 343
294 289 295 297 299 297 294 297 288 289 281 280 287 288 291 294 296 298 300 301 304 306 307 309 310 313 315 317 319 320 321 321 326 328 329 329 330 331 334 337 343 346 350 349
297 292 291 295 293 292 292 290 292 292 290 284 282 288 298 297 298 299 300 302 305 306 307 309 310 312 314 316 317 319 319 320 321 326 330 332 331 332 334 336 339 343 350 347
298 293 288 290 296 298 296 292 292 287 285 289 288 287 300 300 300 301 302 304 306 307 308 309 310 311 312 313 315 317 319 319 319 322 325 329 332 333 334 337 339 342 343 345
297 292 286 287 292 295 292 293 294 294 292 287 285 289 299 301 301 303 303 305 306 307 308 309 310 310 310 311 314 315 316 316 318 319 322 325 328 332 333 340 343 342 341 344
297 294 289 284 287 291 289 291 293 291 286 288 289 291 296 299 300 302 303 305 306 307 307 308 309 310 310 311 313 313 314 314 316 318 319 322 325 329 332 337 343 342 341 344
295 289 290 291 291 291 290 290 291 289 290 287 290 291 296 299 300 302 304 305 305 305 306 307 307 308 309 310 311 312 313 313 314 315 317 321 325 328 330 333 343 342 341 345
297 289 291 288 291 290 289 291 292 292 292 293 293 292 300 302 303 303 303 304 304 305 306 307 308 308 308 308 309 311 312 312 313 314 316 320 324 326 329 333 342 340 341 345
291 290 286 284 289 289 285 290 292 293 294 294 290 296 300 300 300 301 303 305 304 305 306 307 307 307 308 309 310 309 311 312 313 313 316 320 324 326 327 331 340 339 346 349
290 288 288 285 288 279 291 297 296 295 297 298 298 299 300 301 303 303 305 304 305 305 306 306 306 306 308 309 309 310 311 311 312 314 316 320 323 326 324 332 338 343 345 349
293 289 286 283 283 288 291 295 295 294 294 299 298 300 301 302 303 302 305 305 305 305 305 305 305 306 307 307 308 309 310 311 312 313 317 321 323 324 323 331 336 339 340 345
291 291 287 286 281 280 291 296 300 299 289 301 300 300 300 299 292 297 303 304 304 304 304 303 304 305 305 307 308 307 309 310 312 315 319 322 325 323 327 333 333 336 340 342
286 285 283 284 283 288 296 298 300 285 290 301 301 301 299 296 299 302 303 303 303 302 303 303 303 303 306 308 308 308 309 309 314 318 321 323 324 322 330 334 336 337 336 337
288 286 285 287 284 282 300 298 291 296 301 301 300 300 299 301 301 301 302 300 301 300 300 302 301 302 305 308 308 309 310 314 315 321 319 323 322 323 332 333 331 332 333 332
288 293 288 292 291 299 301 299 302 302 301 300 299 299 300 299 299 301 299 299 301 300 300 301 301 302 306 308 311 310 313 316 318 321 321 324 322 329 331 330 329 329 332 329
294 296 290 290 295 296 299 302 302 302 300 301 301 300 300 297 298 298 298 298 298 300 300 302 302 303 305 310 312 314 316 318 318 321 326 320 326 326 328 328 328 330 330 330
293 295 291 291 295 296 298 299 300 300 301 299 300 299 297 297 296 297 297 297 298 299 301 303 303 304 306 310 313 317 316 316 319 322 320 325 325 326 326 326 329 331 334 329
294 289 286 286 291 290 293 300 300 299 297 296 295 294 297 296 295 296 296 298 299 300 302 303 303 304 306 309 313 315 317 319 322 320 323 323 324 321 318 319 313 297 301 297

GFSCGP_sfc_thetae_069.txt.gz
Theta_e
305 299 296 299 301 301 299 297 297 301 302 300 300 301 304 307 308 307 308 309 310 313 316 318 318 318 320 325 328 329 332 337 343 350 347 347 345 344 343 343 348 350 348 349
300 296 300 301 301 299 298 296 296 300 302 300 300 299 303 305 306 307 308 309 309 311 313 315 316 318 321 321 329 328 330 333 335 339 352 349 352 350 348 346 346 346 349 351
297 300 302 300 298 296 297 295 296 296 300 301 299 297 300 303 306 307 308 309 310 310 310 312 314 318 319 320 320 327 327 329 336 335 340 346 352 350 351 350 349 350 349 351
300 302 299 297 296 298 294 300 298 296 295 291 300 290 299 301 302 304 306 307 309 310 311 312 313 315 317 317 320 321 330 329 332 335 339 347 338 337 340 348 358 356 350 350
297 298 297 296 296 299 296 300 298 298 296 295 295 292 296 301 300 301 304 306 309 311 312 312 312 313 316 316 318 323 325 329 334 339 339 333 337 331 335 342 355 355 347 353
300 304 301 299 300 300 300 298 297 297 295 288 293 292 293 297 299 302 304 306 307 308 312 313 314 315 314 317 318 321 324 327 330 332 335 339 337 338 334 336 340 340 348 355
298 299 302 302 297 300 298 293 286 286 287 287 296 293 295 299 301 303 304 304 306 308 310 312 312 313 314 315 318 320 321 324 327 329 331 332 337 339 338 340 335 339 338 342
291 289 298 302 298 295 296 295 287 281 284 287 294 289 295 302 304 303 304 305 307 308 310 310 312 313 314 315 316 319 320 322 325 327 329 333 335 329 331 337 334 334 336 339
293 292 299 301 301 299 295 292 298 290 292 287 291 296 300 301 301 302 302 305 307 308 309 310 311 313 315 316 318 319 321 322 323 326 330 331 333 336 334 341 344 336 344 341
297 290 298 298 301 300 298 299 291 292 283 281 287 290 290 297 299 301 302 304 307 308 309 310 311 312 314 317 318 320 321 320 322 323 326 328 332 333 336 339 341 343 346 349
299 295 294 297 296 294 294 293 294 294 290 285 284 288 299 298 300 301 303 304 306 307 309 310 312 313 314 315 316 318 319 320 320 322 323 326 328 331 334 338 339 342 346 348
298 295 289 291 298 301 298 292 294 287 288 291 289 289 300 301 303 303 303 305 307 309 310 311 312 313 313 314 315 315 317 318 319 320 321 322 325 328 335 336 338 343 344 346
300 293 287 289 294 298 295 296 296 295 295 289 286 290 301 302 303 303 304 306 307 309 310 311 312 312 313 313 314 314 315 317 318 318 318 323 326 329 333 335 338 337 343 344
298 294 290 285 289 291 287 293 295 293 289 289 290 291 296 298 299 303 304 306 307 308 309 310 310 311 312 313 313 314 315 316 316 316 317 319 325 327 330 333 335 335 337 342
297 289 291 292 293 293 291 291 292 291 293 288 291 291 295 298 301 303 305 306 306 306 308 309 310 311 311 312 312 313 313 314 315 315 315 317 322 324 326 330 332 335 336 343
298 290 291 289 293 293 291 293 293 293 293 293 292 291 299 301 303 303 304 306 306 306 307 308 310 311 312 312 313 312 313 313 315 314 313 315 316 319 324 329 331 335 334 344
295 293 289 286 291 291 288 292 293 294 295 294 289 294 299 299 301 303 304 306 306 307 307 308 309 310 312 312 313 312 312 313 313 312 313 314 316 317 320 326 328 333 335 344
293 291 290 286 289 280 292 298 298 296 297 298 298 299 301 302 304 305 306 306 305 306 307 308 309 310 312 312 313 311 311 313 311 312 312 314 315 316 320 326 330 334 336 342
298 291 288 285 285 290 293 296 296 295 294 299 298 300 301 304 304 303 306 307 307 308 308 307 309 309 313 310 309 307 308 309 309 309 312 313 315 317 321 325 330 330 336 341
295 294 288 288 282 281 292 297 301 300 289 301 302 300 299 300 295 299 306 307 306 307 307 307 308 308 308 308 308 309 307 306 306 309 312 315 316 320 323 328 329 328 337 342
289 290 285 286 285 289 297 301 302 287 291 301 301 301 300 297 300 304 303 305 306 306 307 308 306 306 308 308 307 305 307 306 309 310 313 315 321 324 327 330 326 329 339 341
291 289 288 289 285 283 302 299 291 299 303 302 302 301 301 302 302 303 303 304 304 303 305 306 304 305 306 305 304 304 305 310 312 312 313 318 320 324 327 327 324 332 334 335
290 295 290 292 292 301 303 302 304 304 302 301 299 301 300 299 300 301 301 303 303 303 303 303 303 304 304 305 305 304 308 310 311 314 316 319 323 324 326 323 325 329 332 331
296 299 295 293 297 298 299 301 302 301 301 300 300 300 300 298 298 298 299 300 300 301 301 302 303 302 302 306 307 308 312 314 314 313 316 321 321 325 322 324 329 328 327 328
294 297 290 292 296 297 298 300 300 300 302 300 300 300 297 296 295 296 297 299 300 300 300 301 301 302 304 307 308 310 314 315 314 319 320 319 323 323 324 319 326 330 332 331
292 290 287 286 293 292 294 297 298 297 299 299 298 295 297 296 296 296 296 298 298 298 300 300 301 303 305 306 308 312 315 318 317 317 319 320 319 320 316 315 309 298 301 303

GFSCGP_sfc_thetae_072.txt.gz
Theta_e
304 298 296 299 300 300 299 297 296 299 303 301 300 300 302 306 307 306 308 310 311 313 316 321 323 324 326 333 336 338 337 339 346 351 345 344 343 345 344 347 345 347 350 351
299 295 301 302 301 298 298 296 296 299 302 301 300 299 302 304 305 307 308 309 310 312 314 319 323 323 326 329 334 334 338 341 337 349 353 345 344 347 344 342 341 344 350 347
297 299 303 301 298 297 297 295 295 295 299 301 299 296 299 303 305 307 309 311 312 312 312 316 318 322 324 328 329 328 334 334 338 342 340 347 349 350 347 350 343 341 341 345
299 303 300 299 297 298 293 299 298 296 294 290 299 289 298 302 303 305 307 308 309 310 314 315 317 320 323 323 328 332 332 337 331 336 339 340 338 335 336 334 350 351 347 342
297 299 298 297 297 299 295 300 297 297 294 294 294 290 294 300 299 302 305 306 309 310 312 312 313 317 318 322 325 330 331 334 335 332 335 337 337 335 337 342 342 343 350 346
299 304 301 300 301 300 301 297 297 296 293 286 292 291 292 296 299 302 306 306 307 309 311 313 316 317 318 319 321 325 330 335 337 338 334 334 336 337 335 336 338 340 344 346
298 299 303 303 297 300 298 294 286 285 285 284 294 290 295 300 303 304 304 305 308 309 309 312 313 313 316 317 321 323 327 329 333 333 332 335 334 337 336 336 332 334 334 340
291 289 299 301 298 296 296 294 287 280 282 285 294 288 294 302 304 304 306 307 307 307 308 311 313 314 314 318 321 322 326 326 329 331 330 335 333 333 333 332 331 331 331 333
291 291 301 300 301 300 295 290 297 290 292 287 290 293 299 303 303 303 303 304 305 307 311 310 311 315 317 320 323 326 325 326 328 330 334 335 337 337 332 334 336 333 336 336
297 290 297 298 301 300 296 298 288 290 281 280 287 289 290 297 299 302 302 302 305 309 309 310 310 314 317 319 324 325 325 324 325 327 330 330 335 337 336 337 337 336 337 338
299 295 293 296 293 293 293 292 294 294 292 283 282 287 298 298 301 301 302 304 306 308 308 309 311 314 315 317 316 324 324 324 324 326 326 328 331 333 336 336 338 338 339 340
298 294 289 290 297 299 298 294 294 285 286 290 288 287 301 301 302 304 303 304 306 307 308 310 311 313 313 315 316 318 323 321 319 324 325 327 330 331 332 332 333 338 338 339
298 292 285 287 294 296 290 292 292 291 292 284 283 288 301 301 302 303 303 305 306 308 309 309 310 311 311 313 315 315 317 316 318 320 321 324 325 330 331 331 333 333 333 336
298 292 288 284 287 292 288 290 292 289 287 288 289 291 295 299 299 301 303 305 306 307 309 309 312 311 311 312 313 313 314 316 317 317 317 320 324 325 323 325 327 329 331 331
297 289 291 291 292 292 291 291 291 291 292 288 290 291 295 299 299 302 304 304 303 304 305 309 312 313 313 313 314 315 315 315 316 315 315 318 321 321 321 320 321 324 327 330
299 290 292 289 292 292 290 292 293 292 292 292 292 292 299 302 302 301 303 304 303 306 308 309 310 313 313 315 315 315 317 317 316 315 314 315 316 316 317 319 320 323 325 327
294 291 289 285 291 290 286 292 293 294 295 293 289 294 300 299 300 301 303 305 305 307 306 306 309 311 315 315 315 313 314 315 314 313 314 314 314 314 315 316 318 319 322 327
293 291 291 285 288 279 291 297 297 292 292 297 296 296 299 300 302 302 304 304 304 306 306 308 310 311 313 314 314 314 313 312 311 311 311 311 312 313 314 315 316 318 323 327
297 293 288 284 284 288 291 295 295 294 293 299 299 300 300 302 302 302 307 306 306 307 307 308 310 311 312 312 312 311 310 310 309 309 309 309 310 311 312 314 316 319 323 326
297 296 289 287 282 280 291 299 301 298 289 300 300 299 299 300 294 297 305 306 306 307 308 308 310 310 311 311 312 309 308 307 307 308 309 310 310 309 311 314 316 320 324 328
290 289 285 286 284 288 297 300 302 287 290 300 300 299 299 296 299 303 305 304 306 306 307 308 308 307 308 311 310 308 308 306 307 308 309 308 309 309 310 315 319 323 326 328
290 289 288 289 285 282 300 298 291 296 301 301 300 299 297 298 299 301 302 303 304 304 305 306 305 306 308 309 307 306 305 305 306 307 308 308 311 311 312 316 320 323 324 326
290 293 288 292 292 301 301 299 302 302 299 299 299 300 299 298 298 300 300 300 300 301 303 304 303 303 304 306 306 305 304 306 306 308 309 311 312 313 315 317 319 321 323 324
296 299 294 293 296 297 297 300 300 300 298 300 300 299 301 298 298 296 297 297 299 300 300 301 301 301 302 306 306 306 306 307 308 308 309 311 313 315 317 319 321 322 323 324
293 296 290 291 295 294 296 296 298 298 298 298 298 299 299 297 296 295 295 296 297 299 300 301 301 301 302 304 305 306 307 309 309 310 311 312 315 316 317 320 319 323 326 326
294 291 287 286 292 291 292 297 299 297 298 298 296 295 295 296 294 295 294 296 296 297 299 299 300 300 302 303 304 305 307 309 310 311 313 313 314 316 317 315 313 299 308 304

GFSCGP_sfc_thetae_075.txt.gz
Theta_e
298 291 288 292 295 295 294 293 292 295 299 296 295 296 298 300 300 299 299 302 303 306 308 310 318 321 321 321 321 324 327 327 336 341 340 340 337 339 341 340 339 340 347 350
293 289 296 299 299 297 294 291 290 295 298 296 295 294 297 300 299 299 300 301 303 304 306 309 315 315 316 320 321 319 320 329 328 342 341 341 341 341 339 340 340 340 342 344
291 295 301 299 297 295 293 291 291 291 296 296 294 291 294 298 300 301 302 302 304 304 305 307 313 314 316 316 317 318 321 322 325 329 335 340 342 345 342 339 338 339 340 340
294 298 298 296 295 296 290 296 295 294 291 285 293 283 291 296 297 299 301 302 301 304 306 306 310 311 314 316 317 316 319 320 324 323 326 325 331 332 336 335 340 339 339 337
293 295 294 294 295 298 293 297 294 294 289 286 289 285 289 294 294 296 299 302 303 303 303 305 308 311 311 312 314 319 319 320 322 323 325 325 327 329 329 331 332 343 343 340
295 300 298 297 301 300 301 297 292 290 286 280 287 286 287 290 293 296 301 302 303 302 304 305 307 308 309 309 310 313 317 318 322 322 322 323 322 325 325 325 327 331 333 339
294 296 299 302 296 300 297 292 282 278 278 279 289 287 288 295 299 300 300 303 301 305 304 306 306 306 307 307 308 312 312 313 318 319 321 325 326 327 325 325 325 325 326 329
289 286 296 302 297 292 292 291 283 276 275 280 290 285 289 299 302 303 303 301 303 300 302 304 306 306 307 308 309 311 314 315 317 319 320 322 323 326 328 328 326 325 326 326
287 289 299 300 300 296 292 289 294 286 287 283 285 290 295 299 300 303 302 301 299 298 300 303 304 305 308 307 310 310 314 314 316 317 318 319 324 323 322 323 324 331 329 330
293 286 296 298 300 298 293 295 286 286 278 277 283 285 286 294 297 299 300 300 300 301 301 302 303 304 306 308 309 311 312 311 312 312 315 322 322 325 324 325 325 326 328 331
293 290 290 294 291 289 288 287 290 289 286 281 278 282 295 294 296 298 300 301 300 301 301 301 302 303 305 306 309 310 311 312 313 314 313 314 315 320 324 326 327 328 329 330
295 290 284 289 295 296 294 289 290 282 283 285 284 283 297 296 296 299 300 302 303 300 300 301 302 304 304 305 306 309 312 311 311 314 316 315 315 316 318 319 321 323 324 329
295 286 279 282 286 292 289 291 290 289 288 283 281 281 298 299 300 299 298 301 303 304 304 304 305 305 304 305 307 307 309 308 308 311 311 312 312 314 318 318 320 323 324 324
297 287 283 278 283 287 287 290 291 288 281 282 285 286 291 297 296 298 299 301 303 303 302 302 304 307 305 305 306 307 306 308 309 309 308 308 310 313 312 314 315 318 321 322
291 284 287 289 291 290 289 289 289 288 288 284 287 288 291 294 296 297 300 301 301 302 303 302 304 304 307 306 305 307 306 306 307 308 307 308 311 312 312 313 313 314 316 317
291 284 288 286 290 290 288 290 291 291 291 290 290 289 296 298 298 297 299 302 301 301 303 306 309 309 308 310 308 308 309 309 309 308 308 309 309 310 310 310 311 312 313 315
287 285 283 280 288 288 282 287 291 290 292 291 285 289 296 295 297 297 297 302 302 302 304 305 306 307 309 308 308 305 307 307 308 308 309 310 309 309 309 309 308 309 310 311
286 285 283 280 284 276 287 296 296 294 295 295 295 297 298 299 299 299 302 300 301 303 303 303 305 304 304 306 307 307 307 306 306 306 307 307 307 307 306 306 307 307 308 310
291 287 281 276 276 285 289 294 293 290 291 297 295 296 297 298 298 297 304 305 303 303 305 305 305 305 305 305 305 306 305 305 305 305 305 306 307 306 306 305 305 305 306 308
294 292 283 280 276 273 288 296 298 297 284 296 296 295 295 295 288 291 298 300 300 301 302 302 303 303 303 304 305 304 304 303 303 304 305 306 306 306 305 305 304 306 308 310
287 287 283 283 279 285 294 298 298 284 286 295 295 295 294 293 294 297 298 298 300 300 299 300 300 300 302 304 303 303 302 301 304 306 306 306 305 305 305 305 305 305 305 309
286 285 284 285 283 281 296 295 287 292 295 294 294 294 294 295 296 296 298 298 298 298 299 299 299 299 301 302 302 301 300 302 304 305 304 305 306 307 308 306 306 306 307 308
285 289 286 287 284 295 294 294 297 296 293 294 294 294 295 294 294 296 297 296 296 298 297 299 299 299 300 301 301 300 301 303 304 304 304 305 306 306 307 308 309 309 309 312
291 294 287 286 293 291 292 295 295 296 294 296 297 296 296 293 294 293 293 295 296 296 296 297 298 298 299 302 303 304 305 304 304 304 305 305 305 307 308 310 310 310 311 312
291 293 288 287 290 291 294 294 295 294 296 296 297 297 295 294 293 293 292 294 294 294 296 297 298 298 298 300 301 302 303 304 304 305 306 307 308 309 308 310 312 313 314 314
292 289 286 284 290 290 291 294 295 295 295 297 296 294 293 294 292 294 292 294 293 294 295 295 296 296 298 300 301 301 303 304 304 304 305 306 308 310 310 310 311 298 298 299

GFSCGP_sfc_thetae_078.txt.gz
Theta_e
295 289 286 290 291 293 291 290 289 293 295 293 292 292 295 297 297 298 299 298 300 301 306 313 317 321 321 320 320 322 323 324 332 339 337 336 336 338 341 341 339 348 347 348
291 287 294 296 295 294 293 290 289 292 295 293 292 291 295 296 297 297 297 298 300 300 304 313 316 318 317 318 319 321 325 325 324 336 338 336 336 337 338 340 341 340 342 348
289 293 298 296 294 293 292 289 289 289 293 293 291 289 292 296 297 299 299 300 300 301 302 310 314 314 316 317 317 316 317 320 323 326 333 338 337 340 335 335 336 339 339 342
291 297 296 294 292 293 287 296 295 293 289 284 291 282 289 292 294 297 297 296 297 300 302 308 312 311 315 316 315 315 317 319 319 320 322 327 332 331 335 335 336 338 339 338
292 293 292 291 293 298 293 298 295 294 288 284 286 281 288 291 291 294 295 297 298 300 301 305 310 311 312 314 312 315 315 315 317 317 319 321 321 326 329 330 331 336 338 339
294 298 295 294 299 299 300 295 292 291 285 280 286 283 286 288 291 293 298 301 302 302 300 304 309 311 310 311 313 314 315 315 317 318 316 318 319 320 323 323 325 329 336 338
292 293 296 301 295 297 294 288 281 278 280 281 288 284 286 292 295 297 298 299 301 303 300 307 308 307 308 306 309 313 313 312 317 318 319 319 319 320 321 321 320 320 322 323
285 284 294 301 295 291 290 287 279 275 275 280 289 284 288 295 298 300 301 299 300 301 303 306 306 307 307 306 307 309 309 309 313 314 315 315 318 320 322 322 322 321 321 322
285 287 297 299 299 296 291 287 293 285 285 281 283 288 294 297 297 300 300 301 300 298 303 304 305 306 304 305 305 307 309 310 313 315 315 315 317 318 318 319 321 322 325 327
291 284 294 297 298 296 292 294 283 285 272 277 282 285 285 291 293 298 297 297 300 301 301 301 303 304 304 305 306 307 310 311 313 314 314 316 317 319 320 320 320 321 323 325
292 288 289 292 289 287 287 287 287 285 281 274 277 280 293 292 295 295 299 300 298 302 300 301 301 304 305 305 306 308 310 311 309 309 310 313 316 319 320 322 324 324 325 328
294 287 283 287 293 295 292 289 287 279 280 285 283 283 296 296 297 296 296 301 302 302 302 302 303 301 301 302 304 306 310 309 309 310 310 310 310 310 312 314 317 318 319 322
293 284 278 280 284 289 288 291 291 289 284 280 275 279 295 296 295 297 297 300 302 304 303 302 304 303 303 301 304 307 308 309 309 310 311 311 312 312 311 315 315 314 315 315
295 285 281 277 281 284 284 288 290 288 278 279 283 285 290 293 294 297 297 297 301 303 305 305 305 303 304 303 304 305 306 307 306 307 307 309 308 309 310 310 311 312 313 313
288 282 285 286 289 290 288 288 288 286 287 282 285 285 291 293 293 295 297 299 299 300 302 304 306 304 306 305 306 307 309 307 306 306 305 305 307 311 311 310 309 310 311 312
288 282 284 284 289 288 287 288 288 288 289 288 289 288 294 297 297 296 297 300 300 301 303 304 307 308 307 308 306 309 307 308 307 306 305 307 308 308 308 308 308 308 309 310
284 282 281 278 287 286 281 287 290 291 292 290 284 291 295 294 297 297 296 299 299 301 303 304 305 306 307 306 308 307 307 308 307 306 307 308 308 307 307 307 307 306 306 306
284 282 280 278 281 275 285 296 295 293 294 294 293 294 296 296 297 298 301 297 300 301 302 302 304 304 304 306 306 306 307 308 306 306 307 307 306 306 305 304 304 303 303 303
288 283 278 274 273 283 288 293 291 289 290 294 292 294 295 296 296 296 302 301 298 298 300 301 303 303 301 302 304 304 304 304 304 305 305 306 306 304 304 303 302 302 302 303
291 289 282 277 277 273 288 294 296 295 285 294 293 291 291 291 286 289 296 298 298 299 298 299 299 298 298 299 300 300 301 303 304 305 305 307 306 304 303 302 301 302 303 304
287 287 283 280 277 282 293 295 296 281 282 293 293 292 290 288 291 294 297 297 297 298 299 299 299 299 299 300 300 298 299 300 303 305 305 304 303 303 303 303 302 302 303 304
283 284 283 285 281 279 293 292 285 289 292 292 292 292 291 293 294 295 296 295 296 296 296 297 297 298 299 299 299 298 298 301 303 303 303 304 303 304 305 303 303 303 303 302
284 289 285 285 280 290 292 291 294 293 291 292 291 293 294 294 294 295 295 295 294 294 295 296 297 298 298 300 301 299 299 301 301 301 301 302 303 303 303 303 304 305 304 303
291 292 285 283 289 289 292 293 294 295 293 294 295 295 295 291 291 292 291 291 292 294 295 296 296 295 295 298 300 300 302 303 303 302 303 304 302 302 304 306 305 305 305 306
288 289 284 284 288 290 293 294 294 294 296 295 296 296 294 293 292 291 290 291 293 293 294 295 295 294 295 298 300 300 300 301 300 301 302 304 304 304 305 305 306 307 309 308
290 288 286 284 290 290 290 294 295 294 294 296 294 294 294 293 292 292 291 291 292 292 293 293 294 294 295 297 298 299 301 302 301 300 301 303 304 306 306 306 307 300 300 300

GFSCGP_sfc_thetae_081.txt.gz
Theta_e
293 288 285 288 289 291 289 287 287 291 295 290 290 291 293 295 294 295 295 297 298 299 304 305 308 312 317 317 320 325 330 332 339 338 339 337 338 338 337 339 342 342 342 342
289 286 292 293 293 291 290 287 287 291 294 290 290 290 293 293 294 295 296 297 297 296 300 303 311 314 316 317 318 320 322 325 334 338 335 336 335 336 337 337 337 341 345 344
287 291 296 294 292 290 289 287 287 288 292 291 289 289 290 294 294 296 297 297 297 298 300 305 312 314 314 316 318 319 321 320 323 334 337 336 334 337 332 334 335 337 340 343
289 295 293 292 290 291 286 294 295 293 288 282 289 282 289 291 292 294 296 295 296 296 299 301 310 311 313 316 316 317 318 319 320 325 329 333 332 331 333 332 334 335 337 338
290 291 290 290 292 295 291 297 294 293 287 282 285 280 288 288 289 292 294 296 297 299 297 300 307 311 314 313 313 313 315 315 316 316 320 322 322 326 327 328 330 333 335 336
293 296 294 293 295 297 298 293 291 289 284 279 285 284 286 289 290 292 294 297 300 300 300 299 305 311 311 310 310 312 312 312 314 314 315 317 317 318 319 322 324 326 329 334
291 292 294 299 293 295 292 285 278 277 277 280 287 284 285 291 294 294 294 295 297 299 298 298 302 307 309 309 310 311 312 312 314 315 314 314 314 315 316 317 319 318 320 322
284 283 293 299 294 290 288 287 279 274 276 280 287 280 286 293 296 298 298 297 298 297 296 298 304 308 310 311 311 312 311 310 314 315 315 316 317 317 317 318 318 318 317 318
284 286 296 298 297 294 289 284 288 281 281 277 281 286 292 295 296 298 298 297 297 297 298 299 304 308 310 307 310 310 308 308 311 313 312 313 314 315 317 318 319 320 319 324
289 283 293 296 297 295 290 292 281 281 277 275 278 282 284 290 293 295 297 297 297 298 297 298 300 302 302 304 307 306 308 308 309 311 312 313 314 316 317 316 316 317 318 320
291 286 287 291 289 286 286 284 284 284 283 278 273 278 291 293 295 294 296 298 298 298 299 300 302 302 303 306 304 306 307 308 308 310 311 312 313 314 316 317 318 319 320 323
292 287 283 286 291 293 289 286 285 276 276 283 279 280 294 294 294 297 296 299 302 303 300 301 304 304 303 300 301 304 306 307 309 310 310 311 313 314 315 316 318 320 319 319
293 285 281 282 284 287 286 289 287 286 284 280 278 280 293 293 293 295 296 297 298 300 300 302 304 303 305 304 301 302 305 307 307 307 307 306 307 307 308 310 313 316 315 313
296 285 283 279 282 283 281 286 288 285 279 280 282 284 289 291 293 294 295 297 298 298 302 302 303 304 305 306 304 304 303 305 306 307 307 307 308 309 309 311 312 310 311 310
289 283 284 285 287 287 286 287 287 284 285 281 284 285 287 292 292 294 296 298 300 300 301 301 303 304 304 306 306 306 306 304 304 305 305 307 308 308 308 308 308 309 309 309
287 282 284 283 287 287 285 287 287 287 287 286 287 286 292 295 295 296 296 298 298 299 301 302 304 306 307 307 307 307 307 305 305 304 304 305 305 307 308 308 307 307 308 307
284 282 280 278 285 285 280 285 288 289 291 291 286 291 295 294 295 296 296 296 298 300 301 302 303 304 304 305 306 307 307 306 305 304 306 306 306 307 306 306 306 305 304 304
283 281 279 278 280 275 283 294 294 290 293 294 294 294 295 293 295 295 297 296 298 297 298 298 300 301 302 304 306 306 305 305 304 304 305 306 306 306 306 305 304 303 302 302
286 281 277 274 273 281 286 292 291 288 288 293 291 293 293 294 292 291 297 300 296 296 296 297 299 299 299 300 300 301 301 302 302 303 303 305 305 304 304 303 302 301 300 300
289 287 281 275 276 273 285 293 296 294 283 294 293 291 290 289 283 286 292 294 296 296 298 297 298 299 298 297 298 297 298 299 300 302 304 305 305 305 304 303 301 300 300 301
285 286 279 276 279 282 291 293 295 280 281 289 291 290 289 288 290 293 295 295 297 297 297 297 297 297 298 299 299 297 298 297 299 301 302 304 305 304 303 301 300 300 300 301
284 282 282 284 280 276 293 290 284 288 290 291 291 292 291 292 293 294 295 293 294 296 298 297 296 296 297 297 297 296 297 299 300 300 300 301 303 303 304 300 300 300 300 300
283 288 279 283 280 288 291 290 292 292 290 292 293 294 293 292 293 294 293 293 293 294 294 293 293 294 296 297 297 296 298 299 300 299 299 300 302 302 303 301 300 300 301 300
288 290 288 286 287 288 290 293 294 295 294 295 295 295 295 293 294 293 294 292 293 294 293 293 293 294 294 297 298 298 298 300 299 298 298 299 299 300 301 302 302 301 301 301
288 288 284 284 286 289 292 294 294 294 295 295 295 295 295 294 293 293 293 292 292 293 293 293 292 293 294 296 296 297 298 299 300 301 301 302 303 302 303 303 302 303 304 303
288 287 286 285 288 288 290 293 294 293 293 294 294 294 295 294 293 293 293 291 292 292 293 292 291 292 293 294 295 297 298 300 299 297 298 299 300 302 303 303 303 298 299 298

GFSCGP_sfc_thetae_084.txt.gz
Theta_e
291 288 285 287 288 289 288 286 285 289 293 289 289 290 292 293 293 293 294 295 296 297 300 302 304 307 309 317 321 329 336 337 337 336 337 338 337 336 338 340 341 341 341 343
288 285 291 291 291 289 288 285 285 289 292 289 289 290 291 292 292 294 294 295 296 296 298 300 301 304 312 314 320 324 333 335 337 339 339 339 339 338 338 339 340 341 341 342
286 290 294 292 290 289 287 285 286 287 292 291 289 289 289 292 293 294 295 296 296 297 297 299 301 308 310 312 317 322 327 332 338 339 337 335 337 336 334 336 338 340 342 343
288 292 292 289 289 289 284 290 291 292 288 283 289 282 289 291 291 292 294 295 295 296 298 298 300 303 311 313 315 319 324 326 333 337 337 335 334 334 334 334 337 338 340 342
289 289 288 288 290 292 288 293 293 292 287 283 285 280 286 290 290 291 295 294 296 297 297 298 300 302 308 313 314 316 318 319 323 334 338 336 332 333 332 332 333 335 337 339
291 294 292 292 293 294 296 292 289 287 283 278 284 282 283 286 289 291 295 296 297 298 297 299 300 301 305 311 312 313 316 316 317 321 325 329 329 327 326 326 328 330 333 335
289 291 293 295 290 293 290 285 278 276 277 279 285 282 285 290 294 294 296 298 298 296 297 298 298 299 302 308 310 312 312 312 313 315 317 318 319 319 320 321 322 323 325 328
282 283 292 297 292 288 286 286 279 273 275 280 285 280 284 292 294 297 298 297 297 297 297 297 299 299 301 307 310 313 311 311 312 313 313 315 315 315 316 317 318 320 320 322
283 285 294 298 296 293 288 284 288 281 279 275 280 284 290 293 294 296 296 298 297 298 298 297 300 301 302 307 311 313 312 313 314 315 315 315 316 317 318 319 320 320 321 322
287 282 290 295 295 294 291 292 282 279 271 271 277 279 282 287 290 295 295 296 297 298 298 298 299 301 302 305 309 312 313 311 314 316 314 315 314 316 317 318 319 320 321 324
290 286 286 290 288 286 287 285 284 282 279 272 274 277 287 289 292 292 294 297 298 299 299 299 301 303 301 304 304 307 309 310 312 313 314 314 314 316 317 318 319 319 321 323
291 289 282 285 288 292 289 286 285 277 276 283 280 280 292 290 291 293 294 297 298 301 300 299 302 304 306 306 303 306 307 309 310 312 314 313 314 314 316 317 318 321 323 325
292 285 279 281 284 289 286 289 287 284 280 278 278 279 291 292 292 294 294 296 298 301 301 300 302 302 306 306 305 303 304 306 308 309 310 311 312 313 315 316 318 321 321 321
297 286 283 280 284 283 281 286 288 284 274 279 281 283 288 290 290 293 294 296 298 300 302 302 301 303 304 307 307 307 305 305 308 309 308 309 310 310 311 313 314 317 319 316
289 281 284 286 287 285 284 285 285 283 285 280 284 284 288 290 292 293 295 296 297 298 300 301 302 302 304 306 307 309 308 308 307 307 308 309 310 310 310 311 313 315 314 313
286 281 283 282 287 286 284 286 287 286 286 285 285 285 291 294 295 293 294 295 295 295 299 301 301 301 302 304 305 308 308 308 307 306 305 307 308 309 309 310 311 311 311 311
283 281 280 278 284 284 280 284 285 287 289 287 283 288 293 292 293 293 293 294 293 295 298 299 299 299 300 301 303 303 306 308 307 306 307 308 308 308 309 310 309 309 308 308
282 281 279 277 280 274 283 293 293 289 291 292 292 293 294 294 293 293 295 293 293 295 298 297 297 298 299 300 301 302 303 303 304 304 306 307 307 307 308 308 308 307 307 306
287 283 275 273 273 281 285 290 289 286 285 292 290 292 294 294 292 290 294 295 295 295 295 296 297 298 298 299 300 300 300 301 301 302 303 305 306 306 307 306 306 306 305 304
288 285 278 275 272 272 282 292 294 293 282 292 292 291 291 289 284 288 292 293 294 295 296 296 298 298 298 298 298 298 299 299 299 300 302 304 305 305 305 305 305 305 304 305
285 286 280 280 278 281 289 293 294 280 281 291 290 289 290 288 289 293 295 295 296 296 297 297 297 296 298 299 298 297 297 297 299 301 301 301 302 304 305 305 305 305 304 304
282 282 281 283 280 275 292 290 283 286 291 291 291 292 291 292 293 294 295 295 296 296 296 296 295 295 299 298 297 296 295 298 299 300 300 300 301 301 302 304 304 303 304 303
283 286 281 284 279 287 290 290 292 292 290 291 293 294 293 292 293 293 293 295 296 296 296 296 295 294 296 296 295 293 295 297 298 298 299 299 300 301 301 301 302 302 302 302
288 289 288 287 286 287 289 291 292 294 293 294 294 294 294 292 293 292 294 294 293 294 295 296 295 294 294 295 295 295 297 298 298 298 299 299 300 300 301 302 303 302 302 301
286 288 286 285 286 289 291 292 292 293 295 294 295 294 293 293 292 292 292 292 291 292 292 292 291 292 294 295 295 296 297 298 296 297 297 298 299 299 300 301 302 302 303 302
290 288 285 284 290 288 288 291 293 293 293 294 293 292 293 293 292 292 291 291 290 291 289 290 291 291 294 294 293 295 298 297 296 296 296 298 300 302 302 301 301 297 297 297

GFSCGP_sfc_thetae_087.txt.gz
Theta_e
298 296 293 296 297 295 293 292 291 295 299 295 297 297 300 303 303 304 305 306 307 308 311 313 314 315 316 321 328 340 347 350 349 347 345 345 345 346 348 350 351 351 351 352
296 293 298 298 296 294 293 292 292 296 298 296 297 297 301 302 303 304 304 305 306 309 310 312 315 317 317 320 327 331 340 350 348 346 345 346 345 345 345 347 350 351 350 351
294 295 297 295 295 293 294 292 293 293 296 299 297 295 298 301 302 304 305 306 307 307 308 311 313 315 318 320 324 328 335 345 349 350 346 346 347 346 342 343 345 347 348 348
295 299 295 295 293 295 291 296 295 294 293 289 296 287 296 299 300 301 304 306 305 306 308 309 311 314 317 320 323 326 332 340 347 350 348 347 343 340 343 343 345 347 349 348
294 294 294 293 295 296 294 296 295 295 294 293 293 290 294 298 297 300 302 304 307 308 309 308 309 311 313 317 319 326 329 332 342 348 350 347 347 346 347 346 347 350 349 349
297 299 297 297 297 297 299 297 296 295 293 286 292 291 292 294 297 299 302 304 306 306 308 309 310 312 312 314 316 323 327 330 335 342 346 348 349 347 344 345 345 346 348 349
296 296 299 298 295 299 297 294 287 285 285 285 292 289 292 297 300 300 301 303 306 307 307 308 309 309 311 312 315 319 325 328 332 337 343 347 349 350 346 346 345 344 343 344
289 287 295 299 296 295 295 294 288 281 283 286 292 286 292 299 301 302 303 305 305 306 308 308 309 310 312 314 315 315 320 325 329 332 339 342 344 343 342 342 341 341 341 342
289 288 297 299 299 298 294 291 295 289 289 285 288 292 296 298 298 301 302 302 303 306 307 308 310 311 311 314 316 316 319 323 327 328 330 330 329 331 330 333 335 334 336 335
294 288 294 297 299 298 296 298 289 291 281 279 285 286 287 292 295 299 299 301 303 306 307 309 309 311 313 314 317 319 320 321 325 325 325 325 327 328 330 331 331 333 333 334
296 293 291 295 293 292 293 292 292 291 289 282 280 284 294 295 296 297 299 301 303 305 307 308 308 309 313 314 315 317 319 320 322 323 325 325 325 326 328 330 331 332 333 334
295 293 288 290 296 296 294 294 294 287 284 287 286 284 296 297 298 300 299 301 304 305 306 309 309 309 312 314 313 316 318 318 319 320 319 322 323 326 327 330 331 332 332 333
296 290 285 286 290 293 292 293 294 292 291 285 282 285 297 297 298 299 299 301 304 304 304 306 309 309 310 312 313 314 313 314 317 316 317 320 320 323 326 329 331 331 333 335
298 291 288 284 287 291 288 291 293 292 286 286 287 288 292 295 296 298 300 302 303 304 303 303 307 308 308 309 312 313 313 315 313 313 315 317 320 322 323 327 329 331 333 333
295 286 289 290 291 291 289 289 290 289 290 286 288 289 292 295 296 298 301 302 302 301 301 301 304 307 307 307 308 309 312 312 312 313 314 315 319 320 320 322 326 329 331 331
293 287 289 286 288 288 286 288 289 290 290 290 290 289 296 299 301 300 301 301 300 300 300 301 303 306 306 306 306 307 308 310 312 313 312 313 314 315 316 320 321 324 327 328
290 288 286 281 286 287 282 287 288 289 291 290 286 293 299 298 299 300 301 300 299 299 299 300 302 304 306 306 306 306 307 308 307 307 309 311 312 313 314 316 317 320 323 325
289 287 287 282 284 276 287 296 295 292 294 296 296 298 299 299 300 300 301 299 299 299 299 300 302 302 304 305 305 306 306 306 306 306 306 308 308 309 313 315 316 319 321 321
291 289 285 281 282 285 288 292 292 290 291 296 295 297 297 298 297 296 300 300 299 299 300 301 302 302 303 304 305 305 304 305 305 305 306 307 307 309 310 312 315 318 319 318
290 291 287 283 279 278 288 295 296 295 286 296 296 294 293 294 286 292 299 300 299 300 300 300 302 302 303 303 304 303 302 303 303 304 305 307 308 308 308 311 313 315 316 316
286 285 282 282 281 286 293 295 296 284 287 295 295 294 294 290 293 297 298 298 299 298 300 301 302 302 302 304 303 301 302 302 304 305 305 305 306 307 308 310 311 312 313 313
287 285 284 284 282 280 296 295 288 294 296 296 295 295 293 293 294 294 295 295 296 296 298 298 298 301 303 303 302 300 301 303 304 304 303 303 305 306 306 307 308 309 310 310
287 291 287 288 289 294 297 295 297 297 295 295 294 295 294 293 292 293 293 294 294 295 296 298 296 299 299 301 302 299 300 301 302 301 301 302 303 304 305 306 306 306 307 307
292 294 291 290 293 294 295 298 297 296 295 295 295 295 293 291 292 292 292 292 292 293 294 294 296 296 295 297 299 300 301 301 300 300 300 302 302 303 305 305 306 305 305 306
292 294 290 290 293 294 295 296 295 295 295 295 295 294 293 293 292 292 291 291 291 292 292 294 293 293 292 295 295 297 298 299 299 299 300 300 301 302 303 304 305 305 307 306
295 291 289 287 292 290 292 295 296 294 293 294 294 293 293 293 291 291 290 291 290 290 291 290 291 292 293 294 294 296 299 299 297 296 298 298 298 299 299 301 303 297 297 296

GFSCGP_sfc_thetae_090.txt.gz
Theta_e
305 300 297 300 301 300 298 297 296 299 302 301 300 301 304 307 307 307 309 310 311 312 315 317 318 320 323 326 330 333 335 354 356 353 352 352 350 352 352 355 358 356 355 353
300 296 302 302 301 299 298 296 297 300 302 301 300 300 304 306 307 308 308 309 310 312 313 315 317 319 321 324 329 334 335 342 353 352 356 354 353 351 351 351 357 356 356 356
298 300 301 301 299 297 298 296 297 297 300 302 300 299 302 306 307 308 309 311 311 312 312 314 316 317 319 321 324 327 334 339 346 353 352 354 354 351 348 348 350 354 355 356
299 303 300 298 297 299 295 301 299 297 297 293 301 291 300 303 304 306 308 310 310 311 313 314 315 317 319 319 321 323 332 336 338 350 346 352 346 343 347 349 349 351 354 352
297 298 298 297 298 301 298 301 299 299 297 297 297 294 299 303 301 305 307 307 309 311 312 312 314 316 318 320 320 323 329 332 337 343 352 347 350 345 348 348 355 355 355 354
301 304 301 301 302 301 302 300 300 300 298 291 296 295 296 300 301 304 306 307 307 310 311 312 315 317 317 320 321 323 325 330 334 337 346 353 353 353 346 349 348 348 349 350
299 300 303 303 299 302 301 298 291 290 291 290 299 295 297 302 304 304 303 305 308 310 310 311 313 314 317 319 321 323 324 324 330 334 338 346 354 358 356 354 349 350 347 347
294 292 300 302 300 299 300 299 292 285 288 291 297 292 297 303 306 306 305 307 308 309 310 310 312 315 316 318 320 322 324 325 326 330 335 341 348 348 349 353 349 348 348 357
293 293 300 301 303 302 298 295 301 294 295 291 294 298 302 303 302 302 303 305 306 308 309 310 312 315 316 318 320 321 324 326 326 328 333 338 345 349 349 355 354 350 357 350
298 292 300 300 302 302 299 302 294 294 285 284 291 292 293 298 299 300 301 303 306 307 308 310 312 314 316 318 320 322 325 325 326 327 332 336 343 346 347 348 348 347 347 345
299 296 296 298 296 295 297 295 296 296 293 286 285 290 299 297 300 300 302 304 305 306 307 309 311 314 316 318 319 320 324 324 325 328 331 333 334 334 335 334 334 336 338 337
299 296 291 294 300 300 298 296 296 291 289 292 290 290 302 300 301 301 302 304 305 308 309 310 311 314 315 316 317 319 320 322 323 325 329 328 328 329 332 332 332 334 334 335
299 294 289 291 296 298 294 297 297 296 295 290 287 290 301 301 301 303 303 304 305 308 309 310 310 310 313 314 315 316 319 319 319 319 323 323 327 327 331 332 334 334 332 332
300 295 291 288 291 294 291 294 295 294 291 291 291 293 296 299 300 302 303 305 306 308 308 308 308 309 311 312 313 314 315 320 318 318 319 320 321 325 328 331 332 333 333 332
297 290 293 294 294 294 292 292 293 292 293 290 292 293 296 299 300 301 304 305 306 307 307 307 308 308 310 311 312 313 313 315 319 316 315 318 321 321 324 328 330 331 332 330
297 290 292 289 293 292 289 291 292 293 293 293 293 293 300 302 302 303 304 305 305 306 306 306 307 307 308 310 311 312 313 313 315 315 313 316 318 319 320 321 326 329 330 332
292 291 289 286 290 289 285 290 292 292 294 293 289 295 300 300 300 302 304 305 304 304 305 306 306 307 308 309 310 309 311 313 313 313 311 312 315 316 317 319 320 325 328 329
292 291 290 286 288 279 291 296 297 296 297 298 298 299 301 300 302 302 303 302 302 304 305 306 306 307 308 309 309 310 310 310 311 312 311 311 311 312 314 315 319 323 327 328
297 292 287 284 284 289 292 295 295 294 294 299 299 300 300 301 301 300 302 303 303 303 303 304 305 307 307 308 309 309 308 309 308 308 310 311 311 311 312 310 315 320 322 325
295 293 289 287 281 280 292 297 300 300 290 300 299 299 298 298 291 295 300 300 300 301 302 302 302 304 305 305 307 306 306 307 307 307 309 311 309 310 311 312 314 320 321 322
288 288 285 285 285 289 297 298 300 286 290 300 300 299 297 293 296 298 298 298 299 300 299 301 300 301 302 304 305 304 304 304 307 308 308 310 311 312 312 315 315 314 318 320
289 287 286 288 284 283 299 298 290 297 301 299 298 298 295 296 295 295 296 296 296 296 297 298 297 298 301 302 303 301 300 305 307 306 307 309 310 309 310 312 313 314 316 316
288 293 291 291 293 300 302 299 302 301 297 298 296 298 297 294 295 296 295 294 294 294 295 297 297 299 298 298 300 299 301 304 304 304 305 307 308 309 309 310 311 311 313 312
295 298 294 293 296 297 300 302 301 300 297 298 298 296 296 295 295 293 293 292 292 293 293 294 294 293 296 298 297 300 301 302 302 301 303 304 305 306 308 308 309 309 310 311
294 296 294 294 297 298 299 300 300 299 299 297 298 297 296 294 292 292 291 291 290 291 291 292 292 292 293 295 297 297 299 301 298 301 302 302 303 303 305 307 308 308 311 309
296 294 293 291 297 296 297 299 299 296 296 297 296 295 295 293 291 291 289 290 289 288 289 290 291 291 292 294 293 295 298 298 298 299 300 301 301 301 302 303 305 298 297 295

GFSCGP_sfc_thetae_093.txt.gz
Theta_e
307 302 299 302 303 303 302 300 300 302 305 303 303 303 306 309 309 309 310 311 313 313 316 318 319 321 322 326 329 335 337 346 345 348 349 352 352 354 356 358 360 358 359 357
304 299 304 305 304 302 301 299 299 302 305 304 303 302 306 308 309 310 310 311 312 313 315 316 319 321 322 325 333 336 338 343 343 338 352 351 354 353 356 358 360 362 361 358
301 303 305 303 302 300 301 299 299 299 303 305 302 300 303 307 309 310 311 312 313 313 314 316 317 319 321 322 328 330 338 343 344 347 340 350 357 356 350 353 357 357 360 360
303 306 303 301 300 302 297 303 301 300 298 294 304 294 303 306 307 309 311 312 313 313 314 315 316 318 319 321 323 326 334 336 336 347 339 343 339 344 347 349 353 358 361 358
300 301 300 300 300 303 299 304 302 301 299 299 299 296 301 306 305 308 310 312 312 314 313 314 315 316 318 320 321 325 335 339 339 341 345 337 340 339 345 348 354 359 359 360
302 307 303 303 304 304 304 302 302 302 300 293 298 298 299 302 305 308 311 310 311 311 312 314 316 317 318 320 321 324 330 336 337 338 341 346 345 347 344 346 346 352 350 357
299 301 305 305 301 304 303 299 292 292 292 292 302 299 301 306 308 308 308 309 310 311 312 312 313 313 316 318 320 321 324 328 332 335 337 340 344 350 350 351 348 350 349 353
294 293 301 305 302 299 301 300 293 287 289 293 301 295 300 308 309 310 310 309 309 311 311 311 312 313 314 316 319 320 322 325 326 329 334 337 342 338 346 351 351 350 350 353
294 294 304 304 305 304 300 297 302 296 297 293 296 300 306 308 308 307 305 307 308 309 310 311 311 313 315 316 318 320 322 323 326 327 334 337 339 344 342 350 352 350 349 350
299 293 302 304 304 304 301 304 294 296 288 286 292 295 296 301 303 305 304 305 307 308 309 310 311 313 314 316 319 321 322 322 325 327 330 331 336 341 345 351 349 348 350 348
301 296 297 302 299 298 298 298 298 297 295 289 287 292 304 301 304 304 305 306 306 308 308 309 312 314 314 316 317 319 320 321 323 325 329 332 334 337 343 345 348 349 348 345
301 298 293 295 302 304 302 299 298 293 292 295 294 293 306 307 305 304 304 306 307 309 309 310 312 313 313 314 316 317 320 320 322 322 324 326 327 334 338 341 342 344 341 344
302 295 291 293 299 301 298 299 299 298 297 293 290 293 305 304 304 306 305 306 307 308 309 310 311 312 311 312 315 316 317 318 321 321 321 324 325 329 332 333 334 334 335 335
302 297 293 290 293 297 294 296 298 297 293 293 293 294 300 303 304 304 305 307 307 307 309 310 311 311 311 312 313 314 315 317 318 321 319 320 322 325 330 331 333 333 331 330
299 292 295 295 296 297 296 294 296 294 295 291 294 294 298 301 302 303 305 306 307 307 308 308 309 311 311 311 312 313 315 315 317 316 319 318 320 319 322 327 331 333 329 331
299 291 295 292 295 296 293 295 296 295 295 295 295 294 301 303 304 303 305 306 306 306 307 308 309 309 309 311 311 311 312 313 315 315 315 319 315 314 316 321 325 328 329 330
294 292 291 289 294 294 289 294 295 295 297 296 292 297 303 302 303 304 305 305 304 305 305 306 307 308 310 310 311 310 312 313 312 313 314 316 318 313 313 315 318 323 328 331
291 292 292 288 290 282 294 299 298 296 298 300 300 301 302 302 303 303 305 304 304 304 305 305 306 307 310 310 311 310 311 311 311 311 311 312 315 315 314 314 314 320 325 328
294 292 289 287 287 291 293 297 296 295 295 301 300 301 302 302 301 302 305 303 303 302 302 303 304 305 306 305 307 307 308 308 308 309 310 311 312 315 315 315 314 314 318 324
297 294 288 289 284 282 293 299 302 300 290 302 300 299 298 300 294 297 302 302 302 303 302 301 302 303 303 302 304 304 305 304 305 308 309 312 312 312 314 317 316 314 317 318
290 291 288 288 286 290 298 300 302 289 291 301 301 301 299 296 298 300 302 301 301 300 299 300 298 298 300 301 302 300 302 302 305 307 309 310 313 313 315 317 318 317 315 317
290 289 288 290 286 284 302 300 292 299 302 302 301 300 298 299 299 299 299 299 298 296 297 297 296 296 298 301 300 301 297 302 303 305 306 308 311 312 311 316 317 316 316 315
290 295 291 292 293 302 301 301 303 302 299 301 300 300 299 297 298 298 298 295 295 294 294 295 294 294 295 298 299 296 300 303 302 302 304 305 307 310 311 311 313 314 315 313
296 299 295 295 297 299 302 304 302 302 301 301 300 299 299 297 296 295 295 293 292 292 292 293 291 291 291 295 296 297 299 300 301 301 302 304 305 306 309 308 311 310 311 313
296 298 296 296 298 300 301 302 301 301 301 300 300 299 297 297 294 293 291 290 290 290 291 290 290 290 291 293 294 297 299 301 299 301 301 302 306 304 304 308 308 310 315 311
298 295 294 292 300 297 299 301 302 300 298 299 298 296 298 296 292 291 289 289 288 288 289 288 289 289 291 292 293 296 297 298 299 297 300 301 304 304 304 305 307 300 298 297

GFSCGP_sfc_thetae_099.txt.gz
Theta_e
301 293 290 295 297 298 297 295 294 297 301 298 297 297 299 302 302 302 302 304 305 306 309 311 314 318 321 322 323 323 321 326 325 324 326 338 344 349 350 350 351 347 347 346
296 292 298 301 301 299 298 295 293 297 301 297 295 295 299 301 301 301 303 303 305 306 308 310 315 315 315 316 318 318 320 321 323 329 326 328 335 342 349 352 350 350 349 347
293 298 304 301 298 297 296 294 294 294 299 298 296 293 296 301 302 303 304 305 306 306 306 311 311 311 312 314 314 316 319 321 322 322 325 325 324 325 332 343 349 350 350 349
296 302 301 300 298 298 291 299 299 298 294 286 295 285 293 298 300 303 304 303 304 306 308 309 309 309 311 312 313 312 316 322 320 321 323 322 322 320 323 326 333 343 349 350
296 298 298 297 298 300 295 300 297 297 292 289 292 286 290 297 297 300 302 305 305 305 307 307 308 309 310 310 310 316 320 318 319 323 325 322 322 321 320 320 322 327 330 346
298 303 300 299 302 301 301 297 295 293 289 283 289 289 289 294 298 302 307 307 307 306 305 307 308 308 308 309 309 312 312 315 321 320 320 320 320 323 324 324 325 326 326 327
295 297 300 302 296 299 296 290 282 281 281 282 293 290 292 299 305 306 304 305 304 304 304 304 305 305 306 305 307 311 310 311 312 319 318 321 322 321 322 324 326 327 327 327
289 289 300 304 298 294 294 291 283 278 280 285 295 288 293 303 306 307 310 306 304 303 303 304 304 304 304 304 307 310 311 311 314 316 317 317 321 321 320 322 324 326 327 329
289 291 302 304 304 301 296 291 295 289 289 284 289 293 299 304 304 305 306 305 301 303 303 304 305 305 305 306 306 309 309 308 311 315 318 323 321 318 321 322 323 324 328 330
297 290 299 302 304 303 298 301 290 289 280 279 287 289 291 298 301 303 303 302 301 301 300 302 302 304 305 306 308 309 308 311 313 316 316 317 316 317 321 319 322 324 326 329
296 293 294 298 295 294 296 295 294 293 291 281 280 286 299 300 302 301 302 303 300 299 300 301 302 303 305 306 307 307 309 311 310 314 314 314 316 319 319 320 320 323 323 323
298 293 287 292 298 300 296 296 296 288 285 287 285 288 303 302 301 302 303 303 303 303 303 303 302 302 304 305 306 306 308 310 311 312 314 314 316 317 317 317 315 317 317 321
297 290 283 287 292 299 295 297 297 296 293 288 284 285 301 302 302 303 302 303 305 304 304 303 304 304 305 305 307 308 307 306 309 310 310 310 310 315 314 315 314 315 314 314
300 290 288 283 288 294 292 295 296 295 288 287 288 291 294 297 298 299 299 300 301 302 304 304 303 304 305 307 307 307 307 307 309 309 307 309 309 311 313 314 314 314 314 313
296 287 290 291 294 294 292 292 294 293 293 288 291 291 295 296 296 297 299 300 300 300 301 301 301 301 302 303 304 304 305 306 306 306 307 308 310 311 312 314 314 315 313 313
297 287 290 289 293 292 290 293 293 293 294 294 294 293 298 298 299 299 298 299 299 299 300 301 301 302 302 302 302 303 303 303 304 304 304 306 307 309 308 311 314 313 312 311
293 288 286 282 290 290 286 292 293 293 295 295 290 294 297 296 297 296 297 297 297 298 299 299 300 300 300 301 302 301 302 303 302 301 302 304 305 307 308 308 312 311 309 309
292 288 287 284 285 278 290 299 299 296 296 297 296 296 296 296 297 297 298 295 296 297 298 298 298 299 298 299 299 300 300 300 300 300 300 302 303 304 306 306 309 309 309 308
295 290 284 279 279 288 291 296 295 292 293 296 294 295 296 297 296 295 298 298 297 297 298 298 298 298 298 298 298 298 297 297 298 298 299 301 302 301 303 302 306 308 308 308
295 294 286 282 280 278 291 299 302 299 287 297 296 294 294 294 287 291 296 297 297 298 297 296 296 296 295 294 295 294 295 296 295 295 298 300 300 300 300 301 303 306 310 310
289 288 284 284 282 285 296 300 302 286 286 296 296 294 293 290 290 294 297 297 297 296 296 295 294 293 293 294 294 292 293 293 296 297 297 298 299 299 301 304 304 306 307 310
287 286 284 286 283 280 300 299 291 294 297 295 295 294 292 293 294 295 295 295 295 294 293 293 292 291 292 292 291 290 291 294 295 295 295 296 297 299 301 301 302 305 304 307
288 292 287 289 289 298 301 297 301 299 296 296 293 293 294 293 292 294 293 293 292 292 291 292 290 289 290 291 291 290 291 293 293 293 294 296 297 299 300 300 302 303 303 306
296 299 291 291 296 298 299 301 300 298 295 295 296 295 293 292 293 293 292 291 290 290 289 289 288 288 288 290 291 291 292 293 293 292 293 295 297 296 299 301 303 303 304 305
294 295 292 293 294 297 299 299 299 296 297 297 295 294 294 293 292 292 289 289 288 288 288 288 287 287 288 290 291 292 293 293 292 293 294 295 297 298 299 301 301 304 305 305
295 292 288 288 294 294 295 297 297 296 296 294 293 294 294 293 291 290 287 287 287 286 287 287 287 288 289 290 291 293 295 295 293 293 294 296 298 299 300 299 301 298 297 296

GFSCGP_sfc_thetae_102.txt.gz
Theta_e
299 293 289 293 295 295 294 292 292 295 298 296 295 296 299 300 300 300 301 302 303 304 307 309 311 318 319 319 318 318 320 322 321 320 318 319 328 341 346 347 348 346 343 344
293 290 296 298 298 297 295 292 292 295 298 295 293 294 296 298 298 299 300 301 302 303 305 310 314 313 314 314 314 315 316 315 319 321 323 324 326 327 334 341 345 349 344 344
290 295 300 299 296 295 294 292 292 293 297 295 293 291 293 298 300 301 301 302 303 304 304 309 309 309 312 312 313 316 315 316 318 320 319 318 318 318 319 323 333 341 349 345
293 298 298 297 296 296 290 297 296 295 292 285 293 283 289 295 297 299 301 300 300 303 305 309 307 307 309 310 311 310 317 319 318 318 317 318 317 316 319 320 323 324 327 336
293 295 295 294 296 297 294 298 296 295 290 287 289 284 288 294 294 297 299 302 303 302 306 306 306 308 308 308 308 315 317 314 315 318 320 317 315 317 318 319 321 322 322 324
296 301 298 296 299 298 300 295 292 290 287 281 287 287 286 291 294 297 302 302 303 302 304 305 306 306 306 307 308 311 312 314 315 319 314 314 314 314 315 318 318 320 323 325
295 295 299 301 295 296 294 287 280 279 279 280 289 287 287 295 300 302 300 300 301 302 302 302 303 304 304 304 305 309 307 308 310 312 316 315 315 316 316 317 318 319 320 323
288 286 297 302 297 293 291 288 281 277 278 281 291 286 291 301 303 303 304 302 303 301 301 302 303 303 303 304 304 308 308 308 309 310 312 314 314 316 318 318 319 320 319 320
287 290 300 303 302 299 295 290 292 286 286 282 286 291 296 301 302 303 302 300 301 302 302 303 302 302 302 302 304 307 307 308 307 308 310 312 318 317 314 315 319 317 319 323
294 288 298 301 303 302 297 300 289 286 279 278 285 287 289 296 298 300 300 300 300 299 300 302 302 301 302 302 304 304 307 306 305 311 315 316 315 314 314 316 316 317 318 320
294 290 292 296 294 292 296 292 292 290 286 279 279 284 297 299 300 300 300 303 303 301 301 300 300 300 300 301 302 304 304 307 309 312 311 311 312 314 316 316 318 314 315 316
296 291 286 290 296 298 293 292 293 288 285 284 281 283 300 301 300 299 300 301 302 301 300 301 302 303 303 303 304 305 305 305 305 306 308 311 311 313 315 316 316 314 313 314
294 289 283 286 291 296 293 297 297 296 294 289 285 287 299 300 298 298 296 297 298 299 300 299 300 301 302 302 303 303 303 304 305 305 305 305 306 307 310 313 314 313 313 312
298 289 287 282 287 291 290 293 295 293 287 289 290 289 295 296 294 295 296 297 297 297 299 299 299 299 300 301 302 302 301 302 302 303 302 301 302 304 306 310 312 314 314 312
292 286 288 290 293 293 291 290 291 290 292 287 289 291 294 293 293 294 295 296 297 297 297 297 297 297 298 300 301 302 302 302 301 302 302 301 302 303 304 307 309 312 315 313
292 284 288 287 292 291 288 291 292 292 291 291 292 291 296 298 294 294 294 295 295 295 296 297 299 299 299 299 299 300 301 301 302 301 301 301 301 301 301 303 305 308 313 312
288 286 285 281 288 287 282 288 291 292 293 292 287 291 293 292 293 293 293 293 294 295 296 296 297 296 296 296 298 297 298 300 300 299 300 300 300 300 300 301 303 307 310 310
288 288 287 281 282 276 287 298 297 293 294 294 294 294 294 292 293 294 294 292 294 295 296 295 294 295 296 297 296 296 296 296 296 296 297 298 298 299 300 300 301 302 308 309
292 288 284 277 277 284 291 296 294 292 290 294 292 293 293 294 293 291 295 295 294 293 293 294 296 295 295 294 294 294 294 294 294 294 295 298 298 297 297 299 301 302 304 306
294 293 286 282 277 276 289 298 301 300 284 295 294 292 291 290 285 288 293 295 292 294 295 294 295 294 293 294 294 293 292 292 292 293 294 297 297 298 296 298 299 300 301 303
288 288 284 283 280 283 294 298 300 286 284 294 293 291 290 287 289 292 293 293 294 294 293 293 293 292 292 293 292 290 291 290 292 293 294 295 295 295 296 298 298 301 301 306
287 285 284 285 282 279 298 297 289 292 296 293 291 290 290 290 291 290 293 293 293 291 292 292 291 290 291 291 291 290 289 292 293 293 293 293 294 295 297 297 299 300 302 303
288 291 287 288 288 297 299 297 300 297 293 292 290 292 291 289 290 292 291 292 291 290 290 290 289 289 290 290 290 289 290 292 293 293 292 293 294 295 296 297 298 300 302 302
294 298 290 291 295 297 299 300 299 296 293 294 293 291 291 290 291 291 290 290 288 288 288 288 288 287 287 289 290 291 292 293 293 292 293 293 293 294 296 299 299 299 300 302
291 296 292 292 295 298 298 298 296 296 295 292 292 293 292 290 289 289 287 286 286 286 287 287 287 287 287 289 290 291 292 294 293 294 294 294 295 295 296 298 299 300 301 303
292 291 287 289 294 292 291 294 296 292 291 292 292 291 291 291 287 287 286 286 286 286 286 286 286 286 287 288 289 290 292 292 293 294 293 295 295 295 297 299 299 297 298 298

GFSCGP_sfc_thetae_105.txt.gz
Theta_e
297 292 288 290 292 294 292 290 290 294 297 295 293 293 297 300 297 297 299 300 301 301 304 305 308 313 314 315 319 320 319 318 319 316 315 317 320 329 338 344 346 345 343 342
292 289 295 296 296 295 293 290 290 294 297 294 292 293 296 296 297 299 300 300 301 302 304 309 314 315 316 316 316 317 319 319 318 320 321 320 322 324 326 328 329 335 342 342
289 293 298 296 294 293 292 290 291 291 295 295 292 290 292 297 298 299 299 300 301 302 302 307 312 313 312 313 312 313 313 314 316 318 317 315 315 314 315 316 321 325 331 336
291 296 296 294 294 294 289 295 295 294 290 285 292 283 289 293 295 298 299 299 300 301 302 306 309 308 309 310 312 312 311 314 316 315 314 313 311 311 314 316 319 319 322 324
291 293 293 292 294 296 292 297 295 294 289 286 287 284 288 292 293 295 298 299 301 301 301 305 308 309 308 309 308 309 316 314 313 315 315 315 313 313 313 314 316 317 319 321
294 299 296 295 298 297 297 293 290 288 286 280 285 285 285 289 292 294 298 301 301 301 300 303 305 306 305 304 308 313 312 311 312 315 315 313 312 311 310 312 314 315 319 320
293 293 296 299 294 296 292 285 280 279 279 279 287 285 287 294 299 300 299 299 299 299 300 301 302 302 303 304 305 308 309 310 312 315 313 312 312 311 311 313 313 315 317 318
287 285 295 300 296 292 290 286 280 277 277 280 289 283 290 299 300 300 299 298 299 300 301 302 303 303 303 303 303 305 305 305 308 309 310 312 311 312 313 314 316 316 317 316
287 290 299 302 301 298 291 287 290 284 284 281 284 289 294 299 299 300 300 300 298 299 299 299 300 300 300 300 301 301 305 305 306 306 306 308 310 311 314 316 315 317 316 318
292 286 297 301 302 300 296 297 286 284 279 277 282 285 286 294 295 298 299 299 299 299 298 298 299 299 299 299 300 301 302 303 304 305 306 310 311 314 314 311 313 314 316 316
293 290 290 294 293 293 292 288 289 288 284 278 278 283 295 298 297 297 296 297 297 297 298 299 300 301 301 302 302 302 303 303 303 303 304 306 308 309 311 311 314 315 313 314
295 290 285 289 294 296 293 290 290 283 283 281 279 282 298 296 295 296 295 296 297 297 297 298 300 301 301 300 301 301 301 302 302 303 302 302 303 304 305 308 312 315 312 313
295 288 283 284 289 293 291 293 293 292 291 288 285 287 298 297 295 295 294 295 297 297 297 297 298 298 299 299 300 301 301 301 301 302 300 300 300 301 302 304 306 309 312 313
298 289 286 282 285 288 287 291 293 289 288 289 290 290 295 296 294 294 294 294 295 295 296 296 296 296 297 299 299 301 300 300 301 301 300 299 299 299 300 301 303 307 309 310
291 285 287 289 291 292 290 289 289 288 289 286 288 289 293 293 291 292 293 294 294 294 295 295 295 295 296 296 296 298 299 300 300 300 300 300 301 301 301 301 301 302 304 307
290 284 286 285 290 288 286 288 289 289 289 291 291 289 292 294 293 292 292 293 293 293 295 295 296 296 296 295 297 298 298 298 298 298 297 299 299 300 300 300 300 300 301 303
286 284 281 279 286 286 281 285 287 289 291 290 285 288 291 290 292 291 291 292 292 293 294 295 295 294 295 296 297 295 296 296 295 295 295 296 296 296 297 298 298 299 300 301
286 283 282 279 281 275 285 295 295 292 292 292 291 292 292 291 293 295 294 290 292 294 294 293 294 294 295 295 294 294 294 294 294 293 294 295 295 295 296 297 298 299 298 299
290 285 282 278 277 282 289 294 293 290 288 293 292 293 292 292 291 289 294 293 293 292 292 293 294 294 293 293 293 293 293 293 293 293 293 294 294 294 296 295 296 297 299 301
291 289 282 281 276 275 285 296 300 297 285 293 291 289 289 288 283 285 292 292 291 292 292 292 292 292 293 293 293 292 291 291 291 292 293 294 294 294 294 294 294 296 298 298
287 287 284 282 281 282 291 297 298 283 283 291 291 289 288 286 288 291 291 292 292 292 292 291 292 290 291 292 291 290 290 290 292 293 293 294 294 294 294 294 295 295 298 297
287 285 283 286 281 278 296 295 287 289 292 291 289 289 288 288 289 289 291 291 291 291 290 290 288 289 290 291 290 289 289 291 292 293 293 293 294 295 296 294 295 296 297 297
287 287 286 286 285 294 298 293 298 295 291 290 288 289 289 289 289 289 289 289 290 288 287 288 288 288 289 290 290 288 289 291 292 292 293 293 295 294 295 294 294 295 297 297
292 297 291 290 294 297 298 299 296 293 290 290 290 291 290 288 289 288 287 286 286 287 286 287 287 287 287 289 289 289 291 292 292 291 292 295 294 294 295 296 297 297 297 298
288 294 290 292 294 297 298 295 292 291 292 292 292 291 289 288 288 287 286 286 286 286 287 287 286 286 286 288 288 290 290 291 291 291 293 295 295 295 296 297 297 298 298 299
289 288 285 285 293 292 289 291 292 291 291 291 289 288 289 289 287 287 286 286 286 286 286 286 286 286 286 287 288 289 291 292 292 292 294 295 295 295 296 296 297 296 295 295

GFSCGP_sfc_thetae_108.txt.gz
Theta_e
291 288 286 289 290 291 289 288 288 291 296 294 293 294 296 299 297 297 299 300 301 301 304 304 307 309 314 317 323 329 329 331 332 327 325 329 336 339 343 345 346 346 343 343
290 287 293 294 293 292 291 288 288 292 296 294 293 293 296 298 297 297 299 300 300 300 302 305 308 311 314 316 320 320 323 321 319 319 318 319 324 326 327 331 332 337 341 342
288 292 297 295 292 291 290 288 288 290 293 294 292 290 293 298 298 299 298 299 300 300 301 307 310 310 313 314 316 316 316 317 318 321 318 316 315 316 317 319 322 326 331 334
290 294 294 292 292 292 287 293 293 292 289 285 292 283 289 293 295 298 298 298 300 301 301 302 309 310 311 314 314 315 315 315 317 318 315 313 311 311 313 315 318 321 324 326
290 291 291 290 292 294 291 295 293 292 287 286 287 284 288 292 293 296 297 300 301 303 303 302 306 312 310 310 310 311 312 315 316 315 314 313 313 313 315 316 317 318 321 324
292 296 295 294 296 295 296 290 288 286 284 280 285 285 285 289 293 297 299 301 301 301 302 302 305 307 305 306 308 312 314 314 314 315 315 314 314 313 313 314 315 317 319 322
291 291 295 297 292 295 290 285 279 278 278 279 286 285 286 294 299 299 299 299 300 300 300 301 302 303 304 306 309 313 312 311 312 313 316 314 314 312 313 312 313 315 318 320
286 284 293 299 294 291 288 285 280 277 276 279 288 283 289 299 299 298 298 298 299 298 298 300 300 301 301 301 301 302 304 305 305 308 310 310 311 311 312 313 314 316 318 320
288 289 299 301 299 296 290 286 288 282 282 280 283 287 295 298 298 299 299 299 297 297 297 297 298 298 299 300 300 300 301 303 305 305 306 308 310 311 311 313 315 317 319 320
291 287 297 300 301 298 293 294 286 283 278 277 281 284 285 293 294 296 296 296 296 297 298 299 300 301 301 301 302 303 303 303 304 304 304 306 307 309 311 312 313 314 317 318
292 289 290 293 292 291 291 288 288 287 283 278 278 282 292 293 294 293 294 295 295 296 297 298 299 300 300 301 301 302 302 303 303 304 304 304 304 305 306 308 311 313 316 317
296 290 285 287 293 295 292 290 289 283 282 281 279 281 294 292 293 293 294 296 296 297 296 297 298 298 299 299 300 301 302 301 302 303 303 302 303 303 303 304 306 308 310 313
296 288 284 284 289 292 290 292 291 289 287 283 281 283 295 295 293 293 293 294 296 296 296 297 296 296 297 298 298 299 300 300 301 302 301 301 302 301 302 303 304 305 306 307
298 289 286 282 283 287 287 290 291 288 284 284 285 287 293 293 292 293 293 294 294 294 295 295 295 295 296 297 297 298 299 300 300 300 300 299 300 301 301 302 302 303 304 304
290 284 287 288 290 290 288 289 289 287 286 284 286 289 293 293 292 292 293 294 294 293 294 295 295 295 295 295 296 298 298 299 299 298 297 297 298 299 299 300 301 302 302 303
288 283 284 284 288 287 285 288 288 288 288 289 289 288 293 292 292 292 292 294 292 292 294 294 295 296 296 296 296 297 297 296 297 295 295 296 296 297 297 297 298 298 299 301
286 284 281 279 284 284 280 284 286 288 289 288 284 289 291 290 291 291 292 293 292 292 293 294 294 294 295 295 295 294 294 295 295 294 295 295 295 295 296 297 296 296 297 298
285 283 280 278 280 275 283 293 293 291 291 291 290 291 292 291 292 292 293 292 292 292 293 292 294 294 294 294 293 294 294 294 294 293 294 294 294 294 295 295 295 296 297 297
289 283 281 275 275 281 289 293 293 291 289 292 290 291 291 291 290 290 294 293 291 291 292 293 293 292 292 292 294 292 292 293 292 292 293 294 294 294 294 294 294 295 296 295
289 286 280 281 273 275 284 295 299 298 286 292 291 289 289 289 283 286 291 291 291 291 292 292 293 292 292 291 291 291 291 291 291 292 292 294 294 294 293 294 294 295 295 294
286 286 283 282 277 281 289 296 297 282 283 291 290 289 288 286 288 289 290 291 291 290 291 291 289 289 289 290 291 289 290 289 291 292 293 293 294 294 294 294 295 295 295 295
285 283 283 284 280 274 295 293 286 288 291 290 289 288 287 288 288 289 289 288 289 288 288 289 288 288 289 290 290 289 288 291 291 292 292 293 294 295 296 295 294 294 294 294
287 289 282 283 282 291 296 293 295 293 290 288 287 289 288 287 287 287 288 288 287 287 287 288 287 288 289 289 289 288 289 290 291 291 291 292 294 295 296 294 294 294 295 295
294 297 291 286 289 294 297 293 291 291 289 290 290 288 288 286 287 287 286 286 287 287 286 288 287 286 286 288 289 289 290 291 291 291 292 293 293 295 296 296 297 296 295 295
287 295 291 292 295 297 294 293 292 290 290 289 289 288 287 287 287 287 286 286 286 286 287 287 286 286 286 288 288 289 290 291 290 291 292 294 295 296 296 296 297 297 299 298
287 287 285 283 291 289 288 290 291 289 288 289 288 287 289 288 287 287 286 286 286 286 286 286 286 286 286 287 287 288 290 290 290 290 292 295 296 296 296 296 297 296 295 294

GFSCGP_sfc_thetae_111.txt.gz
Theta_e
297 293 290 294 296 297 297 294 294 296 299 298 298 299 302 305 308 307 308 308 310 311 314 316 315 318 322 330 337 344 345 349 348 347 348 348 348 350 350 352 354 353 353 353
293 290 296 297 298 296 296 294 295 297 299 298 298 298 302 304 304 305 306 307 311 311 312 314 315 319 324 333 337 344 346 348 349 348 344 347 348 349 352 354 356 356 353 350
293 295 298 297 297 294 295 294 295 295 298 300 298 296 298 302 304 304 304 307 308 309 310 311 314 318 323 330 335 339 343 344 342 340 334 334 334 335 336 337 337 340 342 343
297 300 297 297 296 297 293 298 297 296 295 291 297 290 298 301 300 302 304 304 305 307 310 312 316 317 321 326 329 332 333 335 335 336 335 340 331 327 328 329 330 333 334 334
294 296 296 295 297 299 296 300 298 297 296 294 294 292 297 298 298 301 304 307 308 309 309 310 311 318 319 322 323 327 328 329 331 333 335 329 331 327 328 328 332 334 334 335
297 301 300 299 300 300 300 297 296 295 295 289 294 293 294 296 298 302 305 306 306 308 308 310 313 316 317 320 322 325 327 329 330 330 330 333 334 331 326 328 326 327 328 331
295 296 300 301 298 301 298 295 289 287 287 287 292 292 295 298 302 303 304 305 306 306 308 309 312 314 317 320 321 324 325 321 323 324 325 326 326 327 328 330 326 328 326 328
291 287 296 302 300 297 298 296 290 283 285 288 293 290 295 302 303 303 305 306 306 305 306 306 308 309 310 311 312 314 315 317 318 319 319 321 323 321 323 324 324 323 324 326
291 291 301 302 303 302 297 294 296 291 290 290 292 295 301 302 302 304 304 304 304 306 307 307 308 309 310 312 312 314 314 314 314 314 316 317 319 320 321 323 325 324 326 326
297 291 299 301 303 302 300 300 293 294 286 284 289 291 294 299 300 302 302 303 304 305 305 306 306 307 308 309 310 311 311 311 311 312 313 312 313 314 315 316 316 318 322 324
298 296 294 298 296 296 297 296 296 296 293 287 285 290 300 301 302 301 302 303 303 304 304 305 305 306 306 307 307 308 308 309 309 310 311 311 311 312 312 312 313 314 315 316
298 296 292 293 298 299 298 296 298 294 290 292 292 291 300 302 302 303 302 302 303 303 304 304 304 305 305 305 305 306 307 307 307 308 309 309 310 310 310 310 311 312 312 313
302 293 287 290 295 298 295 297 297 296 296 292 289 292 300 301 301 302 302 302 302 303 303 303 304 303 303 303 304 304 305 305 307 307 306 307 307 307 308 308 309 309 309 310
305 295 290 289 291 295 293 296 297 296 292 291 292 294 297 299 300 300 301 302 302 302 302 302 303 303 303 303 303 303 304 305 305 305 304 304 305 305 305 305 306 306 307 307
299 293 294 293 294 294 293 294 294 293 293 290 292 294 298 301 301 300 301 301 301 301 301 301 301 302 302 302 302 303 303 303 303 302 302 302 303 304 304 304 304 305 304 305
297 291 292 289 291 291 290 292 293 293 293 294 294 293 301 300 300 299 300 300 299 299 299 300 300 300 300 301 301 301 301 301 302 301 300 302 302 302 302 302 303 303 303 303
294 292 290 285 288 288 285 290 291 292 293 294 290 295 299 297 298 299 299 299 298 298 298 299 299 299 300 300 299 298 299 300 299 299 300 300 300 300 301 300 301 300 300 301
293 291 289 285 287 279 289 298 296 294 295 296 295 296 297 297 298 299 299 298 297 298 298 298 298 299 299 299 298 299 298 298 298 298 298 298 297 297 297 298 298 298 298 298
295 292 286 284 283 285 291 295 295 294 293 296 296 296 296 298 299 298 298 298 298 298 298 297 298 298 297 296 297 296 296 296 296 295 295 295 295 295 296 296 296 297 297 296
293 293 289 285 281 280 291 296 300 298 290 296 297 295 295 296 293 296 298 298 297 297 296 295 295 295 295 294 294 293 294 295 294 293 293 294 295 295 294 295 295 296 296 295
288 289 286 284 283 287 294 297 299 287 290 297 296 296 295 293 295 297 297 296 296 295 294 294 293 292 292 293 293 292 293 291 292 293 294 294 295 295 296 296 296 297 297 296
286 285 284 286 284 281 299 298 292 296 298 297 296 295 294 295 294 294 294 293 293 292 291 292 291 291 292 294 292 289 288 292 293 293 293 294 295 297 297 297 297 297 296 295
288 293 290 290 290 300 300 298 299 299 297 295 294 293 293 292 291 291 291 291 289 289 289 290 289 289 292 290 289 288 290 292 292 293 294 295 298 298 298 298 297 298 298 296
296 297 293 293 296 298 296 295 297 297 295 294 293 292 292 291 291 289 289 288 287 288 288 289 289 287 287 288 289 290 290 291 292 292 295 297 296 297 299 299 299 299 299 297
295 297 294 293 297 295 296 295 294 293 294 293 293 292 291 291 289 288 287 287 287 288 288 288 287 286 286 288 289 290 290 290 290 291 294 295 296 297 298 300 299 299 301 300
296 295 293 293 299 298 294 293 294 293 292 292 291 291 292 290 288 288 287 288 288 287 288 287 287 286 286 287 287 288 289 289 288 289 292 295 296 298 298 299 299 297 295 294

GFSCGP_sfc_thetae_114.txt.gz
Theta_e
301 297 295 298 299 300 299 298 296 299 302 301 300 301 304 308 310 312 316 318 319 323 326 326 326 325 323 328 336 341 345 356 359 357 354 354 353 356 357 358 359 360 360 361
298 294 300 301 300 299 299 297 297 300 302 302 300 300 304 307 308 311 314 317 318 322 323 323 322 325 323 331 337 345 349 354 355 353 354 353 354 356 356 356 358 360 359 359
296 298 301 299 298 297 298 297 297 297 301 302 300 299 302 306 309 312 314 315 320 320 321 318 320 323 324 328 335 341 352 353 354 356 355 354 356 355 353 355 357 359 360 357
297 301 299 297 297 299 296 301 300 298 297 293 302 293 301 305 306 309 311 312 315 319 318 316 316 319 324 326 332 342 348 352 354 353 349 351 346 344 347 350 348 345 344 341
295 299 299 296 299 302 299 302 300 299 298 297 298 295 300 305 303 306 309 310 312 316 314 311 313 317 321 325 332 338 344 347 348 349 350 348 347 342 336 333 339 344 341 338
301 304 302 302 303 303 304 301 301 300 298 291 296 296 296 301 303 306 310 311 311 312 313 315 316 319 322 324 328 333 338 339 342 340 340 338 334 334 330 330 328 327 328 331
298 298 303 304 300 303 302 299 291 289 290 289 298 295 296 305 308 309 310 311 313 313 314 315 317 318 322 325 327 329 332 331 332 333 333 333 334 333 333 334 329 330 326 327
293 290 298 303 301 299 300 300 293 285 287 290 298 292 300 308 309 311 312 311 313 312 313 313 315 316 317 319 322 325 326 325 326 328 328 330 331 327 328 331 330 329 328 329
294 293 301 302 304 303 300 297 302 295 296 291 295 299 304 307 308 309 310 311 311 312 313 314 315 315 315 316 319 320 321 320 320 322 323 323 324 324 324 326 327 326 331 329
300 293 299 300 304 305 302 304 295 296 287 286 292 295 296 303 305 308 309 310 311 311 311 311 312 313 313 314 314 316 317 317 318 319 320 319 320 321 321 321 322 323 324 324
302 299 297 302 299 297 299 299 300 299 296 289 287 293 306 306 307 308 309 310 310 310 310 310 310 312 312 313 313 314 313 314 315 316 316 317 317 318 318 318 319 320 321 321
303 300 295 296 303 303 301 300 300 296 293 296 296 294 308 309 309 309 309 310 310 311 311 311 311 311 311 311 312 311 312 311 313 313 314 314 315 316 316 316 317 318 318 318
304 299 291 294 299 302 299 300 301 301 301 295 291 292 306 308 308 309 308 309 309 309 309 310 310 310 310 310 310 310 310 310 310 311 311 312 313 314 314 315 316 315 315 315
307 299 295 292 294 300 297 299 301 299 294 293 294 293 301 304 305 307 308 309 309 308 307 308 309 309 309 309 308 308 309 309 310 309 310 310 312 312 313 313 313 313 314 313
306 298 300 298 297 298 298 298 299 297 297 293 295 296 302 305 306 307 308 308 307 307 308 307 307 308 308 307 308 307 307 308 309 308 308 309 310 311 311 311 312 311 311 311
303 298 299 295 297 297 295 297 298 297 297 297 297 296 304 306 308 306 306 306 306 306 305 305 306 306 305 305 306 306 306 307 308 307 306 308 309 309 309 309 308 308 307 307
301 299 296 291 294 293 289 294 296 297 298 298 294 299 304 302 302 304 304 305 304 304 303 304 304 304 305 305 306 305 305 306 305 305 306 306 306 305 304 303 303 302 302 303
301 299 298 291 292 283 294 301 298 296 297 299 299 301 302 303 304 304 305 304 302 303 303 304 303 303 305 304 304 304 304 304 304 304 304 303 301 300 300 300 301 301 301 300
303 299 293 289 288 290 293 298 298 297 296 301 301 301 302 303 305 303 303 303 302 303 302 302 302 302 303 302 303 301 301 302 302 301 300 300 299 299 300 300 301 301 300 298
300 300 295 291 285 282 295 300 303 302 290 301 302 301 301 302 298 296 303 303 302 302 301 301 301 301 301 302 300 298 298 299 298 298 297 300 301 301 300 300 300 301 301 299
292 294 289 290 289 291 298 300 303 290 291 302 302 301 301 299 299 301 301 300 301 300 299 299 299 299 299 298 297 296 297 294 293 297 300 301 301 300 300 300 301 301 300 300
290 287 287 290 287 285 302 301 294 300 304 303 301 300 299 299 299 298 299 299 298 297 296 296 295 295 295 296 295 294 290 293 297 298 298 298 298 299 301 301 302 304 301 301
290 294 293 293 293 302 304 303 306 305 302 300 299 298 297 297 297 297 296 295 294 292 292 293 292 292 294 294 291 288 292 295 295 294 295 297 300 302 302 302 302 300 300 300
298 301 298 297 298 299 300 302 302 302 300 298 298 297 297 295 295 294 292 291 291 290 290 291 291 290 288 289 290 292 294 293 292 292 294 298 300 302 303 303 303 304 299 300
298 300 298 295 294 296 297 300 298 296 298 297 297 296 295 295 293 291 290 289 289 289 290 290 288 287 287 289 289 290 291 292 290 291 293 297 301 302 302 300 301 300 303 301
301 298 296 293 301 299 297 297 296 296 296 296 295 295 295 295 291 291 289 289 289 289 289 287 287 287 286 287 288 289 290 290 289 290 291 295 298 300 300 299 299 298 296 295

GFSCGP_sfc_thetae_117.txt.gz
Theta_e
303 298 296 299 301 301 301 300 299 301 304 302 301 301 304 307 308 309 313 317 319 322 327 326 327 330 332 330 338 340 345 359 361 357 354 354 351 354 354 355 361 360 360 359
299 296 302 303 302 300 300 299 299 302 304 303 301 300 304 306 307 309 312 314 316 320 322 326 327 331 332 332 334 341 344 350 356 355 359 351 351 348 351 352 364 358 360 360
297 300 303 302 300 299 299 298 299 299 302 304 302 299 302 305 307 309 312 313 314 317 320 325 327 328 329 327 336 336 343 352 357 357 354 355 357 354 350 350 354 358 360 359
299 303 301 300 299 300 296 302 301 300 299 293 302 292 299 303 305 307 309 311 314 319 321 325 328 329 327 325 332 333 346 355 355 358 358 357 351 345 344 349 349 356 360 360
297 299 299 298 299 301 298 303 302 301 298 298 298 294 299 304 302 305 310 313 316 316 320 325 326 326 321 325 327 336 349 353 356 359 357 350 352 346 351 345 356 356 355 348
300 304 302 302 302 302 304 302 302 301 299 291 296 294 295 299 303 307 310 313 313 315 322 323 321 322 322 323 330 340 346 348 351 351 354 356 352 348 338 340 335 334 334 337
298 300 304 305 300 303 303 299 292 289 290 289 299 296 298 304 305 308 311 314 315 315 317 318 319 318 324 324 329 334 339 341 344 343 342 341 341 341 340 337 331 333 328 328
294 292 300 304 301 300 301 300 292 286 287 291 298 293 300 307 308 313 314 315 316 317 318 319 321 324 326 328 330 332 332 330 332 333 333 333 333 331 332 335 334 332 331 332
295 295 303 303 304 304 300 297 303 295 297 293 295 300 306 309 310 312 313 314 315 316 317 318 319 321 322 323 324 325 324 323 325 326 327 327 327 327 327 328 329 325 335 329
301 294 300 302 304 304 302 304 295 298 288 287 293 293 297 304 307 310 311 313 314 316 316 316 316 317 318 319 320 321 321 320 320 321 323 322 323 323 323 324 325 326 327 326
303 299 297 300 298 297 299 298 301 301 298 291 288 292 305 306 309 310 312 313 314 314 314 314 315 316 316 317 318 318 318 317 318 318 318 319 319 319 321 321 322 322 325 323
304 300 295 296 301 303 303 301 300 297 293 297 297 297 307 305 311 313 312 313 314 314 314 314 314 315 315 315 315 315 315 315 315 316 316 316 317 318 320 318 321 320 320 320
306 299 293 293 298 304 300 302 303 303 302 293 292 296 309 311 311 312 311 312 312 313 313 314 314 313 313 313 313 313 314 313 314 314 314 315 315 316 317 317 318 318 318 317
309 301 298 293 296 301 298 300 301 300 291 294 294 294 302 306 306 309 311 312 312 312 312 313 313 313 313 312 312 312 312 312 312 312 312 312 314 315 315 316 316 316 316 316
306 298 301 298 300 300 300 299 300 298 298 294 296 299 302 306 305 308 310 311 311 311 310 311 310 311 312 311 311 311 310 310 311 310 310 311 312 313 314 314 314 313 312 311
307 298 301 296 299 299 295 300 301 301 300 300 299 300 308 307 310 309 309 309 308 308 309 309 309 310 309 309 309 309 309 310 310 309 309 310 311 312 311 310 309 309 309 309
303 301 298 293 298 297 293 298 299 300 300 299 296 301 307 306 306 307 307 307 307 308 307 308 308 308 308 308 309 307 308 308 308 308 309 309 310 307 306 306 305 304 305 306
302 301 300 293 296 287 297 302 300 299 300 301 302 303 305 305 307 307 308 306 306 307 307 307 307 307 307 307 307 308 307 306 307 307 307 307 306 305 304 303 303 303 303 302
307 302 297 292 291 294 296 299 297 298 298 302 301 302 304 306 305 305 306 306 305 305 305 305 306 305 306 306 307 305 304 305 304 304 304 304 304 302 302 301 302 303 302 303
304 305 299 295 289 285 297 303 307 304 292 304 302 301 301 304 296 298 305 305 304 305 304 304 304 304 305 305 304 302 301 300 300 302 300 300 303 303 302 302 302 303 304 304
296 297 294 293 292 295 302 303 305 293 292 302 303 302 302 300 300 303 304 303 304 303 302 302 302 301 302 300 299 297 297 297 298 298 300 302 303 304 304 303 302 305 304 301
293 291 293 295 290 287 304 302 296 300 304 303 302 303 301 301 301 301 301 301 301 299 299 299 298 297 297 297 296 295 294 294 296 299 300 301 303 302 301 303 305 305 306 304
292 297 295 295 295 304 306 304 305 305 302 302 302 301 300 299 298 299 298 298 297 296 295 295 294 293 294 294 293 289 291 296 297 297 299 301 301 301 303 305 303 301 305 305
299 301 297 298 298 300 302 304 304 304 302 301 300 300 299 297 297 296 296 294 293 292 291 292 291 290 290 290 290 291 293 294 296 296 298 298 298 300 304 304 303 300 300 301
299 301 296 295 298 300 302 303 302 301 301 299 299 299 298 297 296 295 293 291 290 290 290 290 288 288 287 289 289 292 293 294 294 295 295 296 299 301 302 302 301 301 303 301
303 300 298 296 301 301 300 302 302 299 298 298 298 297 298 297 295 294 291 291 289 288 288 288 288 287 287 287 288 289 290 290 291 291 292 293 296 300 301 301 300 299 296 296

GFSCGP_sfc_thetae_120.txt.gz
Theta_e
306 297 294 297 299 300 299 298 298 301 303 301 300 300 303 306 306 306 308 311 313 318 324 330 330 330 333 336 333 335 338 341 347 338 350 351 354 358 359 361 364 360 358 359
299 294 299 301 301 299 298 297 297 301 305 303 301 300 303 305 306 307 308 309 312 317 320 327 327 329 330 333 334 340 343 350 359 363 365 363 355 357 355 357 359 361 358 360
296 298 301 300 299 298 298 296 297 298 303 304 302 299 301 305 307 308 309 311 312 313 319 325 327 326 327 331 336 336 342 346 356 361 358 358 362 357 356 355 359 356 359 361
299 302 300 298 298 299 295 300 300 299 298 293 302 291 300 303 304 307 308 309 311 313 318 319 326 325 326 329 333 338 336 347 358 362 359 357 353 351 350 352 355 359 359 358
297 298 298 297 298 301 298 302 300 300 297 297 297 294 298 304 302 305 308 309 311 314 315 315 320 329 328 328 330 333 343 349 352 357 358 352 349 352 352 354 355 358 359 359
300 304 302 301 302 302 303 300 300 300 297 290 295 294 295 299 302 307 311 311 312 314 317 321 326 329 328 328 330 327 334 350 352 356 353 353 352 348 343 347 346 347 348 345
299 299 302 303 299 302 300 297 290 289 289 288 297 294 297 306 308 309 310 310 313 314 318 320 320 324 323 325 327 337 341 344 348 350 350 346 343 339 341 340 337 337 336 339
294 290 298 302 299 297 297 297 291 285 287 290 298 292 298 308 310 311 311 313 315 316 318 319 319 318 322 324 329 328 338 335 339 336 330 334 332 337 330 333 331 331 331 333
294 294 300 302 303 302 297 295 301 295 296 292 296 299 306 308 307 307 308 313 314 317 319 319 322 323 323 325 331 331 330 331 331 331 332 332 332 331 330 329 329 328 329 326
299 293 300 302 303 303 301 303 294 296 287 285 292 295 296 302 304 308 310 313 314 316 316 317 319 320 321 325 326 326 324 323 324 325 326 323 324 325 326 327 327 328 328 328
301 297 297 302 298 296 298 297 299 299 297 289 288 292 306 304 307 302 311 313 313 313 313 314 316 317 317 318 317 320 321 321 321 321 323 323 322 322 324 324 324 323 323 321
302 299 294 297 301 303 301 299 299 294 293 295 292 289 309 308 307 306 310 312 313 313 313 313 313 315 315 316 316 316 319 317 318 320 321 321 320 322 322 322 322 323 321 321
303 299 290 293 299 302 298 299 302 302 301 295 292 294 307 307 306 307 310 311 311 313 312 312 313 312 312 313 313 313 314 314 315 315 315 319 320 320 320 319 320 319 318 317
306 299 295 291 295 299 296 297 300 300 296 294 296 296 301 304 304 307 309 311 311 312 312 312 313 312 312 312 312 312 312 312 312 312 313 315 316 317 318 318 317 316 315 313
305 298 297 300 299 299 299 298 299 299 299 294 297 297 302 305 307 308 310 310 309 310 310 310 311 311 311 311 311 311 311 311 312 310 311 313 314 315 315 314 312 312 311 310
308 299 300 295 298 300 298 300 300 300 300 299 299 300 308 309 310 309 309 309 308 307 308 309 310 309 309 309 309 309 309 309 310 309 309 311 312 311 311 309 308 308 307 307
305 300 297 291 297 298 291 296 300 301 302 300 294 303 308 307 306 306 308 308 306 307 307 307 308 307 309 308 309 307 308 308 307 307 308 309 309 308 307 307 306 305 305 305
299 300 300 294 296 286 296 301 301 302 302 303 303 305 306 306 306 306 307 306 305 305 305 306 305 306 307 307 307 308 306 305 305 306 306 306 305 305 305 306 305 304 303 303
300 295 297 293 292 294 296 299 299 299 298 303 302 304 305 306 305 303 306 305 304 304 304 304 304 304 306 306 305 303 302 302 303 303 303 303 302 302 304 303 304 304 304 303
299 301 299 296 289 286 297 303 306 305 293 304 304 303 302 304 297 299 304 304 304 304 303 301 302 302 304 301 301 299 299 299 299 299 300 301 302 303 302 303 303 304 304 303
292 298 295 293 292 294 301 305 306 292 292 304 304 304 302 299 300 303 303 303 303 301 301 300 300 299 298 298 298 296 296 296 296 298 299 300 302 302 302 304 304 301 302 304
293 293 294 296 291 287 304 303 297 301 304 303 303 302 301 301 300 300 300 300 299 297 297 296 295 295 295 295 294 293 292 294 296 297 298 300 301 301 302 302 302 304 303 302
293 298 297 298 294 305 307 305 307 306 302 301 300 300 300 298 297 297 297 296 295 294 293 293 292 292 292 292 291 290 291 293 294 296 298 299 300 300 302 301 302 300 301 301
300 304 297 298 298 301 303 304 304 303 301 300 300 299 298 296 296 295 293 292 291 291 290 290 290 288 288 289 289 290 292 293 294 294 296 297 297 299 302 302 301 301 300 300
301 302 297 296 298 300 301 302 301 300 300 299 299 298 297 296 294 293 291 289 289 288 288 288 287 286 286 288 289 290 290 290 289 291 293 294 295 297 301 301 301 301 302 301
302 299 296 294 301 300 298 301 301 299 298 299 298 297 297 295 293 293 290 289 288 287 287 287 286 286 286 288 287 289 289 288 288 288 290 291 292 295 299 301 301 299 296 295